[[{"header":{"parameterUnit":"m.s-1","parameterCategory":1,"la1":31.0,"la2":29.5877,"lo1":-88.7671,"lo2":-86.6584,"dy":0.0162,"dx":0.0185,"nx":115,"ny":88,"refTime":"2023-07-23T18:00:00:Z","depth":0,"parameterNumber":2,"parameterNumberName":"U-component_of_WINDS"},"data":[0.0,0.0,0.0,0.0,0.0,0.0,0.0,0.0,0.0,0.0,0.0,0.0,0.0,0.0,0.0,0.0,0.0,0.0,0.0,0.0,0.0,0.0,0.0,0.0,0.0,0.0,0.0,0.0,0.0,0.0,0.0,0.0,0.0,0.0,0.0,0.0,0.0,0.0,0.0,0.0,0.0,0.0,0.0,0.0,0.0,0.0,0.0,0.0,0.0,0.0,0.0,0.0,0.0,0.0,0.0,0.0,0.0,0.0,0.0,0.0,0.0,0.0,0.0,0.0,0.0,0.0,0.0,0.0,0.0,0.0,0.0,0.0,0.0,0.0,0.0,0.0,0.0,0.0,0.0,0.0,0.0,0.0,0.0,0.0,0.0,0.0,0.0,0.0,0.0,0.0,0.0,0.0,0.0,0.0,0.0,0.0,0.0,0.0,0.0,0.0,0.0,0.0,0.0,0.0,0.0,0.0,0.0,0.0,0.0,0.0,0.0,0.0,0.0,0.0,0.0,0.0,0.0,0.0,0.0,0.0,0.0,0.0,0.0,0.0,0.0,0.0,0.0,0.0,0.0,0.0,0.0,0.0,0.0,0.0,0.0,0.0,0.0,0.0,0.0,0.0,0.0,0.0,0.0,0.0,0.0,0.0,0.0,0.0,0.0,0.0,0.0,0.0,0.0,0.0,0.0,0.0,0.0,0.0,0.0,0.0,0.0,0.0,0.0,0.0,0.0,0.0,0.0,0.0,0.0,0.0,0.0,0.0,0.0,0.0,0.0,0.0,0.0,0.0,0.0,0.0,0.0,0.0,0.0,0.0,0.0,0.0,0.0,0.0,0.0,0.0,0.0,0.0,0.0,0.0,0.0,0.0,0.0,0.0,0.0,0.0,0.0,0.0,0.0,0.0,0.0,0.0,0.0,0.0,0.0,0.0,0.0,0.0,0.0,0.0,0.0,0.0,0.0,0.0,0.0,0.0,0.0,0.0,0.0,0.0,0.0,0.0,0.0,0.0,0.0,0.0,0.0,0.0,0.0,0.0,0.0,0.0,0.0,0.0,0.0,0.0,0.0,0.0,0.0,0.0,0.0,0.0,0.0,0.0,0.0,0.0,0.0,0.0,0.0,0.0,0.0,0.0,0.0,0.0,0.0,0.0,0.0,0.0,0.0,0.0,0.0,0.0,0.0,0.0,0.0,0.0,0.0,0.0,0.0,0.0,0.0,0.0,0.0,0.0,0.0,0.0,0.0,0.0,0.0,0.0,0.0,0.0,0.0,0.0,0.0,0.0,0.0,0.0,0.0,0.0,0.0,0.0,0.0,0.0,0.0,0.0,0.0,0.0,0.0,0.0,0.0,0.0,0.0,0.0,0.0,0.0,0.0,0.0,0.0,0.0,0.0,0.0,0.0,0.0,0.0,0.0,0.0,0.0,0.0,0.0,0.0,0.0,0.0,0.0,0.0,0.0,0.0,0.0,0.0,0.0,0.0,0.0,0.0,0.0,0.0,0.0,0.0,0.0,0.0,0.0,0.0,0.0,0.0,0.0,0.0,0.0,0.0,0.0,0.0,0.0,0.0,0.0,0.0,0.0,0.0,0.0,0.0,0.0,0.0,0.0,0.0,0.0,0.0,0.0,0.0,0.0,0.0,0.0,0.0,0.0,0.0,0.0,0.0,0.0,0.0,0.0,0.0,0.0,0.0,0.0,0.0,0.0,0.0,0.0,0.0,0.0,0.0,0.0,0.0,0.0,0.0,0.0,0.0,0.0,0.0,0.0,0.0,0.0,0.0,0.0,0.0,0.0,0.0,0.0,0.0,0.0,0.0,0.0,0.0,0.0,0.0,0.0,0.0,0.0,0.0,0.0,0.0,0.0,0.0,0.0,0.0,0.0,0.0,0.0,0.0,0.0,0.0,0.0,0.0,0.0,0.0,0.0,0.0,0.0,0.0,0.0,0.0,0.0,0.0,0.0,0.0,0.0,0.0,0.0,0.0,0.0,0.0,0.0,0.0,0.0,0.0,0.0,0.0,0.0,0.0,0.0,0.0,0.0,0.0,0.0,0.0,0.0,0.0,0.0,0.0,0.0,0.0,0.0,0.0,0.0,0.0,0.0,0.0,0.0,0.0,0.0,0.0,0.0,0.0,0.0,0.0,0.0,0.0,0.0,0.0,0.0,0.0,0.0,0.0,0.0,0.0,0.0,0.0,0.0,0.0,0.0,0.0,0.0,0.0,0.0,0.0,0.0,0.0,0.0,0.0,0.0,0.0,0.0,0.0,0.0,0.0,0.0,0.0,0.0,0.0,0.0,0.0,0.0,0.0,0.0,0.0,0.0,0.0,0.0,0.0,0.0,0.0,0.0,0.0,0.0,0.0,0.0,0.0,0.0,0.0,0.0,0.0,0.0,0.0,0.0,0.0,0.0,0.0,0.0,0.0,0.0,0.0,0.0,0.0,0.0,0.0,0.0,0.0,0.0,0.0,0.0,0.0,0.0,0.0,0.0,0.0,0.0,0.0,0.0,0.0,0.0,0.0,0.0,0.0,0.0,0.0,0.0,0.0,0.0,0.0,0.0,0.0,0.0,0.0,0.0,0.0,0.0,0.0,0.0,0.0,0.0,0.0,0.0,0.0,0.0,0.0,0.0,0.0,0.0,0.0,0.0,0.0,0.0,0.0,0.0,0.0,0.0,0.0,0.0,0.0,0.0,0.0,0.0,0.0,0.0,0.0,0.0,0.0,0.0,0.0,0.0,0.0,0.0,0.0,0.0,0.0,0.0,0.0,0.0,0.0,0.0,0.0,0.0,0.0,0.0,0.0,0.0,0.0,0.0,0.0,0.0,0.0,0.0,0.0,0.0,0.0,0.0,0.0,0.0,0.0,0.0,0.0,0.0,0.0,0.0,0.0,0.0,0.0,0.0,0.0,0.0,0.0,0.0,0.0,0.0,0.0,0.0,0.0,0.0,0.0,0.0,0.0,0.0,0.0,0.0,0.0,0.0,0.0,0.0,0.0,0.0,0.0,0.0,0.0,0.0,0.0,0.0,0.0,0.0,0.0,0.0,0.0,0.0,0.0,0.0,0.0,0.0,0.0,0.0,0.0,0.0,0.0,0.0,0.0,0.0,0.0,0.0,0.0,0.0,0.0,0.0,0.0,0.0,0.0,0.0,0.0,0.0,0.0,0.0,0.0,0.0,0.0,0.0,0.0,0.0,0.0,0.0,0.0,0.0,0.0,0.0,0.0,0.0,0.0,0.0,0.0,0.0,0.0,0.0,0.0,0.0,0.0,0.0,0.0,0.0,0.0,0.0,0.0,0.0,0.0,0.0,0.0,0.0,0.0,0.0,0.0,0.0,0.0,0.0,0.0,0.0,0.0,0.0,0.0,0.0,0.0,0.0,0.0,0.0,0.0,0.0,0.0,0.0,0.0,0.0,0.0,0.0,0.0,0.0,0.0,0.0,0.0,0.0,0.0,0.0,0.0,0.0,0.0,0.0,0.0,0.0,0.0,0.0,0.0,0.0,0.0,0.0,0.0,0.0,0.0,0.0,0.0,0.0,0.0,0.0,0.0,0.0,0.0,0.0,0.0,0.0,0.0,0.0,0.0,0.0,0.0,0.0,0.0,0.0,0.0,0.0,0.0,0.0,0.0,0.0,0.0,0.0,0.0,0.0,0.0,0.0,0.0,0.0,0.0,0.0,0.0,0.0,0.0,0.0,0.0,0.0,0.0,0.0,0.0,0.0,0.0,0.0,0.0,0.0,0.0,0.0,0.0,0.0,0.0,0.0,0.0,0.0,0.0,0.0,0.0,0.0,0.0,0.0,0.0,0.0,0.0,0.0,0.0,0.0,0.0,0.0,0.0,0.0,0.0,0.0,0.0,0.0,0.0,0.0,0.0,0.0,0.0,0.0,0.0,0.0,0.0,0.0,0.0,0.0,0.0,0.0,0.0,0.0,0.0,0.0,0.0,0.0,0.0,0.0,0.0,0.0,0.0,0.0,0.0,0.0,0.0,0.0,0.0,0.0,0.0,0.0,0.0,0.0,0.0,0.0,0.0,0.0,0.0,0.0,0.0,0.0,0.0,0.0,0.0,0.0,0.0,0.0,0.0,0.0,0.0,0.0,0.0,0.0,0.0,0.0,0.0,0.0,0.0,0.0,0.0,0.0,0.0,0.0,0.0,0.0,0.0,0.0,0.0,0.0,0.0,0.0,0.0,0.0,0.0,0.0,0.0,0.0,0.0,0.0,0.0,0.0,0.0,0.0,0.0,0.0,0.0,0.0,-3.3807,0.0,0.0,0.0,0.0,0.0,0.0,0.0,0.0,0.0,0.0,0.0,0.0,0.0,0.0,0.0,0.0,0.0,0.0,0.0,0.0,0.0,0.0,0.0,0.0,0.0,0.0,0.0,0.0,0.0,0.0,0.0,0.0,0.0,0.0,0.0,0.0,0.0,0.0,0.0,0.0,0.0,0.0,0.0,0.0,0.0,0.0,0.0,0.0,0.0,0.0,0.0,0.0,0.0,0.0,0.0,0.0,0.0,0.0,0.0,0.0,0.0,0.0,0.0,0.0,0.0,0.0,0.0,0.0,0.0,0.0,0.0,0.0,0.0,0.0,0.0,0.0,0.0,0.0,0.0,0.0,0.0,0.0,0.0,0.0,0.0,0.0,0.0,0.0,0.0,0.0,0.0,0.0,0.0,0.0,0.0,0.0,0.0,0.0,0.0,0.0,0.0,0.0,0.0,0.0,0.0,0.0,0.0,0.0,0.0,0.0,-3.3807,-3.3807,-3.3807,-3.3807,-3.3807,0.0,0.0,0.0,0.0,0.0,0.0,0.0,0.0,0.0,0.0,0.0,0.0,0.0,0.0,0.0,0.0,0.0,0.0,0.0,0.0,0.0,0.0,0.0,0.0,0.0,0.0,0.0,0.0,0.0,0.0,0.0,0.0,0.0,0.0,0.0,0.0,0.0,0.0,0.0,0.0,0.0,0.0,0.0,0.0,0.0,0.0,0.0,0.0,0.0,0.0,0.0,0.0,0.0,0.0,0.0,0.0,0.0,0.0,0.0,0.0,0.0,0.0,0.0,0.0,0.0,0.0,0.0,0.0,0.0,0.0,0.0,0.0,0.0,0.0,0.0,0.0,0.0,0.0,0.0,0.0,0.0,0.0,0.0,0.0,0.0,0.0,0.0,0.0,0.0,0.0,0.0,0.0,0.0,0.0,0.0,0.0,0.0,0.0,0.0,0.0,0.0,0.0,0.0,0.0,0.0,0.0,0.0,0.0,0.0,0.0,0.0,0.0,-3.3807,-3.3829,-3.3889,0.0,0.0,0.0,0.0,0.0,0.0,0.0,0.0,0.0,0.0,0.0,0.0,0.0,0.0,0.0,0.0,0.0,0.0,0.0,0.0,0.0,0.0,0.0,0.0,0.0,0.0,0.0,0.0,0.0,0.0,0.0,0.0,0.0,0.0,0.0,0.0,0.0,0.0,0.0,0.0,0.0,0.0,0.0,0.0,0.0,0.0,0.0,0.0,0.0,0.0,0.0,0.0,0.0,0.0,0.0,0.0,0.0,0.0,0.0,0.0,0.0,0.0,0.0,0.0,0.0,0.0,0.0,0.0,0.0,0.0,0.0,0.0,0.0,0.0,0.0,0.0,0.0,0.0,0.0,0.0,0.0,0.0,0.0,0.0,0.0,0.0,0.0,0.0,0.0,0.0,0.0,0.0,0.0,0.0,0.0,0.0,0.0,0.0,0.0,0.0,0.0,0.0,0.0,0.0,0.0,0.0,0.0,0.0,0.0,0.0,-3.3807,-3.3807,-3.382,0.0,-3.4159,0.0,0.0,0.0,0.0,0.0,0.0,0.0,0.0,0.0,0.0,0.0,0.0,0.0,0.0,0.0,0.0,0.0,0.0,0.0,0.0,0.0,0.0,0.0,0.0,0.0,0.0,0.0,0.0,0.0,0.0,0.0,0.0,0.0,0.0,0.0,0.0,0.0,0.0,0.0,0.0,0.0,0.0,0.0,0.0,0.0,0.0,0.0,0.0,0.0,0.0,0.0,0.0,0.0,0.0,0.0,0.0,0.0,0.0,0.0,0.0,0.0,0.0,0.0,0.0,0.0,0.0,0.0,0.0,0.0,0.0,0.0,0.0,0.0,0.0,0.0,0.0,0.0,0.0,0.0,0.0,0.0,0.0,0.0,0.0,0.0,0.0,0.0,0.0,0.0,0.0,0.0,0.0,0.0,0.0,0.0,0.0,0.0,0.0,0.0,0.0,0.0,0.0,0.0,0.0,0.0,0.0,0.0,0.0,0.0,0.0,-3.4129,-3.4318,-3.4337,-3.4386,0.0,0.0,0.0,0.0,0.0,0.0,0.0,0.0,0.0,0.0,0.0,0.0,0.0,0.0,0.0,0.0,0.0,0.0,0.0,0.0,0.0,0.0,0.0,0.0,0.0,0.0,0.0,0.0,0.0,0.0,0.0,0.0,0.0,0.0,0.0,0.0,0.0,0.0,0.0,0.0,0.0,0.0,0.0,0.0,0.0,0.0,0.0,0.0,0.0,0.0,0.0,0.0,0.0,0.0,0.0,0.0,0.0,0.0,0.0,0.0,0.0,0.0,0.0,0.0,0.0,0.0,0.0,0.0,0.0,0.0,0.0,0.0,0.0,0.0,0.0,0.0,0.0,0.0,0.0,0.0,0.0,0.0,0.0,0.0,0.0,0.0,0.0,0.0,0.0,0.0,0.0,0.0,0.0,0.0,0.0,0.0,0.0,0.0,0.0,0.0,0.0,0.0,0.0,0.0,0.0,0.0,0.0,0.0,0.0,0.0,-3.4218,-3.4357,-3.4684,-3.4783,-3.4803,-3.4803,0.0,0.0,0.0,0.0,0.0,0.0,0.0,0.0,0.0,0.0,0.0,0.0,0.0,0.0,0.0,0.0,0.0,0.0,0.0,0.0,0.0,0.0,0.0,0.0,0.0,0.0,0.0,0.0,0.0,0.0,0.0,0.0,0.0,0.0,0.0,0.0,0.0,0.0,0.0,0.0,0.0,0.0,0.0,0.0,0.0,0.0,0.0,0.0,0.0,0.0,0.0,0.0,0.0,0.0,0.0,0.0,0.0,0.0,0.0,0.0,0.0,0.0,0.0,0.0,0.0,0.0,0.0,0.0,0.0,0.0,0.0,0.0,0.0,0.0,0.0,0.0,0.0,0.0,0.0,0.0,0.0,0.0,0.0,0.0,0.0,0.0,0.0,0.0,0.0,0.0,0.0,0.0,0.0,0.0,0.0,0.0,0.0,0.0,0.0,0.0,0.0,0.0,0.0,0.0,0.0,0.0,0.0,0.0,-3.4206,-3.4211,-3.4349,-3.4704,-3.4954,-3.5088,0.0,0.0,0.0,0.0,0.0,0.0,0.0,0.0,0.0,0.0,0.0,0.0,0.0,0.0,0.0,0.0,0.0,0.0,0.0,0.0,0.0,0.0,0.0,0.0,0.0,0.0,0.0,0.0,0.0,0.0,0.0,0.0,0.0,0.0,0.0,0.0,0.0,0.0,0.0,0.0,0.0,0.0,0.0,0.0,0.0,0.0,0.0,0.0,0.0,0.0,0.0,0.0,0.0,0.0,0.0,0.0,0.0,0.0,0.0,0.0,0.0,0.0,0.0,0.0,0.0,0.0,0.0,0.0,0.0,0.0,0.0,0.0,0.0,0.0,0.0,0.0,0.0,0.0,0.0,0.0,0.0,0.0,0.0,0.0,0.0,0.0,0.0,0.0,0.0,0.0,0.0,0.0,0.0,0.0,0.0,0.0,0.0,0.0,0.0,0.0,0.0,0.0,0.0,0.0,0.0,0.0,0.0,0.0,0.0,-3.4489,-3.4832,-3.5094,-3.5215,-3.5304,-3.5361,0.0,0.0,0.0,0.0,0.0,0.0,0.0,0.0,0.0,0.0,0.0,0.0,0.0,0.0,0.0,0.0,0.0,0.0,0.0,0.0,0.0,0.0,0.0,0.0,0.0,0.0,0.0,0.0,0.0,0.0,0.0,0.0,0.0,0.0,0.0,0.0,0.0,0.0,0.0,0.0,0.0,0.0,0.0,0.0,0.0,0.0,0.0,0.0,0.0,0.0,0.0,0.0,0.0,0.0,0.0,0.0,0.0,0.0,0.0,0.0,0.0,0.0,0.0,0.0,0.0,0.0,0.0,0.0,0.0,0.0,0.0,0.0,0.0,0.0,0.0,0.0,0.0,0.0,0.0,0.0,0.0,0.0,0.0,0.0,0.0,0.0,0.0,0.0,0.0,0.0,0.0,0.0,0.0,0.0,0.0,0.0,0.0,0.0,0.0,0.0,0.0,0.0,0.0,0.0,0.0,0.0,0.0,0.0,0.0,-3.4703,0.0,-3.55,-3.55,-3.55,-3.55,0.0,0.0,0.0,0.0,0.0,0.0,0.0,0.0,0.0,0.0,0.0,0.0,0.0,0.0,0.0,0.0,0.0,0.0,0.0,0.0,0.0,0.0,0.0,0.0,0.0,0.0,0.0,0.0,0.0,0.0,0.0,0.0,0.0,0.0,0.0,0.0,0.0,0.0,0.0,0.0,0.0,0.0,0.0,0.0,0.0,0.0,0.0,0.0,0.0,0.0,0.0,0.0,0.0,0.0,0.0,0.0,0.0,0.0,0.0,0.0,0.0,0.0,0.0,0.0,0.0,0.0,0.0,0.0,0.0,0.0,0.0,0.0,0.0,0.0,0.0,0.0,0.0,0.0,0.0,0.0,0.0,0.0,0.0,0.0,0.0,0.0,0.0,0.0,0.0,0.0,0.0,0.0,0.0,0.0,0.0,0.0,0.0,0.0,0.0,0.0,0.0,0.0,0.0,0.0,0.0,0.0,0.0,0.0,-3.4099,-3.4694,-3.5242,-3.55,-3.55,-3.55,-3.55,0.0,0.0,0.0,0.0,0.0,0.0,0.0,0.0,0.0,0.0,0.0,0.0,0.0,0.0,0.0,0.0,0.0,0.0,0.0,0.0,0.0,0.0,0.0,0.0,0.0,0.0,0.0,0.0,0.0,0.0,0.0,0.0,0.0,0.0,0.0,0.0,0.0,0.0,0.0,0.0,0.0,0.0,0.0,0.0,0.0,0.0,0.0,0.0,0.0,0.0,0.0,0.0,0.0,0.0,0.0,0.0,0.0,0.0,0.0,0.0,0.0,0.0,0.0,0.0,0.0,0.0,0.0,0.0,0.0,0.0,0.0,0.0,0.0,0.0,0.0,0.0,0.0,0.0,0.0,0.0,0.0,0.0,0.0,0.0,0.0,0.0,0.0,0.0,0.0,0.0,0.0,0.0,0.0,0.0,0.0,0.0,0.0,0.0,0.0,0.0,0.0,0.0,0.0,0.0,0.0,0.0,0.0,0.0,0.0,-3.4972,-3.5312,-3.55,-3.55,-3.55,-3.5522,0.0,0.0,0.0,0.0,0.0,0.0,0.0,0.0,0.0,0.0,0.0,0.0,0.0,0.0,0.0,0.0,0.0,0.0,0.0,0.0,0.0,0.0,0.0,0.0,0.0,0.0,0.0,0.0,0.0,0.0,0.0,0.0,0.0,0.0,0.0,0.0,0.0,0.0,0.0,0.0,0.0,0.0,0.0,0.0,0.0,0.0,0.0,0.0,0.0,0.0,0.0,0.0,0.0,0.0,0.0,0.0,0.0,0.0,0.0,0.0,0.0,0.0,0.0,0.0,0.0,0.0,0.0,0.0,0.0,0.0,0.0,0.0,0.0,0.0,0.0,0.0,0.0,0.0,0.0,0.0,0.0,0.0,0.0,0.0,0.0,0.0,0.0,0.0,0.0,0.0,0.0,0.0,0.0,0.0,0.0,0.0,0.0,0.0,0.0,0.0,0.0,0.0,0.0,0.0,0.0,0.0,0.0,0.0,0.0,-3.5231,-3.5424,-3.55,-3.55,-3.5528,-3.555,-3.5586,0.0,0.0,0.0,0.0,0.0,0.0,0.0,0.0,0.0,0.0,0.0,0.0,0.0,0.0,0.0,0.0,0.0,0.0,0.0,0.0,0.0,0.0,0.0,0.0,0.0,0.0,0.0,0.0,0.0,0.0,0.0,0.0,0.0,0.0,0.0,0.0,0.0,0.0,0.0,0.0,0.0,0.0,0.0,0.0,0.0,0.0,0.0,0.0,0.0,0.0,0.0,0.0,0.0,0.0,0.0,0.0,0.0,0.0,0.0,0.0,0.0,0.0,0.0,0.0,0.0,0.0,0.0,0.0,0.0,0.0,0.0,0.0,0.0,0.0,0.0,0.0,0.0,0.0,0.0,0.0,0.0,0.0,0.0,0.0,0.0,0.0,0.0,0.0,0.0,0.0,0.0,0.0,0.0,0.0,0.0,0.0,0.0,0.0,0.0,0.0,0.0,0.0,0.0,0.0,0.0,0.0,0.0,0.0,-3.5493,-3.5494,-3.5494,-3.55,-3.556,-3.5621,0.0,0.0,0.0,0.0,0.0,0.0,0.0,0.0,0.0,0.0,0.0,0.0,0.0,0.0,0.0,0.0,0.0,0.0,0.0,0.0,0.0,0.0,0.0,0.0,0.0,0.0,0.0,0.0,0.0,0.0,0.0,0.0,0.0,0.0,0.0,0.0,0.0,0.0,0.0,0.0,0.0,0.0,0.0,0.0,0.0,0.0,0.0,0.0,0.0,0.0,0.0,0.0,0.0,0.0,0.0,0.0,0.0,0.0,0.0,0.0,0.0,0.0,0.0,0.0,0.0,0.0,0.0,0.0,0.0,0.0,0.0,0.0,0.0,0.0,0.0,0.0,0.0,0.0,0.0,0.0,0.0,0.0,0.0,0.0,0.0,0.0,0.0,0.0,0.0,0.0,0.0,0.0,0.0,0.0,0.0,0.0,0.0,0.0,0.0,0.0,0.0,0.0,0.0,0.0,0.0,0.0,0.0,0.0,0.0,-3.5467,-3.5552,-3.5552,-3.5494,-3.5616,-3.5687,0.0,0.0,0.0,0.0,0.0,0.0,0.0,0.0,0.0,0.0,0.0,0.0,0.0,0.0,0.0,0.0,0.0,0.0,0.0,0.0,0.0,0.0,0.0,0.0,0.0,0.0,0.0,0.0,0.0,0.0,0.0,0.0,0.0,0.0,0.0,0.0,0.0,0.0,0.0,0.0,0.0,0.0,0.0,0.0,0.0,0.0,0.0,0.0,0.0,0.0,0.0,0.0,0.0,0.0,0.0,0.0,0.0,0.0,0.0,0.0,0.0,0.0,0.0,0.0,0.0,0.0,0.0,0.0,0.0,0.0,0.0,0.0,0.0,0.0,0.0,0.0,0.0,0.0,0.0,0.0,0.0,0.0,0.0,0.0,0.0,0.0,0.0,0.0,0.0,0.0,0.0,0.0,0.0,0.0,0.0,0.0,0.0,0.0,0.0,0.0,0.0,0.0,0.0,0.0,0.0,0.0,0.0,0.0,-3.506,-3.5474,-3.5595,-3.5611,-3.5559,-3.5702,-3.5794,0.0,0.0,0.0,0.0,0.0,0.0,0.0,0.0,0.0,0.0,0.0,0.0,0.0,0.0,0.0,0.0,0.0,0.0,0.0,0.0,0.0,0.0,0.0,0.0,0.0,0.0,0.0,0.0,0.0,0.0,0.0,0.0,0.0,0.0,0.0,0.0,0.0,0.0,0.0,0.0,0.0,0.0,0.0,0.0,0.0,0.0,0.0,0.0,0.0,0.0,0.0,0.0,0.0,0.0,0.0,0.0,0.0,0.0,0.0,0.0,0.0,0.0,0.0,0.0,0.0,0.0,0.0,0.0,0.0,0.0,0.0,0.0,0.0,0.0,0.0,0.0,0.0,0.0,0.0,0.0,0.0,0.0,0.0,0.0,0.0,0.0,0.0,0.0,0.0,0.0,0.0,0.0,0.0,0.0,0.0,0.0,0.0,0.0,0.0,0.0,0.0,0.0,0.0,0.0,0.0,0.0,0.0,0.0,-3.5203,-3.55,-3.563,-3.5683,-3.5626,-3.5811,-3.5907,0.0,0.0,0.0,0.0,0.0,0.0,0.0,0.0,0.0,0.0,0.0,0.0,0.0,0.0,0.0,0.0,0.0,0.0,0.0,0.0,0.0,0.0,0.0,0.0,0.0,0.0,0.0,0.0,0.0,0.0,0.0,0.0,0.0,0.0,0.0,0.0,0.0,0.0,0.0,0.0,0.0,0.0,0.0,0.0,0.0,0.0,0.0,0.0,0.0,0.0,0.0,0.0,0.0,0.0,0.0,0.0,0.0,0.0,0.0,0.0,0.0,0.0,0.0,0.0,0.0,0.0,0.0,0.0,0.0,0.0,0.0,0.0,0.0,0.0,0.0,0.0,0.0,0.0,0.0,0.0,0.0,0.0,0.0,0.0,0.0,0.0,0.0,0.0,0.0,0.0,0.0,0.0,0.0,0.0,0.0,0.0,0.0,0.0,0.0,0.0,0.0,0.0,0.0,0.0,0.0,0.0,0.0,0.0,-3.5223,-3.5481,-3.563,-3.5696,-3.5675,-3.5869,-3.5949,0.0,0.0,0.0,0.0,0.0,0.0,0.0,0.0,0.0,0.0,0.0,0.0,0.0,0.0,0.0,0.0,0.0,0.0,0.0,0.0,0.0,0.0,0.0,0.0,0.0,0.0,0.0,0.0,0.0,0.0,0.0,0.0,0.0,0.0,0.0,0.0,0.0,0.0,0.0,0.0,0.0,0.0,0.0,0.0,0.0,0.0,0.0,0.0,-3.3807,0.0,0.0,0.0,0.0,0.0,0.0,0.0,0.0,0.0,0.0,0.0,0.0,0.0,0.0,0.0,0.0,0.0,0.0,0.0,0.0,0.0,0.0,0.0,0.0,0.0,0.0,0.0,0.0,0.0,0.0,0.0,0.0,0.0,0.0,0.0,0.0,0.0,0.0,0.0,0.0,0.0,0.0,0.0,0.0,0.0,0.0,0.0,0.0,0.0,0.0,0.0,0.0,0.0,0.0,0.0,0.0,0.0,0.0,0.0,-3.5361,-3.5488,-3.563,-3.5528,-3.5181,-3.5686,-3.58,0.0,0.0,0.0,0.0,0.0,0.0,0.0,0.0,0.0,0.0,0.0,0.0,0.0,0.0,0.0,0.0,0.0,0.0,0.0,0.0,0.0,0.0,0.0,0.0,0.0,0.0,0.0,0.0,0.0,0.0,0.0,0.0,0.0,0.0,0.0,0.0,0.0,0.0,0.0,0.0,0.0,0.0,0.0,0.0,0.0,0.0,0.0,0.0,0.0,0.0,0.0,0.0,0.0,0.0,0.0,0.0,0.0,0.0,0.0,0.0,0.0,0.0,0.0,0.0,0.0,0.0,0.0,0.0,0.0,0.0,0.0,0.0,0.0,0.0,0.0,0.0,0.0,0.0,0.0,0.0,0.0,0.0,0.0,0.0,0.0,0.0,0.0,0.0,0.0,0.0,0.0,0.0,0.0,0.0,0.0,0.0,0.0,0.0,0.0,0.0,0.0,0.0,0.0,0.0,0.0,0.0,0.0,-3.5012,-3.5302,-3.5316,-3.5445,-3.5123,-3.4374,-3.5162,-3.5215,-3.4375,0.0,0.0,0.0,0.0,0.0,0.0,0.0,0.0,0.0,0.0,0.0,0.0,0.0,0.0,0.0,0.0,0.0,0.0,0.0,0.0,0.0,0.0,0.0,0.0,0.0,0.0,0.0,0.0,0.0,0.0,0.0,0.0,0.0,0.0,0.0,0.0,0.0,0.0,-3.0435,-3.0878,0.0,0.0,0.0,0.0,0.0,0.0,0.0,0.0,-3.5206,0.0,0.0,0.0,0.0,0.0,0.0,0.0,0.0,0.0,0.0,0.0,0.0,0.0,0.0,0.0,0.0,0.0,0.0,0.0,0.0,0.0,0.0,0.0,0.0,0.0,0.0,0.0,0.0,0.0,0.0,0.0,0.0,0.0,0.0,0.0,0.0,0.0,0.0,0.0,0.0,0.0,0.0,0.0,0.0,0.0,0.0,0.0,0.0,0.0,0.0,0.0,0.0,0.0,0.0,0.0,0.0,-3.362,-3.4129,-3.4436,-3.4489,-3.4621,-3.4327,-3.3542,-3.3704,-3.3437,-3.2734,0.0,0.0,0.0,0.0,0.0,0.0,0.0,0.0,0.0,0.0,0.0,0.0,0.0,0.0,0.0,0.0,0.0,0.0,0.0,0.0,0.0,0.0,0.0,0.0,0.0,0.0,0.0,0.0,0.0,0.0,0.0,0.0,0.0,0.0,0.0,0.0,0.0,0.0,0.0,-3.1151,-3.1783,0.0,0.0,0.0,0.0,0.0,0.0,0.0,0.0,-3.6028,0.0,0.0,0.0,0.0,0.0,0.0,0.0,0.0,0.0,0.0,0.0,0.0,0.0,0.0,0.0,0.0,0.0,0.0,0.0,0.0,0.0,0.0,0.0,0.0,0.0,0.0,0.0,0.0,0.0,0.0,0.0,0.0,0.0,0.0,0.0,0.0,0.0,0.0,0.0,0.0,0.0,0.0,0.0,0.0,0.0,0.0,0.0,0.0,0.0,0.0,0.0,0.0,0.0,0.0,0.0,-3.345,-3.3945,-3.4218,-3.4234,-3.3968,-3.342,-3.2616,-3.3096,-3.2812,0.0,0.0,0.0,0.0,0.0,0.0,0.0,0.0,0.0,0.0,0.0,0.0,0.0,0.0,0.0,0.0,0.0,0.0,0.0,0.0,0.0,0.0,0.0,0.0,0.0,0.0,0.0,0.0,0.0,0.0,0.0,0.0,0.0,0.0,0.0,0.0,0.0,0.0,0.0,0.0,-3.1549,-3.2147,-3.3192,0.0,0.0,0.0,0.0,0.0,0.0,-3.6923,-3.6942,0.0,0.0,0.0,0.0,0.0,0.0,0.0,0.0,0.0,0.0,0.0,0.0,0.0,0.0,0.0,0.0,0.0,0.0,0.0,0.0,0.0,0.0,0.0,0.0,0.0,0.0,0.0,0.0,0.0,0.0,0.0,0.0,0.0,0.0,0.0,0.0,0.0,0.0,0.0,0.0,0.0,0.0,0.0,0.0,0.0,0.0,0.0,0.0,0.0,0.0,0.0,0.0,0.0,0.0,0.0,-3.2987,-3.3517,-3.3801,-3.3698,-3.3197,-3.2513,-3.1689,-3.244,-3.2226,0.0,0.0,0.0,0.0,0.0,0.0,0.0,0.0,0.0,0.0,0.0,0.0,0.0,0.0,0.0,0.0,0.0,0.0,0.0,0.0,0.0,0.0,0.0,0.0,0.0,0.0,0.0,0.0,0.0,0.0,0.0,0.0,0.0,0.0,0.0,0.0,0.0,0.0,0.0,0.0,0.0,-3.2747,-3.3377,-3.4916,0.0,0.0,0.0,0.0,-3.786,-3.7749,0.0,0.0,0.0,0.0,0.0,0.0,0.0,0.0,0.0,0.0,0.0,0.0,0.0,0.0,0.0,0.0,0.0,0.0,0.0,0.0,0.0,0.0,0.0,0.0,0.0,0.0,0.0,0.0,0.0,0.0,0.0,0.0,0.0,0.0,0.0,0.0,0.0,0.0,0.0,0.0,0.0,0.0,0.0,0.0,0.0,0.0,0.0,0.0,0.0,0.0,0.0,0.0,0.0,0.0,0.0,0.0,-3.1382,-3.2222,-3.2492,-3.2087,-3.2013,-3.1569,-3.0775,-3.0909,-3.0936,0.0,0.0,0.0,0.0,0.0,0.0,0.0,0.0,0.0,0.0,0.0,0.0,0.0,0.0,0.0,0.0,0.0,0.0,0.0,0.0,0.0,0.0,0.0,0.0,0.0,0.0,0.0,0.0,0.0,0.0,0.0,0.0,0.0,0.0,0.0,0.0,0.0,0.0,0.0,0.0,0.0,-3.37,-3.4886,-3.5565,-3.6417,0.0,0.0,-3.8655,-3.856,-3.856,0.0,0.0,0.0,0.0,0.0,0.0,0.0,0.0,0.0,0.0,0.0,0.0,0.0,0.0,0.0,0.0,0.0,0.0,0.0,0.0,0.0,0.0,0.0,0.0,0.0,0.0,0.0,0.0,0.0,0.0,0.0,0.0,0.0,0.0,0.0,0.0,0.0,0.0,0.0,0.0,0.0,0.0,0.0,0.0,0.0,0.0,0.0,0.0,0.0,0.0,0.0,0.0,0.0,0.0,0.0,-3.2728,-3.0893,-3.192,-3.2179,-3.1533,-3.1216,-3.0892,-3.0548,-3.0614,-3.0667,0.0,0.0,0.0,0.0,0.0,0.0,0.0,0.0,0.0,0.0,0.0,0.0,0.0,0.0,0.0,0.0,0.0,0.0,0.0,0.0,0.0,0.0,0.0,0.0,0.0,0.0,0.0,0.0,0.0,0.0,0.0,0.0,0.0,0.0,0.0,0.0,0.0,0.0,0.0,0.0,0.0,0.0,-3.4715,-3.588,0.0,0.0,0.0,-3.8707,-3.8707,0.0,0.0,0.0,0.0,0.0,0.0,0.0,0.0,0.0,0.0,0.0,0.0,0.0,0.0,0.0,0.0,0.0,0.0,0.0,0.0,0.0,0.0,0.0,0.0,0.0,0.0,0.0,0.0,0.0,0.0,0.0,0.0,0.0,0.0,0.0,0.0,0.0,0.0,0.0,0.0,0.0,0.0,0.0,0.0,0.0,0.0,0.0,0.0,0.0,0.0,0.0,0.0,0.0,0.0,0.0,0.0,0.0,-3.0375,-3.1629,-3.1895,-3.0993,-3.0577,-3.0399,-3.0472,-3.0545,0.0,0.0,0.0,0.0,0.0,0.0,0.0,0.0,0.0,0.0,0.0,0.0,0.0,0.0,0.0,0.0,0.0,0.0,0.0,0.0,0.0,0.0,0.0,0.0,0.0,0.0,0.0,-3.119,0.0,0.0,0.0,0.0,0.0,0.0,0.0,0.0,0.0,0.0,0.0,0.0,0.0,0.0,-3.4167,-3.4692,-3.6055,-3.7057,0.0,0.0,-3.8546,-3.8673,-3.8707,-3.8707,0.0,0.0,0.0,0.0,0.0,0.0,0.0,0.0,0.0,0.0,0.0,0.0,0.0,0.0,0.0,0.0,0.0,0.0,0.0,0.0,0.0,0.0,0.0,0.0,0.0,0.0,0.0,0.0,0.0,0.0,0.0,0.0,0.0,0.0,0.0,0.0,0.0,0.0,0.0,0.0,0.0,0.0,0.0,0.0,0.0,0.0,0.0,0.0,0.0,0.0,0.0,0.0,0.0,0.0,0.0,-2.9663,-3.1036,-3.1289,-3.0136,-3.0047,-3.0144,-3.0396,-3.0487,-3.0516,0.0,0.0,0.0,0.0,0.0,0.0,0.0,0.0,0.0,0.0,0.0,0.0,0.0,0.0,0.0,0.0,0.0,0.0,0.0,0.0,0.0,0.0,0.0,0.0,0.0,0.0,0.0,0.0,0.0,0.0,0.0,0.0,0.0,0.0,0.0,0.0,0.0,0.0,0.0,0.0,0.0,-3.5447,-3.5515,-3.6062,-3.6623,0.0,0.0,-3.8133,-3.8609,-3.8707,-3.8707,-3.8707,0.0,0.0,0.0,0.0,0.0,0.0,0.0,0.0,0.0,0.0,0.0,0.0,0.0,0.0,0.0,0.0,0.0,0.0,0.0,0.0,0.0,0.0,0.0,0.0,0.0,0.0,0.0,0.0,0.0,0.0,0.0,0.0,0.0,0.0,0.0,0.0,0.0,0.0,0.0,0.0,0.0,0.0,0.0,0.0,0.0,0.0,0.0,0.0,0.0,0.0,0.0,0.0,0.0,-3.25,-2.9968,-3.1147,-3.1099,-2.971,-2.9756,-2.9935,-3.015,-3.0177,-3.0271,0.0,0.0,0.0,0.0,0.0,0.0,0.0,0.0,0.0,0.0,0.0,0.0,0.0,0.0,0.0,0.0,0.0,0.0,0.0,0.0,0.0,0.0,0.0,0.0,0.0,0.0,0.0,0.0,-3.0878,-3.0414,-2.9805,0.0,0.0,0.0,0.0,0.0,0.0,0.0,0.0,0.0,0.0,-3.4637,-3.5487,-3.6071,0.0,0.0,-3.7379,-3.7963,-3.8183,-3.8481,-3.8707,-3.8707,-3.8707,0.0,0.0,0.0,0.0,0.0,0.0,0.0,0.0,0.0,0.0,0.0,0.0,0.0,0.0,0.0,0.0,0.0,0.0,0.0,0.0,0.0,0.0,0.0,0.0,0.0,0.0,0.0,0.0,0.0,0.0,0.0,0.0,0.0,0.0,0.0,0.0,0.0,0.0,0.0,0.0,0.0,0.0,0.0,0.0,0.0,0.0,0.0,0.0,0.0,0.0,0.0,0.0,-3.2375,-3.0246,-3.0937,-3.0713,-2.9421,-2.9542,-2.9713,-2.9901,-2.9916,-3.0058,0.0,0.0,0.0,0.0,0.0,0.0,0.0,0.0,0.0,0.0,0.0,0.0,0.0,0.0,0.0,0.0,0.0,0.0,0.0,0.0,0.0,0.0,0.0,0.0,0.0,0.0,0.0,0.0,-3.023,-2.9665,-2.9443,0.0,0.0,0.0,0.0,0.0,0.0,0.0,0.0,0.0,0.0,-3.3945,-3.514,-3.5627,-3.5981,-3.6354,-3.6983,-3.7524,-3.7649,-3.7998,-3.8252,-3.8252,0.0,0.0,0.0,0.0,0.0,0.0,0.0,0.0,0.0,0.0,0.0,0.0,0.0,0.0,0.0,0.0,0.0,0.0,0.0,0.0,0.0,0.0,0.0,0.0,0.0,0.0,0.0,0.0,0.0,0.0,-3.6364,0.0,0.0,0.0,0.0,0.0,0.0,0.0,0.0,0.0,0.0,0.0,0.0,0.0,0.0,0.0,0.0,0.0,0.0,0.0,0.0,0.0,0.0,-3.1818,-3.0246,-3.0246,-2.9964,-2.9419,-2.9384,-2.9504,-2.9696,-2.9713,-2.9804,-3.0013,0.0,0.0,0.0,0.0,0.0,0.0,0.0,0.0,0.0,0.0,0.0,0.0,0.0,0.0,0.0,0.0,0.0,0.0,0.0,0.0,0.0,0.0,0.0,0.0,0.0,0.0,-3.0347,-2.9264,-2.8854,0.0,0.0,0.0,0.0,0.0,0.0,0.0,0.0,0.0,0.0,-3.3193,-3.3846,-3.4528,-3.4624,-3.5094,-3.619,-3.6416,-3.6641,-3.7152,-3.7229,-3.7228,0.0,0.0,0.0,0.0,0.0,0.0,0.0,0.0,0.0,0.0,0.0,0.0,0.0,0.0,0.0,0.0,0.0,0.0,0.0,0.0,0.0,0.0,0.0,0.0,0.0,0.0,0.0,-3.7433,-3.7415,0.0,0.0,0.0,0.0,0.0,0.0,0.0,0.0,0.0,0.0,0.0,-3.0016,-3.0,0.0,0.0,0.0,0.0,0.0,0.0,0.0,0.0,0.0,0.0,0.0,0.0,-3.1412,-3.0613,-3.0072,-2.9564,-2.9141,-2.9145,-2.9238,-2.9494,-2.9522,-2.9598,-2.9788,0.0,0.0,0.0,0.0,0.0,0.0,0.0,0.0,0.0,0.0,0.0,0.0,0.0,0.0,0.0,0.0,0.0,0.0,0.0,0.0,0.0,0.0,0.0,0.0,0.0,-3.0759,0.0,0.0,0.0,0.0,0.0,0.0,0.0,0.0,0.0,0.0,0.0,-3.2064,-3.2532,-3.2788,-3.3172,-3.3836,-3.4309,-3.4743,0.0,0.0,0.0,0.0,0.0,0.0,0.0,0.0,0.0,0.0,0.0,0.0,0.0,0.0,-3.5968,-3.635,-3.6266,-3.6028,-3.5672,0.0,0.0,0.0,0.0,0.0,0.0,0.0,0.0,0.0,0.0,0.0,0.0,0.0,0.0,0.0,0.0,-3.6706,0.0,0.0,0.0,0.0,0.0,0.0,0.0,0.0,-3.1159,-3.0593,-2.9735,-2.9512,-2.9623,0.0,-3.0208,-3.0377,0.0,0.0,0.0,0.0,0.0,0.0,0.0,0.0,-3.0851,-3.056,-2.9546,-2.893,-2.881,-2.8785,-2.8938,-2.9246,-2.9351,-2.9474,-2.9589,-2.9661,-2.9705,0.0,0.0,0.0,0.0,0.0,0.0,0.0,0.0,0.0,0.0,0.0,0.0,0.0,0.0,0.0,0.0,0.0,0.0,0.0,0.0,0.0,0.0,0.0,-3.0729,0.0,0.0,0.0,0.0,0.0,0.0,0.0,0.0,0.0,-3.0823,-3.1227,-3.1668,-3.2176,-3.2231,-3.2492,-3.3156,0.0,0.0,0.0,0.0,0.0,0.0,0.0,-3.637,-3.6606,-3.6664,-3.6664,-3.6626,-3.6354,-3.6118,-3.6135,0.0,0.0,-3.6054,-3.6118,-3.6011,-3.5667,-3.5616,-3.5616,-3.5616,-3.5616,-3.5515,0.0,0.0,0.0,0.0,0.0,0.0,0.0,0.0,-3.6583,-3.6374,0.0,-3.581,0.0,0.0,0.0,0.0,0.0,-3.2492,0.0,0.0,-3.0768,-3.0433,-3.0329,-2.966,-2.9371,-2.9438,-2.9951,-2.9951,-2.9496,-3.0559,0.0,0.0,0.0,0.0,0.0,0.0,-3.017,-3.0132,-2.8732,-2.8083,-2.8381,-2.8394,-2.8565,-2.8959,-2.9225,-2.9372,-2.9382,-2.9561,-2.967,-2.9661,-2.9633,0.0,0.0,0.0,0.0,0.0,0.0,0.0,0.0,0.0,0.0,0.0,0.0,0.0,0.0,0.0,0.0,0.0,0.0,0.0,0.0,-3.1242,0.0,0.0,0.0,0.0,0.0,0.0,0.0,0.0,0.0,0.0,-3.1219,-3.1409,-3.1467,-3.1467,0.0,0.0,0.0,0.0,-3.2841,-3.3453,-3.3582,-3.3862,-3.4479,-3.4576,-3.4807,-3.543,0.0,0.0,-3.5538,-3.5515,-3.5515,-3.5532,-3.547,-3.5554,-3.5515,-3.556,-3.5583,-3.5538,-3.556,-3.56,-3.556,-3.5487,-3.5312,-3.5498,0.0,0.0,0.0,0.0,-3.6037,-3.6058,-3.6054,-3.5898,-3.581,-3.5805,-3.5151,0.0,0.0,0.0,0.0,0.0,0.0,-3.2659,-3.1539,-3.1352,-3.0753,-2.98,-2.9144,-2.9058,-2.9475,-2.9155,-2.9173,-2.9406,-2.9739,-3.0145,-3.0559,0.0,0.0,0.0,0.0,-2.9971,-2.9655,-2.8747,-2.818,-2.8051,-2.8047,-2.8088,-2.8233,-2.8522,-2.8676,-2.8706,-2.9016,-2.9071,-2.8782,-2.8789,0.0,0.0,0.0,0.0,0.0,0.0,0.0,0.0,0.0,0.0,0.0,0.0,0.0,0.0,0.0,0.0,0.0,0.0,0.0,-3.1661,-3.0985,-3.0603,0.0,0.0,0.0,0.0,0.0,0.0,0.0,0.0,0.0,-2.9704,-3.0254,-3.0644,0.0,0.0,-3.1597,-3.1781,-3.2272,-3.2668,-3.2868,0.0,0.0,0.0,-3.3887,-3.3962,-3.4153,-3.4178,-3.4178,-3.4178,-3.4178,-3.4178,-3.4178,-3.4161,-3.4161,-3.4211,-3.4965,-3.5362,-3.5035,-3.5253,-3.5407,-3.5012,-3.4851,-3.4616,-3.4447,-3.4816,-3.48,-3.4816,-3.48,-3.48,-3.48,-3.4816,-3.4816,-3.4816,-3.4776,-3.4382,-3.4211,-3.4186,-3.3786,0.0,0.0,0.0,-3.2623,-3.1549,-3.1274,-3.0737,-2.9921,-2.9011,-2.8785,-2.9118,-2.8691,-2.8559,-2.8693,-2.9157,-2.9451,-2.9607,0.0,0.0,-3.0821,-3.0101,-2.9593,-2.9282,-2.8545,-2.8003,-2.7669,-2.7826,-2.7897,-2.7911,-2.8102,-2.821,-2.821,-2.8443,-2.8438,-2.821,-2.821,-2.8459,0.0,0.0,0.0,0.0,0.0,0.0,0.0,0.0,0.0,0.0,0.0,-3.0648,-3.1487,0.0,0.0,0.0,-3.2075,-3.1646,-3.1099,-3.0684,0.0,0.0,0.0,0.0,0.0,0.0,0.0,-2.8602,-2.8492,-2.8363,-2.8071,-2.8748,-2.938,-2.9735,-3.0208,-3.0658,-3.0955,0.0,-3.1777,-3.2104,-3.2516,-3.2864,-3.3172,-3.3224,-3.3287,-3.3556,-3.3608,-3.3608,-3.3608,-3.3608,-3.3608,-3.3608,-3.3608,-3.3608,-3.3608,-3.426,-3.4704,-3.4309,-3.452,-3.4558,-3.3941,-3.3778,-3.3472,-3.3479,-3.3427,-3.3427,-3.3505,-3.3608,-3.3608,-3.3608,-3.3608,-3.3608,-3.3608,-3.3608,-3.3547,-3.3495,-3.3443,-3.3427,0.0,-3.2504,-3.252,-3.2148,-3.1481,-3.0881,-3.0597,-3.0522,-2.928,-2.8682,-2.8693,-2.8492,-2.814,-2.7685,-2.8717,-2.8989,-2.8455,-2.8989,-2.9585,-3.0154,-2.9556,-2.9122,-2.893,-2.8172,-2.7572,-2.7147,-2.7527,-2.7751,-2.7736,-2.7826,-2.7855,-2.7837,-2.7865,-2.7897,-2.7851,-2.7855,-2.8197,-2.8964,0.0,0.0,0.0,0.0,0.0,0.0,0.0,0.0,0.0,0.0,0.0,0.0,0.0,0.0,0.0,-3.2467,0.0,-3.0514,-3.0279,0.0,0.0,0.0,-2.8957,-2.8894,-2.8907,-2.8556,-2.7703,0.0,0.0,-2.6589,0.0,-2.7887,-2.8716,-2.8894,-2.9286,-3.0072,-3.0194,-3.0464,-3.1146,-3.1292,-3.1552,-3.2198,-3.2449,-3.2695,-3.3209,-3.3427,-3.3365,-3.3349,-3.3365,-3.3417,-3.3323,-3.3427,-3.3354,-3.3364,-3.3258,-3.3332,-3.3195,-3.3412,-3.3329,-3.2606,-3.2433,-3.2048,-3.2489,-3.2007,-3.1992,-3.261,-3.3582,-3.3608,-3.3608,-3.3608,-3.3608,-3.3608,-3.3556,-3.3066,-3.2516,-3.2007,-3.1992,-3.1923,-3.1768,-3.1768,-3.1668,-3.1496,-3.1331,-3.1256,-3.1197,-2.9953,-2.9355,-2.9292,-2.8308,-2.775,-2.761,-2.7894,-2.7953,-2.7835,-2.7968,-2.8551,-2.9569,-2.943,-2.9038,-2.8454,-2.7778,-2.6851,-2.5762,-2.6195,-2.6454,-2.6454,-2.7096,-2.7439,-2.7457,-2.7754,-2.7751,-2.7454,-2.7439,-2.7927,-2.8939,-2.9196,0.0,0.0,0.0,0.0,0.0,0.0,0.0,0.0,0.0,-3.0354,-3.1868,0.0,-3.1052,0.0,-3.1545,-3.0452,-2.9461,-2.9327,0.0,0.0,-2.9115,-2.8734,-2.8084,-2.8032,-2.7703,-2.6884,-2.6769,-2.6714,-2.6533,-2.6645,-2.685,-2.7095,-2.8182,-2.9083,-2.9272,-2.9317,-2.938,-2.9566,-2.9659,-2.9905,-3.0733,-3.1378,-3.1781,-3.1964,-3.2007,-3.2007,-3.1992,-3.1992,-3.1992,-3.1992,-3.1992,-3.1822,-3.132,-3.1256,-3.1058,-3.0773,-3.1763,-3.2474,-3.1357,-3.1036,-3.0775,-3.1866,-3.1496,-3.1496,-3.1936,-3.2648,-3.2664,-3.2648,-3.2664,-3.2664,-3.2664,-3.2637,-3.2284,-3.1881,-3.1496,-3.1496,-3.1496,-3.1496,-3.1496,-3.1496,-3.1496,-3.1496,-3.1496,-3.1451,-3.0193,-2.9621,-2.9562,-2.8244,-2.7433,-2.7152,-2.7458,-2.7433,-2.7126,-2.7433,-2.7944,-2.8575,-2.8857,-2.8763,-2.8291,-2.7337,-2.6282,-2.525,-2.5486,-2.576,-2.5979,-2.623,-2.6488,-2.6707,-2.6689,-2.6706,-2.6707,-2.674,-2.7299,-2.8526,-2.8607,-2.9126,0.0,0.0,0.0,0.0,0.0,0.0,0.0,0.0,0.0,0.0,0.0,-3.079,-3.1518,-3.0436,-2.9535,-2.9034,-2.8652,-2.8427,-2.8441,-2.8117,-2.7703,-2.7229,-2.7162,-2.7007,-2.6555,-2.6487,-2.6314,-2.5921,-2.5838,-2.5652,-2.524,-2.5958,-2.702,-2.8155,-2.8427,-2.8556,-2.8925,-2.8989,-2.9146,-2.9659,-3.0072,-3.0404,-3.0404,-3.0404,-3.0404,-3.0389,-3.0188,-3.0029,-3.0029,-2.9827,-2.9523,-2.9145,-2.9073,-2.887,-2.8503,-2.905,-2.9713,-2.9735,-2.9697,-2.9481,-3.119,-3.1175,-3.119,-3.119,-3.1175,-3.119,-3.1292,-3.1496,-3.1496,-3.1453,-3.1351,-3.1336,-3.1278,-3.1175,-3.119,-3.119,-3.119,-3.119,-3.119,-3.119,-3.119,-3.119,-3.1131,-2.9885,-2.9277,-2.9218,-2.7969,-2.6982,-2.639,-2.7008,-2.7008,-2.6404,-2.7008,-2.7316,-2.7342,-2.7839,-2.8046,-2.7923,-2.6735,-2.5774,-2.5024,-2.5051,-2.5316,-2.5744,-2.5411,-2.5411,-2.587,-2.5465,-2.5476,-2.5983,-2.6036,-2.6674,-2.801,-2.8125,-2.8509,0.0,-2.9406,0.0,0.0,0.0,0.0,0.0,0.0,0.0,0.0,-3.0301,-3.0192,-2.9999,-2.9286,-2.878,-2.8684,-2.7986,-2.755,-2.7537,-2.6918,-2.6465,-2.6349,-2.6314,-2.6233,-2.6129,-2.6117,-2.5769,-2.4921,-2.4826,-2.4456,-2.3818,-2.3734,-2.4637,-2.6578,-2.7178,-2.7531,-2.84,-2.8703,-2.878,-2.8844,-2.8957,-2.9097,-2.9052,-2.9018,-2.8892,-2.8945,-2.8521,-2.8119,-2.8077,-2.7819,-2.74,-2.723,-2.7204,-2.7037,-2.6509,-2.6511,-2.6918,-2.7832,-2.8109,-2.7958,-2.9473,-2.9487,-2.9473,-2.9473,-2.9487,-2.9473,-3.0238,-3.1496,-3.1496,-3.1117,-3.051,-3.0524,-3.0147,-2.9504,-2.9473,-2.9487,-2.9473,-2.9473,-2.9473,-2.9487,-2.9473,-2.9473,-2.9403,-2.8224,-2.7648,-2.7564,-2.6399,-2.5755,-2.5632,-2.5755,-2.5755,-2.5618,-2.5755,-2.5837,-2.5837,0.0,0.0,0.0,-2.5864,-2.5122,-2.3982,-2.4343,-2.4592,-2.4712,-2.5012,0.0,-2.5335,-2.5243,-2.5493,-2.6129,-2.6178,0.0,0.0,0.0,0.0,0.0,0.0,0.0,0.0,0.0,0.0,0.0,-2.9367,-2.9259,-2.9277,-2.9305,-2.899,-2.8285,-2.8051,-2.7683,-2.7027,-2.6837,-2.6714,-2.6714,-2.6589,-2.6211,-2.5406,-2.5288,-2.4992,-2.4169,-2.4061,-2.4024,-2.3843,-2.3781,-2.3697,-2.3452,-2.3478,-2.3697,-2.4182,-2.5028,-2.558,-2.5812,-2.6917,-2.7855,-2.7966,-2.8414,-2.8589,-2.8947,-2.8623,-2.8298,-2.8198,-2.7759,-2.7434,-2.7391,-2.7383,-2.7046,-2.6616,-2.6576,-2.6282,-2.5716,-2.5577,-2.5689,-2.5923,-2.602,-2.5823,-2.8989,0.0,-2.8989,-2.8989,0.0,-2.8989,-2.9473,-3.0254,-3.0254,-3.0056,-2.9673,-2.9659,-2.9397,-2.8989,-2.8989,-2.8989,-2.8989,-2.8989,-2.8989,-2.8989,-2.8989,-2.8868,-2.8595,-2.7665,-2.7041,-2.6782,-2.5854,-2.5217,-2.4879,-2.5217,-2.5203,-2.4879,-2.5217,-2.5398,-2.5398,-2.5398,-2.5266,-2.5006,-2.4753,-2.412,-2.3184,-2.3074,-2.3346,-2.3924,0.0,0.0,0.0,0.0,0.0,0.0,0.0,0.0,0.0,0.0,0.0,-2.7425,-2.7435,-2.7556,-2.7844,-2.8075,-2.8152,-2.8022,-2.7865,-2.8103,-2.8939,-2.8634,-2.8182,-2.7736,-2.7364,-2.6756,-2.5873,-2.5769,-2.5581,-2.5087,-2.5028,-2.4803,-2.4373,-2.4264,-2.4084,-2.3624,-2.3478,-2.3331,-2.2813,-2.2776,-2.2563,-2.2151,-2.2075,-2.2113,-2.2226,-2.3342,-2.4264,-2.4264,-2.4921,-2.5589,-2.5634,-2.5766,-2.6209,-2.6383,-2.5863,-2.5672,-2.6411,-2.5698,-2.5127,-2.5489,-2.5442,-2.5081,-2.4882,-2.476,-2.4638,-2.4319,-2.407,-2.3885,-2.39,-2.4434,-2.4872,-2.8556,-2.8556,-2.857,-2.857,-2.857,-2.8556,-2.857,-2.8588,0.0,0.0,0.0,-2.878,-2.8698,-2.8556,-2.8556,-2.8556,-2.8556,-2.8556,-2.857,-2.8556,-2.8447,-2.8166,-2.7724,-2.6982,-2.641,-2.5978,-2.5321,-2.4597,-2.393,-2.4483,-2.4483,-2.3975,-2.4313,-2.4627,-2.4754,-2.4782,-2.4554,-2.4177,-2.379,-2.3259,-2.26,-2.2004,-2.2174,-2.315,-2.222,-2.2216,-2.3297,-2.3444,-2.3521,-2.354,-2.5106,-2.5825,-2.5312,-2.5803,-2.5925,-2.5453,-2.5398,-2.5687,-2.6333,-2.674,-2.6816,-2.6401,-2.632,-2.6879,-2.8427,-2.7743,-2.7224,-2.7224,-2.6471,-2.5616,-2.4826,-2.4743,-2.4409,-2.3588,-2.3478,-2.3478,-2.3257,-2.3257,-2.3147,-2.3047,-2.2888,-2.2702,-2.1886,-2.1773,-2.1517,-2.0828,-2.075,-2.0615,-2.0828,-2.2151,-2.3342,-2.3551,-2.3741,-2.3539,-2.3397,-2.3204,-2.3084,-2.3836,-2.297,-2.2624,-2.3574,-2.318,-2.2727,-2.3261,-2.2973,-2.2763,-2.2671,-2.2684,-2.2622,-2.2566,-2.2209,-2.1839,-2.1898,-2.2646,-2.3285,-2.6837,-2.6837,-2.685,-2.6837,-2.6837,-2.685,-2.685,-2.6973,-2.8363,-2.8588,-2.7887,-2.7887,-2.7517,-2.685,-2.685,-2.6837,-2.685,-2.685,-2.6837,0.0,-2.6314,-2.6047,-2.5919,-2.4937,-2.4396,-2.43,-2.3722,-2.3022,-2.2329,-2.2347,-2.2329,-2.2175,-2.1612,-2.1694,-2.2317,-2.2378,-2.2676,-2.3272,-2.3487,-2.3273,-2.2614,-2.2028,-2.1767,-2.1918,-2.1791,-2.2007,-2.2679,-2.2756,-2.322,-2.4192,-2.4515,-2.4876,-2.5328,-2.5424,-2.5494,-2.5412,-2.5398,-2.5895,-2.6913,-2.6449,-2.5858,-2.5326,-2.5216,-2.5687,-2.6714,-2.5953,-2.5381,-2.5346,-2.4576,-2.3879,-2.3708,-2.3708,-2.3624,-2.3441,-2.3478,-2.3184,-2.2328,-2.2178,-2.1886,-2.1145,-2.1011,-2.0972,-2.0731,-2.0692,-2.0624,-2.0557,-2.0245,-2.0489,-2.0557,-2.1517,-2.2515,-2.3239,-2.3203,-2.3014,-2.2711,-2.2565,-2.2273,-2.2445,-2.1891,-2.1453,-2.2006,-2.1464,-2.1092,-2.1131,-2.1201,-2.1112,-2.1069,-2.0942,-2.0905,-2.0688,-2.0446,-2.0238,-1.9958,-1.9812,-1.9737,-2.5358,-2.4874,-2.4874,-2.4874,-2.4874,-2.4874,-2.4874,-2.4933,-2.5703,-2.6417,-2.7027,-2.704,-2.685,-2.6521,-2.6487,-2.6487,-2.6487,-2.6487,-2.6058,-2.5326,-2.5022,-2.4338,-2.334,-2.2811,-2.2432,-2.2171,-2.1859,-2.1553,-2.1227,-2.1195,-2.1195,-2.1175,-2.0794,-2.0814,-2.1175,-2.1195,-2.1385,-2.1748,-2.2515,-2.2525,-2.1735,-2.1355,-2.1091,-2.0949,-2.1078,-2.1439,-2.2023,-2.2221,-2.2407,-2.2544,-2.3173,-2.3302,-2.2855,-2.3183,-2.32,-2.2837,-2.282,-2.3262,-2.4332,-2.4502,-2.4479,-2.4218,-2.4192,-2.4361,-2.4838,-2.4469,-2.4192,-2.4192,-2.3734,-2.3294,-2.2776,-2.2702,-2.2478,-2.1973,-2.1935,-2.1756,-2.126,-2.0701,-2.0197,-1.9747,-1.9155,-1.8789,-1.8829,-1.8829,-1.8789,-1.8829,-1.8829,-1.8829,-1.8868,-1.9198,-1.9995,-2.1206,-2.1381,-2.1188,-2.0994,-2.0529,-2.0466,-2.0838,-2.0145,-2.0047,-2.0599,-2.0379,-2.0128,-2.0494,-2.0579,-2.059,-2.0536,-2.0387,-2.014,-1.9927,-1.9407,-1.9088,-1.8836,-1.8109,-1.7732,-2.4228,-2.3514,-2.3478,-2.3478,-2.3478,-2.3478,-2.3478,-2.3478,-2.3514,-2.4361,-2.5721,-2.5838,-2.5826,-2.5826,-2.5826,-2.5765,-2.5701,-2.5701,-2.4992,-2.3927,-2.3705,-2.2852,-2.1496,-2.1295,-2.0982,-2.0624,-2.059,-2.0526,-2.0344,-2.0301,-2.0204,-2.0085,-2.0215,-2.0301,-2.0301,-2.0301,-2.0398,-2.0632,-2.1461,-2.153,-2.0763,-2.0451,-2.0205,-2.0022,-2.0177,-2.0581,-2.1169,-2.1464,-2.1373,-2.0993,-2.1801,-2.1791,-2.0728,-2.1126,-2.1209,-2.0675,-2.0702,-2.114,-2.2102,-2.2986,-2.3404,-2.3184,-2.3147,-2.3073,-2.2888,-2.285,-2.2973,-2.311,-2.2925,-2.2489,-2.1849,-2.1697,-2.1288,-2.0391,-2.0245,-2.0109,-1.9835,-1.9116,-1.8638,-1.851,-1.7819,-1.7342,-1.7302,-1.7302,-1.7383,-1.7423,-1.7302,-1.7302,-1.7302,-1.7302,-1.7888,-1.8592,-1.9061,-1.8919,-1.856,-1.8135,-1.8241,-1.8992,-1.8409,-1.8546,-1.9353,-1.9233,-1.8936,-1.9312,-1.9334,-1.9053,-1.9176,-1.887,-1.8575,-1.8342,-1.7905,-1.7555,-1.7315,-1.6628,-1.635,-2.3562,-2.3478,-2.3404,-2.3478,-2.3404,-2.3441,-2.3404,-2.3404,-2.3478,-2.3562,-2.377,-2.377,-2.3818,-2.3781,-2.3843,-2.3676,-2.3371,-2.3231,-2.2946,-2.2389,-2.189,-2.1575,-2.1263,-2.0871,-2.0635,-2.0526,-2.0494,-2.0074,-1.9431,-1.9431,-1.9,-1.8428,-1.9044,-1.9431,-1.9431,-1.9431,-1.9781,-2.0558,-2.0705,-2.0488,-1.9924,-1.9343,-1.9052,-1.904,-1.9081,-1.9366,-2.0023,-1.998,-2.0209,-2.0595,-2.0726,-2.0728,-2.0579,-2.0643,-2.0675,-2.057,-2.0896,-2.1576,-2.2488,-2.3176,-2.2988,-2.2253,-2.2017,-2.1697,-2.0972,-2.0847,-2.1231,-2.1697,-2.1298,-2.0857,-2.075,-2.0663,-2.0187,-1.9274,-1.9155,-1.8758,-1.7948,-1.7545,-1.7455,-1.7464,-1.722,-1.7302,-1.7058,-1.7058,-1.7139,-1.6976,-1.6895,-1.6895,-1.6935,-1.6968,-1.675,-1.6624,-1.6552,-1.6514,-1.6286,-1.5812,-1.6219,-1.6822,-1.689,-1.7198,-1.7745,-1.7531,-1.6973,-1.7298,-1.6609,-1.6216,-1.5804,-1.523,-1.5453,-1.5851,-1.5614,-1.5184,-1.4756,-1.4588,-1.4982,-2.2301,-2.1783,-2.1794,-2.1783,-2.1783,-2.1783,-2.1783,-2.1794,-2.1794,-2.1794,-2.1783,-2.1783,-2.2424,-2.3467,-2.3259,-2.3059,-2.2893,-2.2646,-2.1919,-2.1032,-2.0702,-2.0172,-1.9404,-1.917,-1.9077,-1.9044,-1.9044,-1.8888,-1.8586,-1.8563,-1.8337,-1.8076,-1.8361,-1.8529,-1.8529,-1.8529,-1.8731,-1.9054,-1.9044,-1.894,-1.8831,-1.9174,-1.917,-1.878,-1.9109,-1.9452,-1.9685,-1.9584,-1.962,-1.977,-1.9375,-1.9088,-1.9044,-1.9077,-1.9077,-1.9085,-1.9727,-2.0094,-2.0093,-2.0567,-2.0353,-1.9289,-1.9219,-1.9031,-1.87,-1.8669,-1.885,-1.9149,-1.9453,-1.9392,-1.8789,-1.8669,-1.847,-1.8069,-1.7989,-1.7787,-1.7383,-1.6723,-1.6355,-1.6314,-1.5794,-1.5436,-1.5387,-1.5436,-1.5436,-1.5436,-1.5428,-1.5511,-1.5436,-1.5394,-1.5109,-1.4596,-1.4421,-1.4752,-1.5199,-1.5314,-1.5384,-1.5649,-1.5755,-1.6018,-1.6193,-1.6123,-1.5799,-1.5755,-1.5332,-1.4952,-1.4959,-1.4471,-1.4321,-1.4216,-1.3881,-1.3726,-1.3541,-1.3485,-1.3867,-2.1221,-2.0644,-2.0615,-2.0615,-2.0615,-2.0615,-2.0615,-2.0615,-2.0615,-2.0615,-2.0586,-2.0478,-2.1154,-2.2353,-2.2186,-2.1962,-2.1705,-2.1357,-2.0612,-1.9606,-1.9541,-1.8968,-1.8052,-1.8008,-1.8008,-1.8008,-1.8042,-1.8042,-1.8008,-1.8008,-1.7862,-1.7681,-1.7613,-1.7467,-1.726,-1.7217,-1.7226,-1.7226,-1.7226,-1.7226,-1.7341,-1.8028,-1.842,-1.8417,-1.8913,-1.9222,-1.9233,-1.9065,-1.8944,-1.8911,-1.8337,-1.8008,-1.8008,-1.8008,-1.7978,-1.7907,-1.8214,-1.834,-1.8052,-1.8351,-1.8189,-1.7423,-1.7302,-1.7302,-1.7302,-1.7302,-1.7139,-1.6968,-1.7617,-1.7738,-1.7496,-1.7302,-1.722,-1.6935,-1.6846,-1.6772,-1.6404,-1.5662,-1.5255,-1.5179,-1.4699,-1.4088,-1.413,-1.4208,-1.425,-1.425,-1.4166,-1.4088,-1.4088,-1.4153,-1.3985,-1.3414,-1.3313,-1.3519,-1.4252,-1.4243,-1.445,-1.4772,-1.4772,-1.4879,-1.5021,-1.5057,-1.4816,-1.4764,-1.4593,-1.4175,-1.3485,-1.3279,-1.3337,-1.3187,-1.2974,-1.2742,-1.2734,-1.2696,-1.2543,-2.0644,-2.0605,-2.0615,-2.0615,-2.0615,-2.0615,-2.0615,-2.0615,-2.0615,-2.0615,-2.0556,-2.0137,-2.0017,-2.0195,-2.019,-1.959,-1.8956,-1.8928,-1.8691,-1.8266,-1.8193,-1.8095,-1.8008,-1.8008,-1.794,-1.7759,-1.7716,-1.7794,-1.7862,-1.7906,-1.7535,-1.6706,-1.6671,-1.6219,-1.5587,-1.5525,-1.5376,-1.5517,-1.5552,-1.5411,-1.5411,-1.5492,-1.64,-1.775,-1.8027,-1.7997,-1.8051,-1.8056,-1.8032,-1.8042,-1.7896,-1.7896,-1.794,-1.7949,-1.7811,-1.7623,-1.6899,-1.6704,-1.7209,-1.7366,-1.7293,-1.722,-1.7017,-1.722,-1.6976,-1.6976,-1.6609,-1.5861,-1.5902,-1.6232,-1.6797,-1.6846,-1.6642,-1.5869,-1.5779,-1.5338,-1.4454,-1.4356,-1.4166,-1.4117,-1.3906,-1.3695,-1.3913,-1.4088,-1.3828,-1.3828,-1.3955,-1.387,-1.3737,-1.3864,-1.3629,-1.332,-1.3073,-1.3006,-1.2564,-1.2645,-1.2974,-1.304,-1.3208,-1.3766,-1.4307,-1.4565,-1.3983,-1.3557,-1.304,-1.2468,-1.1839,-1.1607,-1.169,-1.1774,-1.2103,-1.2035,-1.1284,-1.1671,-1.1454,-2.0615,-2.0615,-2.0615,-2.0615,-2.0615,-2.0615,-2.0615,-2.0615,-2.0615,-2.0615,-2.0527,-2.0098,-1.9756,-1.9502,-1.9182,-1.889,-1.8598,-1.8325,-1.8144,-1.8008,-1.8008,-1.7681,-1.7139,-1.7104,-1.6749,-1.6263,-1.6237,-1.6202,-1.6228,-1.6193,-1.6044,-1.5799,-1.5685,-1.5508,-1.5269,-1.5199,-1.5199,-1.5199,-1.5199,-1.5199,-1.5128,-1.5199,-1.5552,-1.6158,-1.6237,-1.6193,-1.6228,-1.6193,-1.6228,-1.6193,-1.6193,-1.6193,-1.6219,-1.6351,-1.6565,-1.6715,-1.6604,-1.6443,-1.631,-1.6265,-1.5959,-1.5352,-1.5235,-1.5311,-1.5269,-1.5269,-1.5061,-1.4768,-1.465,-1.4636,-1.4266,-1.4782,-1.511,-1.4776,-1.465,-1.4489,-1.4075,-1.347,-1.2936,-1.2808,-1.2382,-1.1869,-1.204,-1.1869,-1.1869,-1.1869,-1.1869,-1.1955,-1.1912,-1.1863,-1.1869,-1.1522,-1.1335,-1.1126,-1.0728,-1.1117,-1.1354,-1.0938,-1.0895,-1.0963,-1.136,-1.1619,-1.1224,-1.189,-1.1496,-1.1424,-1.0965,-1.0453,-1.043,-1.029,-1.0636,-1.0393,-0.9424,-0.9933,-0.9615,-2.0615,-2.0615,-2.0615,-2.0615,-2.0615,-2.0615,-2.0615,-2.0615,-2.0615,-2.0615,-2.0507,-1.9971,-1.9393,-1.8799,-1.8211,-1.7734,-1.753,-1.7486,-1.7535,-1.751,-1.7251,-1.6759,-1.6254,-1.614,-1.5834,-1.5305,-1.5199,-1.5199,-1.5199,-1.5199,-1.5021,-1.4736,-1.47,-1.4565,-1.4343,-1.4271,-1.4271,-1.4263,-1.4271,-1.4227,-1.4271,-1.4271,-1.4263,-1.4271,-1.4271,-1.4593,-1.5128,-1.5199,-1.5199,-1.5199,-1.5199,-1.5199,-1.5232,-1.5174,-1.5298,-1.5648,-1.5638,-1.5554,-1.5238,-1.5179,-1.4894,-1.4208,-1.4088,-1.4004,-1.3603,-1.3512,-1.3385,-1.3124,-1.2954,-1.2559,-1.2163,-1.251,-1.2954,-1.2954,-1.2954,-1.2954,-1.2954,-1.2254,-1.1815,-1.1681,-1.1214,-1.074,-1.0567,-1.0611,-1.0659,-1.0567,-1.0567,-1.0567,-1.0567,-1.0562,-1.0527,-1.0371,-1.0406,-1.0091,-0.9697,-0.9761,-1.0203,-0.9891,-0.963,-0.9316,-0.9069,-0.9107,-0.9372,-1.004,-1.0356,-1.0415,-1.0125,-0.9558,-0.9173,-0.8946,-0.8937,-0.8913,-0.8436,-0.8215,-0.8188,-2.0527,-2.0401,-2.0566,-2.0411,-2.0323,-2.0411,-2.0527,-2.0323,-2.0362,-2.0245,-2.0052,-1.9501,-1.8573,-1.7843,-1.7017,-1.6175,-1.5736,-1.6158,-1.6498,-1.6498,-1.5799,-1.5376,-1.5199,-1.5163,-1.5092,-1.4914,-1.5057,-1.5057,-1.495,-1.4843,-1.4486,-1.381,-1.3702,-1.3346,-1.2409,-1.2592,-1.2482,-1.2556,-1.2586,-1.2482,-1.2342,-1.2519,-1.2592,-1.2526,-1.2519,-1.3302,-1.495,-1.5021,-1.4914,-1.4985,-1.5021,-1.5128,-1.4888,-1.4504,-1.4327,-1.4521,-1.4085,-1.3905,-1.4119,-1.4124,-1.4026,-1.3864,-1.3955,-1.33,-1.2504,-1.2291,-1.1943,-1.1214,-1.0956,-1.074,-1.0654,-1.0697,-1.0832,-1.0654,-1.0999,-1.0999,-1.0869,-1.0654,-1.0524,-1.0438,-1.0221,-1.0476,-1.0519,-1.0173,-1.0048,-1.0091,-1.0135,-1.0091,-1.0005,-0.9961,-1.0346,-1.0307,-0.9776,-0.9159,-0.8766,-0.8488,-0.8869,-0.9083,-0.8971,-0.8746,-0.8518,-0.8466,-0.8618,-0.913,-0.9569,-0.9642,-0.946,-0.8861,-0.8381,-0.814,-0.794,-0.7644,-0.7419,-0.7296,-0.747,-1.9036,-1.8461,-1.9195,-1.9036,-1.851,-1.9155,-1.9076,-1.8341,-1.8341,-1.835,-1.8201,-1.7529,-1.6992,-1.6641,-1.5954,-1.5482,-1.5163,-1.4879,-1.4977,-1.5446,-1.5305,-1.4772,-1.4271,-1.4163,-1.3803,-1.3302,-1.32,-1.32,-1.3244,-1.3244,-1.3025,-1.2769,-1.2739,-1.2586,-1.2348,-1.2305,-1.2305,-1.2305,-1.2305,-1.2305,-1.2305,-1.2305,-1.2305,-1.2305,-1.2305,-1.2666,-1.3164,-1.32,-1.32,-1.323,-1.32,-1.3294,-1.3493,-1.354,-1.362,-1.3884,-1.3987,-1.3975,-1.3928,-1.3288,-1.2857,-1.2729,-1.2211,-1.1601,-1.1214,-1.1128,-1.095,-1.0567,-1.0567,-1.0351,-0.9623,-0.941,-0.971,-1.0524,-1.0567,-1.0481,-1.0308,-0.9836,-0.91,-0.8356,-0.8185,-0.8181,-0.8225,-0.8269,-0.84,-0.84,-0.8356,-0.836,-0.8269,-0.844,-0.8181,-0.8173,-0.8028,-0.8296,-0.7982,-0.7781,-0.7907,-0.8077,-0.8003,-0.7979,-0.7807,-0.7706,-0.7897,-0.8138,-0.8543,-0.8676,-0.851,-0.8171,-0.765,-0.7158,-0.6812,-0.6597,-0.6415,-0.6406,-0.6483,-1.7948,-1.7423,-1.8069,-1.7989,-1.7383,-1.8109,-1.7989,-1.7342,-1.7302,-1.7302,-1.7194,-1.655,-1.6,-1.5597,-1.4976,-1.443,-1.4083,-1.3419,-1.352,-1.4055,-1.4127,-1.3738,-1.32,-1.3164,-1.3029,-1.2564,-1.2465,-1.2532,-1.2632,-1.2639,-1.2639,-1.2645,-1.2639,-1.2579,-1.2516,-1.2465,-1.2425,-1.2325,-1.2305,-1.2305,-1.2224,-1.1922,-1.1737,-1.1694,-1.1397,-1.1211,-1.1174,-1.1174,-1.1545,-1.214,-1.2398,-1.2603,-1.2797,-1.3166,-1.342,-1.3518,-1.3464,-1.3421,-1.3336,-1.2334,-1.1686,-1.1509,-1.0994,-1.0394,-1.0091,-0.9966,-0.9879,-0.9396,-0.9222,-0.9008,-0.8364,-0.8233,-0.858,-0.9183,-0.9226,-0.9309,-0.9179,-0.8663,-0.8057,-0.7401,-0.7228,-0.7095,-0.7095,-0.7095,-0.7095,-0.7095,-0.7095,-0.7095,-0.7095,-0.7183,-0.7139,-0.7139,-0.7342,-0.742,-0.721,-0.7108,-0.7033,-0.7028,-0.6958,-0.6962,-0.6892,-0.6835,-0.6907,-0.713,-0.7457,-0.7487,-0.7351,-0.7065,-0.6643,-0.6194,-0.5663,-0.5419,-0.5234,-0.5167,-0.5313,-1.718,-1.7139,-1.718,-1.7098,-1.6976,-1.7172,-1.709,-1.7017,-1.6976,-1.6895,-1.6782,-1.6109,-1.5459,-1.4697,-1.4097,-1.3402,-1.2557,-1.2611,-1.2631,-1.2692,-1.2685,-1.2668,-1.2601,-1.2652,-1.2692,-1.2784,-1.2811,-1.2945,-1.3093,-1.3106,-1.3206,-1.3133,-1.3106,-1.3053,-1.2857,-1.2817,-1.2614,-1.2241,-1.2219,-1.2188,-1.1995,-1.1253,-1.0758,-1.0726,-1.0019,-0.9616,-0.9665,-0.9708,-1.0349,-1.1882,-1.2189,-1.2286,-1.2628,-1.314,-1.3164,-1.3105,-1.2596,-1.2304,-1.198,-1.1171,-1.0486,-1.0481,-1.0221,-0.9966,-0.8973,-0.8755,-0.8448,-0.7617,-0.7445,-0.7316,-0.7272,-0.7272,-0.7312,-0.7183,-0.7533,-0.7485,-0.7228,-0.7228,-0.7228,-0.7183,-0.7095,-0.7095,-0.7095,-0.7095,-0.7095,-0.7095,-0.7095,-0.7095,-0.7095,-0.7095,-0.7095,-0.7095,-0.7095,-0.7095,-0.7092,-0.7082,-0.7011,-0.6927,-0.6738,-0.6573,-0.6404,-0.6296,-0.63,-0.6483,-0.624,-0.624,-0.6091,-0.5821,-0.5389,-0.4819,-0.4434,-0.4176,-0.4111,-0.4147,-0.4219,-1.567,-1.5068,-1.5786,-1.567,-1.5144,-1.5745,-1.567,-1.5026,-1.4985,-1.511,-1.4885,-1.4483,-1.4245,-1.3903,-1.3558,-1.316,-1.2971,-1.2939,-1.2973,-1.2934,-1.2979,-1.2973,-1.2973,-1.2966,-1.2999,-1.308,-1.3086,-1.3133,-1.3206,-1.3253,-1.324,-1.3206,-1.3253,-1.3193,-1.3093,-1.3047,-1.2563,-1.1848,-1.1712,-1.1223,-1.0503,-1.0187,-1.001,-0.997,-0.9682,-0.9523,-0.9577,-0.9617,-0.9691,-1.0131,-1.0414,-1.063,-1.0974,-1.1175,-1.1419,-1.1485,-1.1252,-1.1037,-1.0826,-0.9966,-0.941,-0.9235,-0.8663,-0.7881,-0.7621,-0.7577,-0.7401,-0.7095,-0.7095,-0.7095,-0.7095,-0.7095,-0.7095,-0.7095,-0.7095,-0.7095,-0.7095,-0.7095,-0.7095,-0.7095,-0.7095,-0.7095,-0.7095,-0.7095,-0.7095,-0.7095,-0.7051,-0.7007,-0.6874,-0.6691,-0.6514,-0.6915,-0.7051,-0.7095,-0.7095,-0.7095,-0.7075,-0.7038,-0.684,-0.6566,-0.6377,-0.6198,-0.6217,-0.6335,-0.5425,-0.5151,-0.48,-0.4486,-0.3943,-0.3576,-0.3412,-0.333,-0.3261,-0.3246,-0.3246,-1.465,-1.4173,-1.4768,-1.4692,-1.4208,-1.4768,-1.4657,-1.4166,-1.4088,-1.4088,-1.4021,-1.3774,-1.3606,-1.3573,-1.334,-1.3206,-1.3206,-1.3206,-1.32,-1.3187,-1.328,-1.3267,-1.3233,-1.3206,-1.3267,-1.3353,-1.3353,-1.3467,-1.3567,-1.3581,-1.3581,-1.3601,-1.3581,-1.3264,-1.2603,-1.2597,-1.1999,-1.0979,-1.0721,-1.0353,-0.9746,-0.9263,-0.9055,-0.8932,-0.8733,-0.8451,-0.8414,-0.8482,-0.8805,-0.941,-0.9801,-0.9985,-1.0188,-1.0336,-1.0436,-1.0567,-1.0183,-0.9884,-0.9666,-0.8798,-0.8193,-0.8061,-0.7404,-0.7183,-0.7139,-0.7095,-0.7095,-0.7095,-0.7095,-0.7095,-0.7095,-0.7095,-0.7095,-0.7095,-0.7095,-0.7095,-0.7095,-0.7095,-0.7095,-0.7095,-0.7095,-0.7095,-0.7095,-0.7095,-0.7095,-0.7007,-0.6517,-0.6428,-0.6251,-0.6024,-0.5753,-0.593,-0.593,-0.5664,-0.5575,-0.5575,-0.5708,-0.5819,-0.5621,-0.5602,-0.5676,-0.5453,-0.5187,-0.4914,-0.4387,-0.3984,-0.3709,-0.3437,-0.3117,-0.2838,-0.2656,-0.2454,-0.2347,-0.2287,-0.2297,-1.4088,-1.4088,-1.4088,-1.4088,-1.4088,-1.413,-1.4166,-1.4088,-1.4088,-1.4088,-1.4035,-1.3773,-1.3693,-1.3633,-1.352,-1.3333,-1.3333,-1.3394,-1.336,-1.344,-1.3554,-1.3547,-1.342,-1.3414,-1.3514,-1.3626,-1.3646,-1.3773,-1.3935,-1.4021,-1.3928,-1.3688,-1.3714,-1.3065,-1.2034,-1.1732,-1.0952,-0.994,-0.9729,-0.9523,-0.9068,-0.8492,-0.8167,-0.8042,-0.7503,-0.7168,-0.7063,-0.7123,-0.7724,-0.9338,-0.9711,-0.9639,-0.9766,-1.0048,-1.0072,-0.9874,-0.9144,-0.8715,-0.8584,-0.7797,-0.7183,-0.7228,-0.7183,-0.7095,-0.7095,-0.7095,-0.7095,-0.7095,-0.7095,-0.7095,-0.7095,-0.7095,-0.7095,-0.7051,-0.7051,-0.6871,-0.6962,-0.7051,-0.7095,-0.7051,-0.7051,-0.6918,-0.6918,-0.6827,-0.6647,-0.5797,-0.5487,-0.5309,-0.5087,-0.4819,-0.4505,-0.4281,-0.4148,-0.3881,-0.3837,-0.3837,-0.4014,-0.4098,-0.3796,-0.3761,-0.4107,-0.3954,-0.3567,-0.3211,-0.3192,-0.3096,-0.2891,-0.2618,0.0,-0.1839,-0.1449,-0.141,-0.1407,-0.136,-0.1347,-1.4088,-1.4088,-1.4088,-1.4088,-1.4088,-1.4088,-1.4088,-1.4088,-1.4088,-1.4088,-1.4068,-1.4008,-1.3981,-1.3981,-1.3888,-1.3901,-1.3848,-1.3848,-1.3895,-1.3908,-1.3941,-1.3968,-1.3881,-1.3813,-1.3866,-1.3968,-1.3988,-1.3986,-1.4039,-1.3864,-1.3555,-1.2766,-1.2632,-1.2091,-1.1048,-1.0803,-1.0272,-0.9284,-0.9052,-0.8562,-0.7955,-0.7613,-0.74,-0.7361,-0.7151,-0.7034,-0.7004,-0.7034,-0.7294,-0.7578,-0.7795,-0.802,-0.8036,-0.8026,-0.8093,-0.8053,-0.7837,-0.7533,-0.7445,-0.7316,-0.7095,-0.7095,-0.7095,-0.7095,-0.7095,-0.7095,-0.7095,-0.7095,-0.7095,-0.7095,-0.6962,-0.7051,-0.6915,-0.6694,-0.6204,-0.5758,-0.5891,-0.647,-0.6827,-0.6782,-0.6201,-0.5758,-0.5714,-0.4952,-0.4683,-0.4414,-0.4237,-0.4061,-0.3794,-0.3571,-0.317,-0.2814,-0.286,-0.2726,-0.2726,-0.2681,-0.2681,-0.2681,-0.2308,-0.2116,-0.2478,-0.2741,-0.2451,-0.2372,-0.2376,-0.2168,-0.1922,0.0,0.0,0.0,0.0,0.0,0.0,0.0,0.0,-1.4088,-1.4088,-1.4088,-1.4088,-1.4088,-1.4088,-1.4088,-1.4088,-1.4088,-1.4088,-1.4088,-1.4088,-1.4088,-1.4088,-1.4088,-1.4082,-1.4088,-1.4088,-1.4082,-1.4068,-1.4082,-1.4082,-1.3913,-1.3603,-1.347,-1.3955,-1.4082,-1.3864,-1.3421,-1.316,-1.2595,-1.1595,-1.1509,-1.0907,-0.9961,-0.9792,-0.9179,-0.8265,-0.8057,-0.7709,-0.7228,-0.7095,-0.7095,-0.7095,-0.7095,-0.7095,-0.7088,-0.7092,-0.7095,-0.7095,-0.7095,-0.7095,-0.7095,-0.7095,-0.7095,-0.7095,-0.7095,-0.7095,-0.7139,-0.7095,-0.7095,-0.7095,-0.7095,-0.7095,-0.7095,-0.7095,-0.7095,-0.7095,-0.7051,-0.6918,-0.6384,-0.6293,-0.6157,-0.5442,-0.4954,-0.4552,-0.4685,-0.5129,-0.5484,-0.5351,-0.4861,-0.4641,-0.4241,-0.366,-0.3659,-0.3794,-0.2992,-0.2726,-0.2459,-0.2192,-0.1746,-0.1478,-0.1612,-0.1657,-0.1657,-0.1612,-0.1478,-0.1344,-0.1118,-0.098,-0.1099,-0.1327,-0.1501,0.0,0.0,0.0,0.0,0.0,0.0,0.0,0.0,0.0,0.0,0.0,0.0,-1.4088,-1.4088,-1.4088,-1.4088,-1.4088,-1.4088,-1.4088,-1.4088,-1.4088,-1.4088,-1.4088,-1.4088,-1.4088,-1.4088,-1.4088,-1.4088,-1.4039,-1.373,-1.3603,-1.3639,-1.3258,-1.3173,-1.2997,-1.2553,-1.2467,-1.3525,-1.3307,-1.2772,-1.2242,-1.198,-1.1429,-1.0524,-1.0351,-0.9705,-0.8886,-0.8584,-0.8189,-0.7404,-0.7316,-0.7272,-0.7139,-0.7095,-0.7095,-0.7095,-0.7095,-0.7095,-0.7095,-0.7095,-0.7095,-0.7095,-0.7095,-0.7095,-0.7095,-0.7095,-0.7095,-0.7095,-0.7095,-0.7095,-0.7095,-0.7095,-0.7095,-0.7095,-0.7095,-0.7095,-0.7095,-0.683,-0.665,-0.6602,-0.6422,-0.5933,-0.5267,-0.5132,-0.4641,-0.3972,-0.357,-0.3347,-0.3303,-0.3215,-0.317,-0.3792,-0.3616,-0.335,-0.3172,-0.2771,-0.2994,0.0,0.0,0.0,0.0,0.0,0.0,0.0,0.0,0.0,0.0,0.0,0.0,0.0,0.0,0.0,0.0,0.0,0.0,0.0,0.0,0.0,0.0,0.0,0.0,0.0,0.0,0.0,0.0,0.0,0.0,-1.4088,-1.4088,-1.4088,-1.4088,-1.4088,-1.4088,-1.4088,-1.4088,-1.4088,-1.4088,-1.4088,-1.4088,-1.4088,-1.4088,-1.4088,-1.4088,-1.3822,-1.3118,-1.2595,-1.2419,-1.1906,-1.1477,-1.1477,-1.1128,-1.1085,-1.1085,-1.1171,-1.0999,-1.0956,-1.0826,-1.0269,-0.9405,-0.9192,-0.8584,-0.7797,-0.7404,-0.7492,-0.7183,-0.7095,-0.7095,-0.7095,-0.7095,-0.7095,-0.7095,-0.7095,-0.7095,-0.7095,-0.7095,-0.7095,-0.7095,-0.7095,-0.7095,-0.7095,-0.7095,-0.7095,-0.7095,-0.7095,-0.7095,-0.7095,-0.7095,-0.7095,-0.7095,-0.7007,-0.7007,-0.683,-0.6248,-0.5758,-0.5445,-0.4907,-0.4192,-0.3926,-0.3883,-0.3837,-0.3347,-0.2637,-0.2103,-0.1924,-0.1567,-0.1657,-0.2725,-0.2503,-0.2103,-0.1924,0.0,0.0,0.0,0.0,0.0,0.0,0.0,0.0,0.0,0.0,0.0,0.0,0.0,0.0,0.0,0.0,0.0,0.0,0.0,0.0,0.0,0.0,0.0,0.0,0.0,0.0,0.0,0.0,0.0,0.0,0.0,0.0,-1.4088,-1.4088,-1.4088,-1.4088,-1.4088,-1.4088,-1.4088,-1.4088,-1.4088,-1.4088,-1.4088,-1.4088,-1.4088,-1.4088,-1.4088,-1.3822,-1.2984,-1.1949,-1.1466,-1.1209,-1.0869,-1.0567,-1.0394,-1.0009,-0.9749,-0.9531,-0.9183,-0.9226,-0.9662,-0.9705,-0.91,-0.8229,-0.7973,-0.7665,-0.7272,-0.7139,-0.7095,-0.7095,-0.7095,-0.7095,-0.7095,-0.7095,-0.7095,-0.7095,-0.7095,-0.7095,-0.7095,-0.7095,-0.7095,-0.7095,-0.7095,-0.7095,-0.7095,-0.7095,-0.7095,-0.7095,-0.7095,-0.7095,-0.7095,-0.7095,-0.7095,-0.7003,-0.6602,-0.6248,-0.5935,-0.522,-0.4508,-0.4285,-0.415,-0.3303,-0.2771,-0.2681,-0.2369,-0.179,0.0,0.0,0.0,0.0,0.0,0.0,0.0,0.0,-0.0808,0.0,0.0,0.0,0.0,0.0,0.0,0.0,0.0,0.0,0.0,0.0,0.0,0.0,0.0,0.0,0.0,0.0,0.0,0.0,0.0,0.0,0.0,0.0,0.0,0.0,0.0,0.0,0.0,0.0,0.0,0.0,0.0,-1.4088,-1.4088,-1.4088,-1.4088,-1.4088,-1.4088,-1.4088,-1.4088,-1.4088,-1.3906,-1.3737,-1.3688,-1.3512,-1.3385,-1.3215,-1.2772,-1.1852,-1.0778,-1.0308,-1.0178,-0.9831,-0.9788,-0.957,-0.9144,-0.854,-0.8404,-0.7881,-0.7577,-0.836,-0.8536,-0.7969,-0.7533,-0.7183,-0.7095,-0.7095,-0.7095,-0.7095,-0.7095,-0.7095,-0.7095,-0.7095,-0.7095,-0.7095,-0.7095,-0.7095,-0.7095,-0.7095,-0.7095,-0.7095,-0.7095,-0.7095,-0.7095,-0.7095,-0.7095,-0.7007,-0.6827,-0.6959,-0.7095,-0.7051,-0.6738,-0.6605,-0.6514,-0.5622,-0.5176,-0.4732,-0.4016,-0.3126,-0.2992,-0.2726,-0.2369,-0.1567,-0.1433,-0.1031,0.0,0.0,0.0,0.0,0.0,0.0,0.0,0.0,0.0,0.0,0.0,0.0,0.0,0.0,0.0,0.0,0.0,0.0,0.0,0.0,0.0,0.0,0.0,0.0,0.0,0.0,0.0,0.0,0.0,0.0,0.0,0.0,0.0,0.0,0.0,0.0,0.0,0.0,0.0,0.0,0.0,0.0,-1.4088,-1.4088,-1.4088,-1.4088,-1.4088,-1.4039,-1.4046,-1.4039,-1.3913,-1.347,-1.2504,-1.2462,-1.1992,-1.1391,-1.1133,-1.0956,-1.0481,-0.9662,-0.9104,-0.8973,-0.8273,-0.7921,-0.7661,-0.7445,-0.7536,-0.7533,-0.7272,-0.7187,-0.7492,-0.7489,-0.736,-0.7139,-0.7095,-0.7095,-0.7095,-0.7095,-0.7095,-0.7095,-0.7095,-0.7095,-0.7095,-0.7095,-0.7095,-0.7095,-0.7095,-0.7095,-0.7095,-0.7095,-0.7095,-0.7095,-0.7095,-0.7095,-0.7095,-0.7095,-0.6514,-0.6248,-0.6428,-0.7095,-0.6738,-0.6068,-0.5581,-0.5401,-0.4508,-0.397,-0.3349,-0.2681,-0.1656,-0.0449,0.0,0.0,0.0,0.0,0.0,0.0,0.0,0.0,0.0,0.0,0.0,0.0,0.0,0.0,0.0,0.0,0.0,0.0,0.0,0.0,0.0,0.0,0.0,0.0,0.0,0.0,0.0,0.0,0.0,0.0,0.0,0.0,0.0,0.0,0.0,0.0,0.0,0.0,0.0,0.0,0.0,0.0,0.0,0.0,0.0,0.0,0.0,-1.4088,-1.4088,-1.4088,-1.4088,-1.3997,-1.3385,-1.3069,-1.2942,-1.2388,-1.1821,-1.1423,-1.1343,-1.1037,-1.0438,-1.0009,-0.9666,-0.9362,-0.8448,-0.7929,-0.7929,-0.7401,-0.7095,-0.7183,-0.7095,-0.7095,-0.7095,-0.7095,-0.7139,-0.7095,-0.7095,-0.7095,-0.7095,-0.7095,-0.7095,-0.7095,-0.7095,-0.7095,-0.7095,-0.7095,-0.7095,-0.7095,-0.7095,-0.7095,-0.7095,-0.7095,-0.7095,-0.7095,-0.7095,-0.7095,-0.7095,-0.7095,-0.6738,-0.6293,-0.6027,-0.5625,-0.455,-0.4772,-0.5038,-0.4994,-0.4596,-0.4463,-0.4107,-0.326,-0.2325,-0.1701,0.0,0.0,-0.009,0.0,0.0,0.0,0.0,0.0,0.0,0.0,0.0,0.0,0.0,0.0,0.0,0.0,0.0,0.0,0.0,0.0,0.0,0.0,0.0,0.0,0.0,0.0,0.0,0.0,0.0,0.0,0.0,0.0,0.0,0.0,0.0,0.0,0.0,0.0,0.0,0.0,0.0,0.0,0.0,0.0,0.0,0.0,0.0,0.0,0.0,0.0,-1.3215,-1.3252,-1.3519,-1.3476,-1.3167,-1.2248,-1.1895,-1.1766,-1.108,-1.0481,-1.0091,-0.9836,-0.9701,-0.957,-0.8842,-0.8452,-0.8364,-0.7489,-0.7183,-0.7095,-0.7095,-0.7095,-0.7095,-0.7095,-0.7095,-0.7095,-0.7095,-0.7095,-0.7095,-0.7095,-0.7095,-0.7095,-0.7095,-0.7095,-0.7095,-0.7095,-0.7095,-0.7095,-0.7095,-0.7095,-0.7095,-0.7095,-0.7095,-0.7095,-0.7095,-0.7095,-0.7095,-0.7095,-0.7095,-0.6605,-0.6561,-0.6024,-0.5176,-0.4865,-0.433,-0.3482,-0.3304,-0.3037,-0.2992,-0.2858,-0.308,-0.2769,-0.2102,0.0,0.0,0.0,0.0,0.0,0.0,0.0,0.0,0.0,0.0,0.0,0.0,0.0,0.0,0.0,0.0,0.0,0.0,0.0,0.0,0.0,0.0,0.0,0.0,0.0,0.0,0.0,0.0,0.0,0.0,0.0,0.0,0.0,0.0,0.0,0.0,0.0,0.0,0.0,0.0,0.0,0.0,0.0,0.0,0.0,0.0,0.0,0.0,0.0,0.0,0.0,0.0,-1.0826,-1.0913,-1.1986,-1.1858,-1.0956,-1.074,-1.074,-1.0692,-1.0562,-0.9836,-0.8925,-0.8057,-0.7665,-0.7492,-0.7577,-0.7404,-0.7272,-0.7139,-0.7095,-0.7095,-0.7095,-0.7095,-0.7095,-0.7095,-0.7095,-0.7095,-0.7095,-0.7095,-0.7095,-0.7095,-0.7095,-0.7095,-0.7095,-0.7095,-0.7095,-0.7095,-0.7095,-0.7095,-0.7095,-0.7095,-0.7095,-0.7095,-0.7095,-0.7095,-0.7095,-0.7095,-0.7095,-0.7007,-0.6605,-0.5805,-0.5578,-0.491,-0.3974,-0.3751,-0.3126,-0.2236,-0.1924,-0.1567,-0.121,-0.1522,-0.1879,-0.1612,0.0,0.0,0.0,0.0,0.0,0.0,0.0,0.0,0.0,0.0,0.0,0.0,0.0,0.0,0.0,0.0,0.0,0.0,0.0,0.0,0.0,0.0,0.0,0.0,0.0,0.0,0.0,0.0,0.0,0.0,0.0,0.0,0.0,0.0,0.0,0.0,0.0,0.0,0.0,0.0,0.0,0.0,0.0,0.0,0.0,0.0,0.0,0.0,0.0,0.0,0.0,0.0,0.0,-1.0178,-0.9623,-1.0053,-1.0351,-1.0567,-0.9836,-0.9536,-0.9405,-0.875,-0.8273,-0.7797,-0.7316,-0.7095,-0.7095,-0.7095,-0.7095,-0.7095,-0.7095,-0.7095,-0.7095,-0.7095,-0.7095,-0.7095,-0.7095,-0.7095,-0.7095,-0.7095,-0.7095,-0.7095,-0.7095,-0.7095,-0.7095,-0.7095,-0.7095,-0.7095,-0.7095,-0.7095,-0.7095,-0.7095,-0.7095,-0.7095,-0.7095,-0.7095,-0.7095,-0.7095,-0.7095,-0.7007,-0.6381,-0.5891,-0.5314,-0.4643,-0.3662,-0.2726,-0.2547,-0.1924,0.0,0.0,0.0,0.0,0.0,-0.0673,-0.0628,0.0,0.0,0.0,0.0,0.0,0.0,0.0,0.0,0.0,0.0,0.0,0.0,0.0,0.0,0.0,0.0,0.0,0.0,0.0,0.0,0.0,0.0,0.0,0.0,0.0,0.0,0.0,0.0,0.0,0.0,0.0,0.0,0.0,0.0,0.0,0.0,0.0,0.0,0.0,0.0,0.0,0.0,0.0,0.0,0.0,0.0,0.0,0.0,0.0,0.0,0.0,0.0,0.0,-0.9096,-0.8408,-0.8364,-0.8838,-0.9401,-0.8711,-0.8364,-0.8233,-0.7533,-0.7095,-0.7095,-0.7095,-0.7095,-0.7095,-0.7095,-0.7095,-0.7095,-0.7095,-0.7095,-0.7095,-0.7095,-0.7095,-0.7095,-0.7095,-0.7095,-0.7095,-0.7095,-0.7095,-0.7095,-0.7095,-0.7095,-0.7095,-0.7095,-0.7095,-0.7095,-0.7095,-0.7095,-0.7095,-0.7095,-0.7095,-0.7095,-0.7095,-0.7095,-0.7007,-0.6738,-0.647,-0.6157,-0.5489,-0.4599,-0.4065,-0.3395,-0.2459,-0.17,-0.1165,0.0,0.0,0.0,0.0,0.0,0.0,0.0,0.0,0.0,0.0,0.0,0.0,0.0,0.0,0.0,0.0,0.0,0.0,0.0,0.0,0.0,0.0,0.0,0.0,0.0,0.0,0.0,0.0,0.0,0.0,0.0,0.0,0.0,0.0,0.0,0.0,0.0,0.0,0.0,0.0,0.0,0.0,0.0,0.0,0.0,0.0,0.0,0.0,0.0,0.0,0.0,0.0,0.0,0.0,0.0,0.0,0.0,0.0,0.0,0.0,0.0,-0.7272,-0.7139,-0.7183,-0.7228,-0.7401,-0.7228,-0.7228,-0.7356,-0.7183,-0.7095,-0.7095,-0.7095,-0.7095,-0.7095,-0.7095,-0.7095,-0.7095,-0.7095,-0.7095,-0.7095,-0.7095,-0.7095,-0.7095,-0.7095,-0.7095,-0.7095,-0.7095,-0.7095,-0.7095,-0.7095,-0.7095,-0.7007,-0.6918,-0.6962,-0.7095,-0.7095,-0.7095,-0.7095,-0.7095,-0.6918,-0.6871,-0.6738,-0.6558,-0.6337,-0.5802,-0.5398,-0.5176,-0.4239,-0.335,-0.2638,-0.2148,-0.1344,-0.0494,0.0,0.0,0.0,0.0,0.0,0.0,0.0,0.0,0.0,0.0,0.0,0.0,0.0,0.0,0.0,0.0,0.0,0.0,0.0,0.0,0.0,0.0,0.0,0.0,0.0,0.0,0.0,0.0,0.0,0.0,0.0,0.0,0.0,0.0,0.0,0.0,0.0,0.0,0.0,0.0,0.0,0.0,0.0,0.0,0.0,0.0,0.0,0.0,0.0,0.0,0.0,0.0,0.0,0.0,0.0,0.0,0.0,0.0,0.0,0.0,0.0,0.0,-0.7095,-0.7095,-0.7095,-0.7095,-0.7095,-0.7095,-0.7095,-0.7095,-0.7095,-0.7095,-0.7095,-0.7095,-0.7095,-0.7095,-0.7095,-0.7095,-0.7095,-0.7095,-0.7095,-0.7095,-0.7095,-0.7095,-0.7095,-0.7095,-0.7095,-0.7095,-0.7095,-0.7095,-0.7095,-0.7007,-0.7051,-0.7007,-0.6293,-0.6428,-0.6918,-0.7095,-0.7095,-0.6962,-0.6473,-0.5938,-0.5847,-0.5309,-0.4905,-0.4907,-0.4461,-0.4194,-0.4105,-0.3037,-0.2147,-0.1612,-0.121,0.0,0.0,0.0,0.0,0.0,0.0,0.0,0.0,0.0,0.0,0.0,0.0,0.0,0.0,0.0,0.0,0.0,0.0,0.0,0.0,0.0,0.0,0.0,0.0,0.0,0.0,0.0,0.0,0.0,0.0,0.0,0.0,0.0,0.0,0.114,0.1275,0.1266,0.0,0.0,0.0,0.0,0.0,0.0,0.2325,0.1844,0.175,0.0,0.0,0.0,0.0,0.1968,0.0,0.0,0.0,0.2369,0.1968,0.1745,0.2235,0.0,0.1344,0.0583,0.0,0.0,0.0,-0.7095,-0.7095,-0.7095,-0.7095,-0.7095,-0.7095,-0.7095,-0.7095,-0.7095,-0.7095,-0.7095,-0.7095,-0.7095,-0.7095,-0.7095,-0.7095,-0.7095,-0.7095,-0.7095,-0.7095,-0.7095,-0.7095,-0.7095,-0.7095,-0.7095,-0.7095,-0.7054,-0.701,-0.6425,-0.647,-0.6157,-0.562,-0.5176,-0.5174,-0.5575,-0.5708,-0.5708,-0.544,-0.4996,-0.4774,-0.4596,-0.4194,-0.3748,-0.3616,-0.3304,-0.2994,-0.2637,-0.2013,0.0,0.0,0.0,0.0,0.0,0.0,0.0,0.0,0.0,0.0,0.0,0.0,0.0,0.0,0.0,0.0,0.0,0.0,0.0,0.0,0.0,0.0,0.0,0.0,0.0,0.0,0.0,0.0,0.0,0.0,0.0,0.0,0.0,0.0,0.0,0.0,0.0,0.1904,0.2677,0.266,0.2691,0.3408,0.4036,0.3993,0.3857,0.3554,0.3412,0.3219,0.3249,0.353,0.3758,0.3995,0.3481,0.2903,0.3347,0.3614,0.3349,0.3215,0.3393,0.3481,0.3481,0.317,0.2458,0.179,0.1299,0.1076,0.0897,-0.7095,-0.7095,-0.7095,-0.7095,-0.7095,-0.7095,-0.7095,-0.7095,-0.7095,-0.7095,-0.7095,-0.7095,-0.7095,-0.7095,-0.7095,-0.7095,-0.7095,-0.7095,-0.7095,-0.7095,-0.7095,-0.7095,-0.7095,-0.7095,-0.6918,-0.6962,-0.6786,-0.616,-0.5447,-0.5312,-0.4774,-0.3927,-0.366,-0.3571,-0.3571,-0.3482,-0.3703,-0.397,-0.3794,-0.3616,-0.3439,-0.3215,-0.2858,-0.2592,-0.2236,-0.1835,-0.1433,-0.0852,0.0,0.0,0.0,0.0,0.0,0.0,0.0,0.0,0.0,0.0,0.0,0.0,0.0,0.0,0.0,0.0,0.0,0.0,0.0,0.0,0.0,0.0,0.0,0.0,0.0,0.0,0.0,0.0,0.0,0.0,0.0,0.0,0.0,0.0,0.0,0.0,0.2332,0.3235,0.4036,0.4577,0.4594,0.4493,0.5002,0.4953,0.472,0.4392,0.4374,0.466,0.478,0.512,0.472,0.472,0.4234,0.4164,0.4614,0.4703,0.4109,0.4059,0.4639,0.455,0.4194,0.3838,0.3883,0.317,0.2726,0.2726,0.2637,-0.7095,-0.7095,-0.7095,-0.7095,-0.7095,-0.7095,-0.7095,-0.7095,-0.7095,-0.7095,-0.7095,-0.7095,-0.7095,-0.7095,-0.7095,-0.7095,-0.7095,-0.7095,-0.7095,-0.7095,-0.7095,-0.7095,-0.7051,-0.6962,-0.6605,-0.6115,-0.5714,-0.5265,-0.4328,-0.4105,-0.3439,-0.2503,-0.2325,-0.1924,-0.1478,0.0,-0.2147,-0.2815,-0.2592,-0.2415,-0.2058,-0.17,0.0,0.0,0.0,0.0,0.0,0.0,0.0,0.0,0.0,0.0,0.0,0.0,0.0,0.0,0.0,0.0,0.0,0.0,0.0,0.0,0.0,0.0,0.0,0.0,0.0,0.0,0.0,0.0,0.0,0.0,0.0,0.0,0.0,0.0,0.0547,0.1056,0.125,0.1548,0.1746,0.2136,0.2351,0.2898,0.3736,0.4623,0.5419,0.5981,0.6317,0.6136,0.6048,0.5997,0.6026,0.5823,0.6214,0.654,0.6572,0.6551,0.6078,0.5847,0.6005,0.6017,0.6152,0.595,0.5542,0.5738,0.6198,0.5888,0.5351,0.5888,0.5977,0.4996,0.4283,0.4239,0.4105,-0.7095,-0.7095,-0.7095,-0.7095,-0.7095,-0.7095,-0.7095,-0.7095,-0.7095,-0.7095,-0.7095,-0.7095,-0.7095,-0.7095,-0.7095,-0.7095,-0.7095,-0.7095,-0.7095,-0.7095,-0.7051,-0.6694,-0.6605,-0.6337,-0.5667,-0.5087,-0.4508,-0.4061,-0.3081,-0.2281,-0.1612,-0.121,0.0,0.0,0.0,0.0,0.0,-0.1389,-0.1478,0.0,0.0,0.0,0.0,0.0,0.0,0.0,0.0,0.0,0.0,0.0,0.0,0.0,0.0,0.0,0.0,0.0,0.0,0.0,0.0,0.0,0.0,0.0,0.0,0.0,0.0,0.0,0.0,0.0,0.0,0.0,0.0,0.0,0.0,0.0,0.0,0.0,0.1433,0.2144,0.2503,0.2829,0.3189,0.3594,0.4009,0.4526,0.4942,0.5593,0.6248,0.6961,0.7257,0.7257,0.7222,0.7164,0.733,0.7398,0.7733,0.7678,0.7455,0.7227,0.7119,0.7074,0.7468,0.7352,0.6948,0.6985,0.7066,0.7085,0.6975,0.6982,0.6738,0.7105,0.7112,0.6296,0.5622,0.562,0.5442,-0.7095,-0.7095,-0.7095,-0.7095,-0.7095,-0.7095,-0.7095,-0.7095,-0.7095,-0.7095,-0.7095,-0.7095,-0.7095,-0.7095,-0.7095,-0.7095,-0.7095,-0.7095,-0.6874,-0.6962,-0.6741,-0.6248,-0.5445,-0.5179,-0.4508,-0.3837,-0.326,-0.286,-0.1701,0.0,0.0,0.0,0.0,0.0,0.0,0.0,0.0,0.0,0.0,0.0,0.0,0.0,0.0,0.0,0.0,0.0,0.0,0.0,0.0,0.0,0.0,0.0,0.0,0.0,0.0,0.0,0.0,0.0,0.0,0.0,0.0,0.0,0.0,0.0,0.0,0.0,0.0,0.0,0.0,0.0,0.0,0.0,0.0,0.0,0.0,0.1687,0.2415,0.3299,0.4257,0.4602,0.5018,0.534,0.5447,0.5877,0.6174,0.6559,0.6921,0.7736,0.7879,0.7948,0.7938,0.7928,0.7894,0.785,0.7823,0.7818,0.777,0.7675,0.7682,0.7638,0.7621,0.7607,0.759,0.7506,0.7421,0.7404,0.7328,0.7316,0.7255,0.7207,0.7156,0.7122,0.6928,0.6707,0.6514,-0.7095,-0.7095,-0.7095,-0.7095,-0.7095,-0.7095,-0.7095,-0.7095,-0.7095,-0.7095,-0.7095,-0.7095,-0.7095,-0.7095,-0.7095,-0.7095,-0.7095,-0.6874,-0.6517,-0.6071,-0.5849,-0.5132,-0.4239,-0.3972,-0.3304,-0.2592,-0.2057,0.0,0.0,0.0,0.0,0.0,0.0,0.0,0.0,0.0,0.0,0.0,0.0,0.0,0.0,0.0,0.0,0.0,0.0,0.0,0.0,0.0,0.0,0.0,0.0,0.0,0.0,0.0,0.0,0.0,0.0,0.0,0.0,0.0,0.0,0.0,0.0,0.0,0.0,0.0,0.0,0.0,0.0,0.0,0.0,0.0,0.0416,0.1123,0.1986,0.2729,0.3491,0.4655,0.5896,0.6325,0.6758,0.6869,0.6877,0.708,0.7437,0.7587,0.7683,0.7939,0.7939,0.7971,0.7968,0.7961,0.7968,0.7941,0.7921,0.7897,0.7892,0.7899,0.7837,0.7834,0.7773,0.7736,0.7699,0.7621,0.7553,0.7546,0.7539,0.7529,0.7461,0.7356,0.7309,0.7253,0.7176,0.6971,0.703,-0.7095,-0.7095,-0.7095,-0.7095,-0.7095,-0.7095,-0.7095,-0.7095,-0.7095,-0.7095,-0.7095,-0.7095,-0.7095,-0.7095,-0.7095,-0.6962,-0.6871,-0.6517,-0.6071,-0.5492,-0.4599,-0.3838,-0.3258,-0.2769,-0.1969,-0.1299,-0.1031,0.0,0.0,0.0,0.0,0.0,0.0,0.0,0.0,0.0,0.0,0.0,0.0,0.0,0.0,0.0,0.0,0.0,0.0,0.0,0.0,0.0,0.0,0.0,0.0,0.0,0.0,0.0,0.0,0.0,0.0,0.0,0.0,0.0,0.0,0.0,0.0,0.0,0.0,0.0,0.0,0.0,0.0,0.0,0.0,0.0,0.1042,0.1724,0.3418,0.4758,0.5552,0.6509,0.7093,0.7254,0.7528,0.7528,0.7534,0.7534,0.7789,0.7789,0.7988,0.7988,0.7988,0.7988,0.7988,0.7988,0.7988,0.7988,0.7965,0.7958,0.7951,0.7975,0.7988,0.7934,0.7899,0.7851,0.7801,0.7763,0.7729,0.7695,0.7692,0.7678,0.7607,0.7495,0.7465,0.7451,0.736,0.7272,0.7261,-0.7095,-0.7095,-0.7095,-0.7095,-0.7095,-0.7095,-0.7095,-0.7095,-0.7095,-0.6962,-0.6782,-0.6782,-0.6915,-0.6871,-0.6647,-0.6647,-0.6334,-0.5487,-0.5132,-0.4465,-0.3751,-0.2681,-0.1969,-0.1522,-0.0897,0.0,0.0,0.0,0.0,0.0,0.0,0.0,0.0,0.0,0.0,0.0,0.0,0.0,0.0,0.0,0.0,0.0,0.0,0.0,0.0,0.0,0.0,0.0,0.0,0.0,0.0,0.0,0.0,0.0,0.0,0.0,0.0,0.0,0.0,0.0,0.0,0.0,0.0,0.0,0.0,0.0,0.0,0.0,0.0,0.0,0.0,0.1101,0.1692,0.2733,0.4657,0.6249,0.7063,0.7633,0.7683,0.7786,0.7988,0.7988,0.7988,0.7988,0.7988,0.7988,0.7988,0.7988,0.7988,0.7988,0.7988,0.7988,0.7988,0.7988,0.7988,0.7988,0.7988,0.7988,0.7988,0.7988,0.7971,0.7907,0.7884,0.7963,0.7926,0.7858,0.7818,0.7797,0.7712,0.7634,0.7621,0.7597,0.7512,0.7438,0.7411,-0.7095,-0.7095,-0.7095,-0.7095,-0.7095,-0.7095,-0.7095,-0.7095,-0.7051,-0.665,-0.5938,-0.5714,-0.5714,-0.5625,-0.4641,-0.4461,-0.4772,-0.4105,-0.3261,-0.2459,-0.2325,-0.1433,0.0,0.0,0.0,0.0,0.0,0.0,0.0,0.0,0.0,0.0,0.0,0.0,0.0,0.0,0.0,0.0,0.0,0.0,0.0,0.0,0.0,0.0,0.0,0.0,0.0,0.0,0.0,0.0,0.0,0.0,0.0,0.0,0.0,0.0,0.0,0.0,0.0,0.0,0.0,0.0,0.0,0.0,0.0,0.0,0.0,0.0,0.0,0.0,0.1017,0.1653,0.2352,0.391,0.5683,0.6484,0.727,0.7083,0.688,0.7434,0.7988,0.7988,0.7988,0.7988,0.7988,0.7988,0.7988,0.7988,0.7988,0.7988,0.7988,0.7988,0.7988,0.7988,0.7988,0.7988,0.7988,0.7988,0.7988,0.7988,0.7988,0.7988,0.7982,0.7975,0.7978,0.7931,0.7901,0.7899,0.7865,0.7801,0.778,0.7743,0.7662,0.7597,0.7563]},{"header":{"parameterUnit":"m.s-1","parameterCategory":1,"la1":31.0,"la2":29.5877,"lo1":-88.7671,"lo2":-86.6584,"dy":0.0162,"dx":0.0185,"nx":115,"ny":88,"refTime":"2023-07-23T18:00:00:Z","depth":0,"parameterNumber":3,"parameterNumberName":"V-component_of_WINDS"},"data":[0.0,0.0,0.0,0.0,0.0,0.0,0.0,0.0,0.0,0.0,0.0,0.0,0.0,0.0,0.0,0.0,0.0,0.0,0.0,0.0,0.0,0.0,0.0,0.0,0.0,0.0,0.0,0.0,0.0,0.0,0.0,0.0,0.0,0.0,0.0,0.0,0.0,0.0,0.0,0.0,0.0,0.0,0.0,0.0,0.0,0.0,0.0,0.0,0.0,0.0,0.0,0.0,0.0,0.0,0.0,0.0,0.0,0.0,0.0,0.0,0.0,0.0,0.0,0.0,0.0,0.0,0.0,0.0,0.0,0.0,0.0,0.0,0.0,0.0,0.0,0.0,0.0,0.0,0.0,0.0,0.0,0.0,0.0,0.0,0.0,0.0,0.0,0.0,0.0,0.0,0.0,0.0,0.0,0.0,0.0,0.0,0.0,0.0,0.0,0.0,0.0,0.0,0.0,0.0,0.0,0.0,0.0,0.0,0.0,0.0,0.0,0.0,0.0,0.0,0.0,0.0,0.0,0.0,0.0,0.0,0.0,0.0,0.0,0.0,0.0,0.0,0.0,0.0,0.0,0.0,0.0,0.0,0.0,0.0,0.0,0.0,0.0,0.0,0.0,0.0,0.0,0.0,0.0,0.0,0.0,0.0,0.0,0.0,0.0,0.0,0.0,0.0,0.0,0.0,0.0,0.0,0.0,0.0,0.0,0.0,0.0,0.0,0.0,0.0,0.0,0.0,0.0,0.0,0.0,0.0,0.0,0.0,0.0,0.0,0.0,0.0,0.0,0.0,0.0,0.0,0.0,0.0,0.0,0.0,0.0,0.0,0.0,0.0,0.0,0.0,0.0,0.0,0.0,0.0,0.0,0.0,0.0,0.0,0.0,0.0,0.0,0.0,0.0,0.0,0.0,0.0,0.0,0.0,0.0,0.0,0.0,0.0,0.0,0.0,0.0,0.0,0.0,0.0,0.0,0.0,0.0,0.0,0.0,0.0,0.0,0.0,0.0,0.0,0.0,0.0,0.0,0.0,0.0,0.0,0.0,0.0,0.0,0.0,0.0,0.0,0.0,0.0,0.0,0.0,0.0,0.0,0.0,0.0,0.0,0.0,0.0,0.0,0.0,0.0,0.0,0.0,0.0,0.0,0.0,0.0,0.0,0.0,0.0,0.0,0.0,0.0,0.0,0.0,0.0,0.0,0.0,0.0,0.0,0.0,0.0,0.0,0.0,0.0,0.0,0.0,0.0,0.0,0.0,0.0,0.0,0.0,0.0,0.0,0.0,0.0,0.0,0.0,0.0,0.0,0.0,0.0,0.0,0.0,0.0,0.0,0.0,0.0,0.0,0.0,0.0,0.0,0.0,0.0,0.0,0.0,0.0,0.0,0.0,0.0,0.0,0.0,0.0,0.0,0.0,0.0,0.0,0.0,0.0,0.0,0.0,0.0,0.0,0.0,0.0,0.0,0.0,0.0,0.0,0.0,0.0,0.0,0.0,0.0,0.0,0.0,0.0,0.0,0.0,0.0,0.0,0.0,0.0,0.0,0.0,0.0,0.0,0.0,0.0,0.0,0.0,0.0,0.0,0.0,0.0,0.0,0.0,0.0,0.0,0.0,0.0,0.0,0.0,0.0,0.0,0.0,0.0,0.0,0.0,0.0,0.0,0.0,0.0,0.0,0.0,0.0,0.0,0.0,0.0,0.0,0.0,0.0,0.0,0.0,0.0,0.0,0.0,0.0,0.0,0.0,0.0,0.0,0.0,0.0,0.0,0.0,0.0,0.0,0.0,0.0,0.0,0.0,0.0,0.0,0.0,0.0,0.0,0.0,0.0,0.0,0.0,0.0,0.0,0.0,0.0,0.0,0.0,0.0,0.0,0.0,0.0,0.0,0.0,0.0,0.0,0.0,0.0,0.0,0.0,0.0,0.0,0.0,0.0,0.0,0.0,0.0,0.0,0.0,0.0,0.0,0.0,0.0,0.0,0.0,0.0,0.0,0.0,0.0,0.0,0.0,0.0,0.0,0.0,0.0,0.0,0.0,0.0,0.0,0.0,0.0,0.0,0.0,0.0,0.0,0.0,0.0,0.0,0.0,0.0,0.0,0.0,0.0,0.0,0.0,0.0,0.0,0.0,0.0,0.0,0.0,0.0,0.0,0.0,0.0,0.0,0.0,0.0,0.0,0.0,0.0,0.0,0.0,0.0,0.0,0.0,0.0,0.0,0.0,0.0,0.0,0.0,0.0,0.0,0.0,0.0,0.0,0.0,0.0,0.0,0.0,0.0,0.0,0.0,0.0,0.0,0.0,0.0,0.0,0.0,0.0,0.0,0.0,0.0,0.0,0.0,0.0,0.0,0.0,0.0,0.0,0.0,0.0,0.0,0.0,0.0,0.0,0.0,0.0,0.0,0.0,0.0,0.0,0.0,0.0,0.0,0.0,0.0,0.0,0.0,0.0,0.0,0.0,0.0,0.0,0.0,0.0,0.0,0.0,0.0,0.0,0.0,0.0,0.0,0.0,0.0,0.0,0.0,0.0,0.0,0.0,0.0,0.0,0.0,0.0,0.0,0.0,0.0,0.0,0.0,0.0,0.0,0.0,0.0,0.0,0.0,0.0,0.0,0.0,0.0,0.0,0.0,0.0,0.0,0.0,0.0,0.0,0.0,0.0,0.0,0.0,0.0,0.0,0.0,0.0,0.0,0.0,0.0,0.0,0.0,0.0,0.0,0.0,0.0,0.0,0.0,0.0,0.0,0.0,0.0,0.0,0.0,0.0,0.0,0.0,0.0,0.0,0.0,0.0,0.0,0.0,0.0,0.0,0.0,0.0,0.0,0.0,0.0,0.0,0.0,0.0,0.0,0.0,0.0,0.0,0.0,0.0,0.0,0.0,0.0,0.0,0.0,0.0,0.0,0.0,0.0,0.0,0.0,0.0,0.0,0.0,0.0,0.0,0.0,0.0,0.0,0.0,0.0,0.0,0.0,0.0,0.0,0.0,0.0,0.0,0.0,0.0,0.0,0.0,0.0,0.0,0.0,0.0,0.0,0.0,0.0,0.0,0.0,0.0,0.0,0.0,0.0,0.0,0.0,0.0,0.0,0.0,0.0,0.0,0.0,0.0,0.0,0.0,0.0,0.0,0.0,0.0,0.0,0.0,0.0,0.0,0.0,0.0,0.0,0.0,0.0,0.0,0.0,0.0,0.0,0.0,0.0,0.0,0.0,0.0,0.0,0.0,0.0,0.0,0.0,0.0,0.0,0.0,0.0,0.0,0.0,0.0,0.0,0.0,0.0,0.0,0.0,0.0,0.0,0.0,0.0,0.0,0.0,0.0,0.0,0.0,0.0,0.0,0.0,0.0,0.0,0.0,0.0,0.0,0.0,0.0,0.0,0.0,0.0,0.0,0.0,0.0,0.0,0.0,0.0,0.0,0.0,0.0,0.0,0.0,0.0,0.0,0.0,0.0,0.0,0.0,0.0,0.0,0.0,0.0,0.0,0.0,0.0,0.0,0.0,0.0,0.0,0.0,0.0,0.0,0.0,0.0,0.0,0.0,0.0,0.0,0.0,0.0,0.0,0.0,0.0,0.0,0.0,0.0,0.0,0.0,0.0,0.0,0.0,0.0,0.0,0.0,0.0,0.0,0.0,0.0,0.0,0.0,0.0,0.0,0.0,0.0,0.0,0.0,0.0,0.0,0.0,0.0,0.0,0.0,0.0,0.0,0.0,0.0,0.0,0.0,0.0,0.0,0.0,0.0,0.0,0.0,0.0,0.0,0.0,0.0,0.0,0.0,0.0,0.0,0.0,0.0,0.0,0.0,0.0,0.0,0.0,0.0,0.0,0.0,0.0,0.0,0.0,0.0,0.0,0.0,0.0,0.0,0.0,0.0,0.0,0.0,0.0,0.0,0.0,0.0,0.0,0.0,0.0,0.0,0.0,0.0,0.0,0.0,0.0,0.0,0.0,0.0,0.0,0.0,0.0,0.0,0.0,0.0,0.0,0.0,0.0,0.0,0.0,0.0,0.0,0.0,0.0,0.0,0.0,0.0,0.0,0.0,0.0,0.0,0.0,0.0,0.0,0.0,0.0,0.0,0.0,0.0,0.0,0.0,0.0,0.0,0.0,0.0,0.0,0.0,0.0,0.0,0.0,0.0,0.0,0.0,0.0,0.0,0.0,0.0,0.0,0.0,0.0,0.0,0.0,0.0,0.0,0.0,0.0,0.0,0.0,0.0,0.0,0.0,0.0,0.0,0.0,0.0,0.0,0.0,0.0,0.0,1.2305,0.0,0.0,0.0,0.0,0.0,0.0,0.0,0.0,0.0,0.0,0.0,0.0,0.0,0.0,0.0,0.0,0.0,0.0,0.0,0.0,0.0,0.0,0.0,0.0,0.0,0.0,0.0,0.0,0.0,0.0,0.0,0.0,0.0,0.0,0.0,0.0,0.0,0.0,0.0,0.0,0.0,0.0,0.0,0.0,0.0,0.0,0.0,0.0,0.0,0.0,0.0,0.0,0.0,0.0,0.0,0.0,0.0,0.0,0.0,0.0,0.0,0.0,0.0,0.0,0.0,0.0,0.0,0.0,0.0,0.0,0.0,0.0,0.0,0.0,0.0,0.0,0.0,0.0,0.0,0.0,0.0,0.0,0.0,0.0,0.0,0.0,0.0,0.0,0.0,0.0,0.0,0.0,0.0,0.0,0.0,0.0,0.0,0.0,0.0,0.0,0.0,0.0,0.0,0.0,0.0,0.0,0.0,0.0,0.0,0.0,1.2305,1.2305,1.2305,1.2305,1.2305,0.0,0.0,0.0,0.0,0.0,0.0,0.0,0.0,0.0,0.0,0.0,0.0,0.0,0.0,0.0,0.0,0.0,0.0,0.0,0.0,0.0,0.0,0.0,0.0,0.0,0.0,0.0,0.0,0.0,0.0,0.0,0.0,0.0,0.0,0.0,0.0,0.0,0.0,0.0,0.0,0.0,0.0,0.0,0.0,0.0,0.0,0.0,0.0,0.0,0.0,0.0,0.0,0.0,0.0,0.0,0.0,0.0,0.0,0.0,0.0,0.0,0.0,0.0,0.0,0.0,0.0,0.0,0.0,0.0,0.0,0.0,0.0,0.0,0.0,0.0,0.0,0.0,0.0,0.0,0.0,0.0,0.0,0.0,0.0,0.0,0.0,0.0,0.0,0.0,0.0,0.0,0.0,0.0,0.0,0.0,0.0,0.0,0.0,0.0,0.0,0.0,0.0,0.0,0.0,0.0,0.0,0.0,0.0,0.0,0.0,0.0,0.0,1.2305,1.2187,1.1959,0.0,0.0,0.0,0.0,0.0,0.0,0.0,0.0,0.0,0.0,0.0,0.0,0.0,0.0,0.0,0.0,0.0,0.0,0.0,0.0,0.0,0.0,0.0,0.0,0.0,0.0,0.0,0.0,0.0,0.0,0.0,0.0,0.0,0.0,0.0,0.0,0.0,0.0,0.0,0.0,0.0,0.0,0.0,0.0,0.0,0.0,0.0,0.0,0.0,0.0,0.0,0.0,0.0,0.0,0.0,0.0,0.0,0.0,0.0,0.0,0.0,0.0,0.0,0.0,0.0,0.0,0.0,0.0,0.0,0.0,0.0,0.0,0.0,0.0,0.0,0.0,0.0,0.0,0.0,0.0,0.0,0.0,0.0,0.0,0.0,0.0,0.0,0.0,0.0,0.0,0.0,0.0,0.0,0.0,0.0,0.0,0.0,0.0,0.0,0.0,0.0,0.0,0.0,0.0,0.0,0.0,0.0,0.0,0.0,0.0,1.2305,1.2305,1.2268,0.0,1.0975,0.0,0.0,0.0,0.0,0.0,0.0,0.0,0.0,0.0,0.0,0.0,0.0,0.0,0.0,0.0,0.0,0.0,0.0,0.0,0.0,0.0,0.0,0.0,0.0,0.0,0.0,0.0,0.0,0.0,0.0,0.0,0.0,0.0,0.0,0.0,0.0,0.0,0.0,0.0,0.0,0.0,0.0,0.0,0.0,0.0,0.0,0.0,0.0,0.0,0.0,0.0,0.0,0.0,0.0,0.0,0.0,0.0,0.0,0.0,0.0,0.0,0.0,0.0,0.0,0.0,0.0,0.0,0.0,0.0,0.0,0.0,0.0,0.0,0.0,0.0,0.0,0.0,0.0,0.0,0.0,0.0,0.0,0.0,0.0,0.0,0.0,0.0,0.0,0.0,0.0,0.0,0.0,0.0,0.0,0.0,0.0,0.0,0.0,0.0,0.0,0.0,0.0,0.0,0.0,0.0,0.0,0.0,0.0,0.0,0.0,1.113,1.0533,1.0539,1.0308,0.0,0.0,0.0,0.0,0.0,0.0,0.0,0.0,0.0,0.0,0.0,0.0,0.0,0.0,0.0,0.0,0.0,0.0,0.0,0.0,0.0,0.0,0.0,0.0,0.0,0.0,0.0,0.0,0.0,0.0,0.0,0.0,0.0,0.0,0.0,0.0,0.0,0.0,0.0,0.0,0.0,0.0,0.0,0.0,0.0,0.0,0.0,0.0,0.0,0.0,0.0,0.0,0.0,0.0,0.0,0.0,0.0,0.0,0.0,0.0,0.0,0.0,0.0,0.0,0.0,0.0,0.0,0.0,0.0,0.0,0.0,0.0,0.0,0.0,0.0,0.0,0.0,0.0,0.0,0.0,0.0,0.0,0.0,0.0,0.0,0.0,0.0,0.0,0.0,0.0,0.0,0.0,0.0,0.0,0.0,0.0,0.0,0.0,0.0,0.0,0.0,0.0,0.0,0.0,0.0,0.0,0.0,0.0,0.0,0.0,1.0789,1.034,0.9334,0.9036,0.8879,0.8879,0.0,0.0,0.0,0.0,0.0,0.0,0.0,0.0,0.0,0.0,0.0,0.0,0.0,0.0,0.0,0.0,0.0,0.0,0.0,0.0,0.0,0.0,0.0,0.0,0.0,0.0,0.0,0.0,0.0,0.0,0.0,0.0,0.0,0.0,0.0,0.0,0.0,0.0,0.0,0.0,0.0,0.0,0.0,0.0,0.0,0.0,0.0,0.0,0.0,0.0,0.0,0.0,0.0,0.0,0.0,0.0,0.0,0.0,0.0,0.0,0.0,0.0,0.0,0.0,0.0,0.0,0.0,0.0,0.0,0.0,0.0,0.0,0.0,0.0,0.0,0.0,0.0,0.0,0.0,0.0,0.0,0.0,0.0,0.0,0.0,0.0,0.0,0.0,0.0,0.0,0.0,0.0,0.0,0.0,0.0,0.0,0.0,0.0,0.0,0.0,0.0,0.0,0.0,0.0,0.0,0.0,0.0,0.0,1.0826,1.0746,1.0297,0.9258,0.8351,0.7859,0.0,0.0,0.0,0.0,0.0,0.0,0.0,0.0,0.0,0.0,0.0,0.0,0.0,0.0,0.0,0.0,0.0,0.0,0.0,0.0,0.0,0.0,0.0,0.0,0.0,0.0,0.0,0.0,0.0,0.0,0.0,0.0,0.0,0.0,0.0,0.0,0.0,0.0,0.0,0.0,0.0,0.0,0.0,0.0,0.0,0.0,0.0,0.0,0.0,0.0,0.0,0.0,0.0,0.0,0.0,0.0,0.0,0.0,0.0,0.0,0.0,0.0,0.0,0.0,0.0,0.0,0.0,0.0,0.0,0.0,0.0,0.0,0.0,0.0,0.0,0.0,0.0,0.0,0.0,0.0,0.0,0.0,0.0,0.0,0.0,0.0,0.0,0.0,0.0,0.0,0.0,0.0,0.0,0.0,0.0,0.0,0.0,0.0,0.0,0.0,0.0,0.0,0.0,0.0,0.0,0.0,0.0,0.0,0.0,0.989,0.8604,0.774,0.7365,0.7022,0.6834,0.0,0.0,0.0,0.0,0.0,0.0,0.0,0.0,0.0,0.0,0.0,0.0,0.0,0.0,0.0,0.0,0.0,0.0,0.0,0.0,0.0,0.0,0.0,0.0,0.0,0.0,0.0,0.0,0.0,0.0,0.0,0.0,0.0,0.0,0.0,0.0,0.0,0.0,0.0,0.0,0.0,0.0,0.0,0.0,0.0,0.0,0.0,0.0,0.0,0.0,0.0,0.0,0.0,0.0,0.0,0.0,0.0,0.0,0.0,0.0,0.0,0.0,0.0,0.0,0.0,0.0,0.0,0.0,0.0,0.0,0.0,0.0,0.0,0.0,0.0,0.0,0.0,0.0,0.0,0.0,0.0,0.0,0.0,0.0,0.0,0.0,0.0,0.0,0.0,0.0,0.0,0.0,0.0,0.0,0.0,0.0,0.0,0.0,0.0,0.0,0.0,0.0,0.0,0.0,0.0,0.0,0.0,0.0,0.0,0.9339,0.0,0.63,0.63,0.63,0.63,0.0,0.0,0.0,0.0,0.0,0.0,0.0,0.0,0.0,0.0,0.0,0.0,0.0,0.0,0.0,0.0,0.0,0.0,0.0,0.0,0.0,0.0,0.0,0.0,0.0,0.0,0.0,0.0,0.0,0.0,0.0,0.0,0.0,0.0,0.0,0.0,0.0,0.0,0.0,0.0,0.0,0.0,0.0,0.0,0.0,0.0,0.0,0.0,0.0,0.0,0.0,0.0,0.0,0.0,0.0,0.0,0.0,0.0,0.0,0.0,0.0,0.0,0.0,0.0,0.0,0.0,0.0,0.0,0.0,0.0,0.0,0.0,0.0,0.0,0.0,0.0,0.0,0.0,0.0,0.0,0.0,0.0,0.0,0.0,0.0,0.0,0.0,0.0,0.0,0.0,0.0,0.0,0.0,0.0,0.0,0.0,0.0,0.0,0.0,0.0,0.0,0.0,0.0,0.0,0.0,0.0,0.0,0.0,1.1285,0.9296,0.733,0.63,0.63,0.63,0.63,0.0,0.0,0.0,0.0,0.0,0.0,0.0,0.0,0.0,0.0,0.0,0.0,0.0,0.0,0.0,0.0,0.0,0.0,0.0,0.0,0.0,0.0,0.0,0.0,0.0,0.0,0.0,0.0,0.0,0.0,0.0,0.0,0.0,0.0,0.0,0.0,0.0,0.0,0.0,0.0,0.0,0.0,0.0,0.0,0.0,0.0,0.0,0.0,0.0,0.0,0.0,0.0,0.0,0.0,0.0,0.0,0.0,0.0,0.0,0.0,0.0,0.0,0.0,0.0,0.0,0.0,0.0,0.0,0.0,0.0,0.0,0.0,0.0,0.0,0.0,0.0,0.0,0.0,0.0,0.0,0.0,0.0,0.0,0.0,0.0,0.0,0.0,0.0,0.0,0.0,0.0,0.0,0.0,0.0,0.0,0.0,0.0,0.0,0.0,0.0,0.0,0.0,0.0,0.0,0.0,0.0,0.0,0.0,0.0,0.8275,0.6984,0.63,0.63,0.63,0.5944,0.0,0.0,0.0,0.0,0.0,0.0,0.0,0.0,0.0,0.0,0.0,0.0,0.0,0.0,0.0,0.0,0.0,0.0,0.0,0.0,0.0,0.0,0.0,0.0,0.0,0.0,0.0,0.0,0.0,0.0,0.0,0.0,0.0,0.0,0.0,0.0,0.0,0.0,0.0,0.0,0.0,0.0,0.0,0.0,0.0,0.0,0.0,0.0,0.0,0.0,0.0,0.0,0.0,0.0,0.0,0.0,0.0,0.0,0.0,0.0,0.0,0.0,0.0,0.0,0.0,0.0,0.0,0.0,0.0,0.0,0.0,0.0,0.0,0.0,0.0,0.0,0.0,0.0,0.0,0.0,0.0,0.0,0.0,0.0,0.0,0.0,0.0,0.0,0.0,0.0,0.0,0.0,0.0,0.0,0.0,0.0,0.0,0.0,0.0,0.0,0.0,0.0,0.0,0.0,0.0,0.0,0.0,0.0,0.0,0.7288,0.6606,0.63,0.63,0.5906,0.5392,0.4724,0.0,0.0,0.0,0.0,0.0,0.0,0.0,0.0,0.0,0.0,0.0,0.0,0.0,0.0,0.0,0.0,0.0,0.0,0.0,0.0,0.0,0.0,0.0,0.0,0.0,0.0,0.0,0.0,0.0,0.0,0.0,0.0,0.0,0.0,0.0,0.0,0.0,0.0,0.0,0.0,0.0,0.0,0.0,0.0,0.0,0.0,0.0,0.0,0.0,0.0,0.0,0.0,0.0,0.0,0.0,0.0,0.0,0.0,0.0,0.0,0.0,0.0,0.0,0.0,0.0,0.0,0.0,0.0,0.0,0.0,0.0,0.0,0.0,0.0,0.0,0.0,0.0,0.0,0.0,0.0,0.0,0.0,0.0,0.0,0.0,0.0,0.0,0.0,0.0,0.0,0.0,0.0,0.0,0.0,0.0,0.0,0.0,0.0,0.0,0.0,0.0,0.0,0.0,0.0,0.0,0.0,0.0,0.0,0.6338,0.6219,0.6219,0.63,0.5196,0.4611,0.0,0.0,0.0,0.0,0.0,0.0,0.0,0.0,0.0,0.0,0.0,0.0,0.0,0.0,0.0,0.0,0.0,0.0,0.0,0.0,0.0,0.0,0.0,0.0,0.0,0.0,0.0,0.0,0.0,0.0,0.0,0.0,0.0,0.0,0.0,0.0,0.0,0.0,0.0,0.0,0.0,0.0,0.0,0.0,0.0,0.0,0.0,0.0,0.0,0.0,0.0,0.0,0.0,0.0,0.0,0.0,0.0,0.0,0.0,0.0,0.0,0.0,0.0,0.0,0.0,0.0,0.0,0.0,0.0,0.0,0.0,0.0,0.0,0.0,0.0,0.0,0.0,0.0,0.0,0.0,0.0,0.0,0.0,0.0,0.0,0.0,0.0,0.0,0.0,0.0,0.0,0.0,0.0,0.0,0.0,0.0,0.0,0.0,0.0,0.0,0.0,0.0,0.0,0.0,0.0,0.0,0.0,0.0,0.0,0.6374,0.5512,0.5512,0.6219,0.4491,0.3515,0.0,0.0,0.0,0.0,0.0,0.0,0.0,0.0,0.0,0.0,0.0,0.0,0.0,0.0,0.0,0.0,0.0,0.0,0.0,0.0,0.0,0.0,0.0,0.0,0.0,0.0,0.0,0.0,0.0,0.0,0.0,0.0,0.0,0.0,0.0,0.0,0.0,0.0,0.0,0.0,0.0,0.0,0.0,0.0,0.0,0.0,0.0,0.0,0.0,0.0,0.0,0.0,0.0,0.0,0.0,0.0,0.0,0.0,0.0,0.0,0.0,0.0,0.0,0.0,0.0,0.0,0.0,0.0,0.0,0.0,0.0,0.0,0.0,0.0,0.0,0.0,0.0,0.0,0.0,0.0,0.0,0.0,0.0,0.0,0.0,0.0,0.0,0.0,0.0,0.0,0.0,0.0,0.0,0.0,0.0,0.0,0.0,0.0,0.0,0.0,0.0,0.0,0.0,0.0,0.0,0.0,0.0,0.0,0.7893,0.6335,0.4805,0.453,0.5592,0.3556,0.2464,0.0,0.0,0.0,0.0,0.0,0.0,0.0,0.0,0.0,0.0,0.0,0.0,0.0,0.0,0.0,0.0,0.0,0.0,0.0,0.0,0.0,0.0,0.0,0.0,0.0,0.0,0.0,0.0,0.0,0.0,0.0,0.0,0.0,0.0,0.0,0.0,0.0,0.0,0.0,0.0,0.0,0.0,0.0,0.0,0.0,0.0,0.0,0.0,0.0,0.0,0.0,0.0,0.0,0.0,0.0,0.0,0.0,0.0,0.0,0.0,0.0,0.0,0.0,0.0,0.0,0.0,0.0,0.0,0.0,0.0,0.0,0.0,0.0,0.0,0.0,0.0,0.0,0.0,0.0,0.0,0.0,0.0,0.0,0.0,0.0,0.0,0.0,0.0,0.0,0.0,0.0,0.0,0.0,0.0,0.0,0.0,0.0,0.0,0.0,0.0,0.0,0.0,0.0,0.0,0.0,0.0,0.0,0.0,0.7322,0.63,0.4217,0.3554,0.4414,0.2504,0.1489,0.0,0.0,0.0,0.0,0.0,0.0,0.0,0.0,0.0,0.0,0.0,0.0,0.0,0.0,0.0,0.0,0.0,0.0,0.0,0.0,0.0,0.0,0.0,0.0,0.0,0.0,0.0,0.0,0.0,0.0,0.0,0.0,0.0,0.0,0.0,0.0,0.0,0.0,0.0,0.0,0.0,0.0,0.0,0.0,0.0,0.0,0.0,0.0,0.0,0.0,0.0,0.0,0.0,0.0,0.0,0.0,0.0,0.0,0.0,0.0,0.0,0.0,0.0,0.0,0.0,0.0,0.0,0.0,0.0,0.0,0.0,0.0,0.0,0.0,0.0,0.0,0.0,0.0,0.0,0.0,0.0,0.0,0.0,0.0,0.0,0.0,0.0,0.0,0.0,0.0,0.0,0.0,0.0,0.0,0.0,0.0,0.0,0.0,0.0,0.0,0.0,0.0,0.0,0.0,0.0,0.0,0.0,0.0,0.7326,0.6296,0.4217,0.3202,0.3435,0.1448,0.0745,0.0,0.0,0.0,0.0,0.0,0.0,0.0,0.0,0.0,0.0,0.0,0.0,0.0,0.0,0.0,0.0,0.0,0.0,0.0,0.0,0.0,0.0,0.0,0.0,0.0,0.0,0.0,0.0,0.0,0.0,0.0,0.0,0.0,0.0,0.0,0.0,0.0,0.0,0.0,0.0,0.0,0.0,0.0,0.0,0.0,0.0,0.0,0.0,1.2305,0.0,0.0,0.0,0.0,0.0,0.0,0.0,0.0,0.0,0.0,0.0,0.0,0.0,0.0,0.0,0.0,0.0,0.0,0.0,0.0,0.0,0.0,0.0,0.0,0.0,0.0,0.0,0.0,0.0,0.0,0.0,0.0,0.0,0.0,0.0,0.0,0.0,0.0,0.0,0.0,0.0,0.0,0.0,0.0,0.0,0.0,0.0,0.0,0.0,0.0,0.0,0.0,0.0,0.0,0.0,0.0,0.0,0.0,0.0,0.6834,0.6257,0.4217,0.3108,0.3039,0.109,0.0273,0.0,0.0,0.0,0.0,0.0,0.0,0.0,0.0,0.0,0.0,0.0,0.0,0.0,0.0,0.0,0.0,0.0,0.0,0.0,0.0,0.0,0.0,0.0,0.0,0.0,0.0,0.0,0.0,0.0,0.0,0.0,0.0,0.0,0.0,0.0,0.0,0.0,0.0,0.0,0.0,0.0,0.0,0.0,0.0,0.0,0.0,0.0,0.0,0.0,0.0,0.0,0.0,0.0,0.0,0.0,0.0,0.0,0.0,0.0,0.0,0.0,0.0,0.0,0.0,0.0,0.0,0.0,0.0,0.0,0.0,0.0,0.0,0.0,0.0,0.0,0.0,0.0,0.0,0.0,0.0,0.0,0.0,0.0,0.0,0.0,0.0,0.0,0.0,0.0,0.0,0.0,0.0,0.0,0.0,0.0,0.0,0.0,0.0,0.0,0.0,0.0,0.0,0.0,0.0,0.0,0.0,0.0,0.7283,0.6185,0.5989,0.4117,0.3034,0.2856,0.0998,0.0,0.0,0.0,0.0,0.0,0.0,0.0,0.0,0.0,0.0,0.0,0.0,0.0,0.0,0.0,0.0,0.0,0.0,0.0,0.0,0.0,0.0,0.0,0.0,0.0,0.0,0.0,0.0,0.0,0.0,0.0,0.0,0.0,0.0,0.0,0.0,0.0,0.0,0.0,0.0,1.911,1.8462,0.0,0.0,0.0,0.0,0.0,0.0,0.0,0.0,1.2857,0.0,0.0,0.0,0.0,0.0,0.0,0.0,0.0,0.0,0.0,0.0,0.0,0.0,0.0,0.0,0.0,0.0,0.0,0.0,0.0,0.0,0.0,0.0,0.0,0.0,0.0,0.0,0.0,0.0,0.0,0.0,0.0,0.0,0.0,0.0,0.0,0.0,0.0,0.0,0.0,0.0,0.0,0.0,0.0,0.0,0.0,0.0,0.0,0.0,0.0,0.0,0.0,0.0,0.0,0.0,0.0,0.8851,0.7021,0.5685,0.4962,0.3753,0.2702,0.1868,0.0662,0.0,0.0,0.0,0.0,0.0,0.0,0.0,0.0,0.0,0.0,0.0,0.0,0.0,0.0,0.0,0.0,0.0,0.0,0.0,0.0,0.0,0.0,0.0,0.0,0.0,0.0,0.0,0.0,0.0,0.0,0.0,0.0,0.0,0.0,0.0,0.0,0.0,0.0,0.0,0.0,0.0,1.8076,1.7392,0.0,0.0,0.0,0.0,0.0,0.0,0.0,0.0,1.3113,0.0,0.0,0.0,0.0,0.0,0.0,0.0,0.0,0.0,0.0,0.0,0.0,0.0,0.0,0.0,0.0,0.0,0.0,0.0,0.0,0.0,0.0,0.0,0.0,0.0,0.0,0.0,0.0,0.0,0.0,0.0,0.0,0.0,0.0,0.0,0.0,0.0,0.0,0.0,0.0,0.0,0.0,0.0,0.0,0.0,0.0,0.0,0.0,0.0,0.0,0.0,0.0,0.0,0.0,0.0,0.8729,0.6945,0.5803,0.5346,0.3795,0.2777,0.2281,0.0794,0.0,0.0,0.0,0.0,0.0,0.0,0.0,0.0,0.0,0.0,0.0,0.0,0.0,0.0,0.0,0.0,0.0,0.0,0.0,0.0,0.0,0.0,0.0,0.0,0.0,0.0,0.0,0.0,0.0,0.0,0.0,0.0,0.0,0.0,0.0,0.0,0.0,0.0,0.0,0.0,0.0,1.8169,1.7865,1.6594,0.0,0.0,0.0,0.0,0.0,0.0,1.3393,1.34,0.0,0.0,0.0,0.0,0.0,0.0,0.0,0.0,0.0,0.0,0.0,0.0,0.0,0.0,0.0,0.0,0.0,0.0,0.0,0.0,0.0,0.0,0.0,0.0,0.0,0.0,0.0,0.0,0.0,0.0,0.0,0.0,0.0,0.0,0.0,0.0,0.0,0.0,0.0,0.0,0.0,0.0,0.0,0.0,0.0,0.0,0.0,0.0,0.0,0.0,0.0,0.0,0.0,0.0,0.0,0.8646,0.7086,0.6036,0.5601,0.4003,0.3059,0.2842,0.1168,0.0246,0.0,0.0,0.0,0.0,0.0,0.0,0.0,0.0,0.0,0.0,0.0,0.0,0.0,0.0,0.0,0.0,0.0,0.0,0.0,0.0,0.0,0.0,0.0,0.0,0.0,0.0,0.0,0.0,0.0,0.0,0.0,0.0,0.0,0.0,0.0,0.0,0.0,0.0,0.0,0.0,0.0,1.8433,1.7561,1.703,0.0,0.0,0.0,0.0,1.3733,1.3693,0.0,0.0,0.0,0.0,0.0,0.0,0.0,0.0,0.0,0.0,0.0,0.0,0.0,0.0,0.0,0.0,0.0,0.0,0.0,0.0,0.0,0.0,0.0,0.0,0.0,0.0,0.0,0.0,0.0,0.0,0.0,0.0,0.0,0.0,0.0,0.0,0.0,0.0,0.0,0.0,0.0,0.0,0.0,0.0,0.0,0.0,0.0,0.0,0.0,0.0,0.0,0.0,0.0,0.0,0.0,0.0,0.8299,0.7513,0.6242,0.451,0.4179,0.3632,0.276,0.1721,0.1148,0.0,0.0,0.0,0.0,0.0,0.0,0.0,0.0,0.0,0.0,0.0,0.0,0.0,0.0,0.0,0.0,0.0,0.0,0.0,0.0,0.0,0.0,0.0,0.0,0.0,0.0,0.0,0.0,0.0,0.0,0.0,0.0,0.0,0.0,0.0,0.0,0.0,0.0,0.0,0.0,0.0,1.8969,1.8257,1.7346,1.6452,0.0,0.0,1.4117,1.4035,1.4035,0.0,0.0,0.0,0.0,0.0,0.0,0.0,0.0,0.0,0.0,0.0,0.0,0.0,0.0,0.0,0.0,0.0,0.0,0.0,0.0,0.0,0.0,0.0,0.0,0.0,0.0,0.0,0.0,0.0,0.0,0.0,0.0,0.0,0.0,0.0,0.0,0.0,0.0,0.0,0.0,0.0,0.0,0.0,0.0,0.0,0.0,0.0,0.0,0.0,0.0,0.0,0.0,0.0,0.0,0.0,1.0123,0.8968,0.7848,0.6803,0.5738,0.4665,0.3862,0.3447,0.2577,0.1842,0.0,0.0,0.0,0.0,0.0,0.0,0.0,0.0,0.0,0.0,0.0,0.0,0.0,0.0,0.0,0.0,0.0,0.0,0.0,0.0,0.0,0.0,0.0,0.0,0.0,0.0,0.0,0.0,0.0,0.0,0.0,0.0,0.0,0.0,0.0,0.0,0.0,0.0,0.0,0.0,0.0,0.0,1.9194,1.7987,0.0,0.0,0.0,1.4088,1.4088,0.0,0.0,0.0,0.0,0.0,0.0,0.0,0.0,0.0,0.0,0.0,0.0,0.0,0.0,0.0,0.0,0.0,0.0,0.0,0.0,0.0,0.0,0.0,0.0,0.0,0.0,0.0,0.0,0.0,0.0,0.0,0.0,0.0,0.0,0.0,0.0,0.0,0.0,0.0,0.0,0.0,0.0,0.0,0.0,0.0,0.0,0.0,0.0,0.0,0.0,0.0,0.0,0.0,0.0,0.0,0.0,0.0,0.9468,0.8512,0.7621,0.6836,0.5426,0.4577,0.435,0.348,0.0,0.0,0.0,0.0,0.0,0.0,0.0,0.0,0.0,0.0,0.0,0.0,0.0,0.0,0.0,0.0,0.0,0.0,0.0,0.0,0.0,0.0,0.0,0.0,0.0,0.0,0.0,1.8008,0.0,0.0,0.0,0.0,0.0,0.0,0.0,0.0,0.0,0.0,0.0,0.0,0.0,0.0,1.9727,2.0029,1.8719,1.7626,0.0,0.0,1.4412,1.4124,1.4088,1.4088,0.0,0.0,0.0,0.0,0.0,0.0,0.0,0.0,0.0,0.0,0.0,0.0,0.0,0.0,0.0,0.0,0.0,0.0,0.0,0.0,0.0,0.0,0.0,0.0,0.0,0.0,0.0,0.0,0.0,0.0,0.0,0.0,0.0,0.0,0.0,0.0,0.0,0.0,0.0,0.0,0.0,0.0,0.0,0.0,0.0,0.0,0.0,0.0,0.0,0.0,0.0,0.0,0.0,0.0,0.0,0.9388,0.9711,0.8861,0.6819,0.6593,0.6133,0.5326,0.4386,0.3882,0.0,0.0,0.0,0.0,0.0,0.0,0.0,0.0,0.0,0.0,0.0,0.0,0.0,0.0,0.0,0.0,0.0,0.0,0.0,0.0,0.0,0.0,0.0,0.0,0.0,0.0,0.0,0.0,0.0,0.0,0.0,0.0,0.0,0.0,0.0,0.0,0.0,0.0,0.0,0.0,0.0,2.0517,2.0556,1.958,1.851,0.0,0.0,1.5262,1.4243,1.4088,1.4088,1.4088,0.0,0.0,0.0,0.0,0.0,0.0,0.0,0.0,0.0,0.0,0.0,0.0,0.0,0.0,0.0,0.0,0.0,0.0,0.0,0.0,0.0,0.0,0.0,0.0,0.0,0.0,0.0,0.0,0.0,0.0,0.0,0.0,0.0,0.0,0.0,0.0,0.0,0.0,0.0,0.0,0.0,0.0,0.0,0.0,0.0,0.0,0.0,0.0,0.0,0.0,0.0,0.0,0.0,1.1669,1.0392,1.0196,0.9508,0.8344,0.78,0.7083,0.6203,0.5866,0.5134,0.0,0.0,0.0,0.0,0.0,0.0,0.0,0.0,0.0,0.0,0.0,0.0,0.0,0.0,0.0,0.0,0.0,0.0,0.0,0.0,0.0,0.0,0.0,0.0,0.0,0.0,0.0,0.0,1.8462,1.9144,2.0009,0.0,0.0,0.0,0.0,0.0,0.0,0.0,0.0,0.0,0.0,2.0966,2.0644,1.9687,0.0,0.0,1.6838,1.5579,1.5137,1.4531,1.4088,1.4088,1.4088,0.0,0.0,0.0,0.0,0.0,0.0,0.0,0.0,0.0,0.0,0.0,0.0,0.0,0.0,0.0,0.0,0.0,0.0,0.0,0.0,0.0,0.0,0.0,0.0,0.0,0.0,0.0,0.0,0.0,0.0,0.0,0.0,0.0,0.0,0.0,0.0,0.0,0.0,0.0,0.0,0.0,0.0,0.0,0.0,0.0,0.0,0.0,0.0,0.0,0.0,0.0,0.0,1.1784,1.1009,1.0577,1.0016,0.9312,0.8716,0.7962,0.7144,0.7079,0.6355,0.0,0.0,0.0,0.0,0.0,0.0,0.0,0.0,0.0,0.0,0.0,0.0,0.0,0.0,0.0,0.0,0.0,0.0,0.0,0.0,0.0,0.0,0.0,0.0,0.0,0.0,0.0,0.0,1.9398,2.0388,2.1147,0.0,0.0,0.0,0.0,0.0,0.0,0.0,0.0,0.0,0.0,2.1782,2.1115,2.0362,1.9689,1.9076,1.769,1.656,1.6224,1.5545,1.5068,1.5068,0.0,0.0,0.0,0.0,0.0,0.0,0.0,0.0,0.0,0.0,0.0,0.0,0.0,0.0,0.0,0.0,0.0,0.0,0.0,0.0,0.0,0.0,0.0,0.0,0.0,0.0,0.0,0.0,0.0,0.0,1.893,0.0,0.0,0.0,0.0,0.0,0.0,0.0,0.0,0.0,0.0,0.0,0.0,0.0,0.0,0.0,0.0,0.0,0.0,0.0,0.0,0.0,0.0,1.1659,1.1009,1.1009,1.0464,0.9382,0.93,0.8844,0.8027,0.7962,0.7535,0.6654,0.0,0.0,0.0,0.0,0.0,0.0,0.0,0.0,0.0,0.0,0.0,0.0,0.0,0.0,0.0,0.0,0.0,0.0,0.0,0.0,0.0,0.0,0.0,0.0,0.0,0.0,1.9287,2.0826,2.204,0.0,0.0,0.0,0.0,0.0,0.0,0.0,0.0,0.0,0.0,2.4061,2.3099,2.2103,2.1952,2.1191,1.9344,1.8957,1.8519,1.7423,1.7212,1.7261,0.0,0.0,0.0,0.0,0.0,0.0,0.0,0.0,0.0,0.0,0.0,0.0,0.0,0.0,0.0,0.0,0.0,0.0,0.0,0.0,0.0,0.0,0.0,0.0,0.0,0.0,0.0,1.6764,1.6805,0.0,0.0,0.0,0.0,0.0,0.0,0.0,0.0,0.0,0.0,0.0,1.9726,1.9716,0.0,0.0,0.0,0.0,0.0,0.0,0.0,0.0,0.0,0.0,0.0,0.0,1.3172,1.2291,1.196,1.1274,1.0212,1.0142,0.9748,0.8877,0.885,0.8452,0.76,0.0,0.0,0.0,0.0,0.0,0.0,0.0,0.0,0.0,0.0,0.0,0.0,0.0,0.0,0.0,0.0,0.0,0.0,0.0,0.0,0.0,0.0,0.0,0.0,0.0,1.9034,0.0,0.0,0.0,0.0,0.0,0.0,0.0,0.0,0.0,0.0,0.0,2.5734,2.5075,2.4707,2.4156,2.3147,2.244,2.1762,0.0,0.0,0.0,0.0,0.0,0.0,0.0,0.0,0.0,0.0,0.0,0.0,0.0,0.0,1.9835,1.9125,1.9283,1.9766,2.044,0.0,0.0,0.0,0.0,0.0,0.0,0.0,0.0,0.0,0.0,0.0,0.0,0.0,0.0,0.0,0.0,1.8301,0.0,0.0,0.0,0.0,0.0,0.0,0.0,0.0,2.0477,2.0587,2.0869,2.0712,2.0312,0.0,1.9431,1.9166,0.0,0.0,0.0,0.0,0.0,0.0,0.0,0.0,1.4019,1.3328,1.277,1.202,1.1059,1.1014,1.0604,0.9786,0.9466,0.9011,0.8484,0.8156,0.7994,0.0,0.0,0.0,0.0,0.0,0.0,0.0,0.0,0.0,0.0,0.0,0.0,0.0,0.0,0.0,0.0,0.0,0.0,0.0,0.0,0.0,0.0,0.0,2.063,0.0,0.0,0.0,0.0,0.0,0.0,0.0,0.0,0.0,2.5921,2.626,2.628,2.5594,2.5523,2.5158,2.4145,0.0,0.0,0.0,0.0,0.0,0.0,0.0,1.8833,1.8501,1.843,1.843,1.8461,1.9076,1.9559,1.9569,0.0,0.0,1.9678,1.9559,1.9756,2.0489,2.0615,2.0615,2.0615,2.0615,2.0556,0.0,0.0,0.0,0.0,0.0,0.0,0.0,0.0,1.859,1.9036,0.0,2.0157,0.0,0.0,0.0,0.0,0.0,2.0899,0.0,0.0,2.1744,2.1508,2.1484,2.101,2.0709,2.0613,1.9824,1.9824,2.0462,1.8911,0.0,0.0,0.0,0.0,0.0,0.0,1.4189,1.4131,1.3436,1.265,1.1865,1.1834,1.1469,1.0719,0.9849,0.9402,0.937,0.8581,0.8124,0.8156,0.8183,0.0,0.0,0.0,0.0,0.0,0.0,0.0,0.0,0.0,0.0,0.0,0.0,0.0,0.0,0.0,0.0,0.0,0.0,0.0,0.0,2.2491,0.0,0.0,0.0,0.0,0.0,0.0,0.0,0.0,0.0,0.0,2.6722,2.6589,2.6521,2.6521,0.0,0.0,0.0,0.0,2.4636,2.3697,2.3514,2.311,2.2178,2.2027,2.1697,2.0818,0.0,0.0,2.0673,2.0712,2.0712,2.0722,2.0789,2.0683,2.0712,2.0634,2.0595,2.0673,2.0634,2.0605,2.0634,2.0644,2.0439,2.0546,0.0,0.0,0.0,0.0,1.9668,1.9629,1.9678,2.0001,2.0157,2.0206,2.1173,0.0,0.0,0.0,0.0,0.0,0.0,2.3028,2.3605,2.3465,2.3544,2.3811,2.3286,2.2702,2.206,2.1475,2.0953,2.059,2.0107,1.9529,1.8911,0.0,0.0,0.0,0.0,1.602,1.5151,1.4608,1.3821,1.2673,1.2634,1.2543,1.2313,1.1524,1.108,1.1055,1.0275,1.0117,1.069,1.0728,0.0,0.0,0.0,0.0,0.0,0.0,0.0,0.0,0.0,0.0,0.0,0.0,0.0,0.0,0.0,0.0,0.0,0.0,0.0,2.176,2.3722,2.4837,0.0,0.0,0.0,0.0,0.0,0.0,0.0,0.0,0.0,2.8312,2.7723,2.7351,0.0,0.0,2.6396,2.6082,2.5441,2.4898,2.46,0.0,0.0,0.0,2.3073,2.2962,2.2713,2.2675,2.2675,2.2675,2.2675,2.2675,2.2675,2.2664,2.2664,2.259,2.1479,2.0934,2.1364,2.1078,2.0857,2.1403,2.0837,2.0238,2.2264,2.1756,2.1745,2.1756,2.1745,2.1745,2.1745,2.1756,2.1756,2.1756,2.1783,2.2328,2.259,2.2627,2.322,0.0,0.0,0.0,2.4472,2.5095,2.4876,2.489,2.5051,2.4343,2.3729,2.3162,2.2315,2.1815,2.1573,2.0942,2.0526,2.0301,0.0,0.0,1.8519,1.8087,1.7258,1.6023,1.5579,1.4772,1.3532,1.3161,1.3009,1.2978,1.2512,1.2266,1.2266,1.1818,1.1779,1.2266,1.2266,1.2671,0.0,0.0,0.0,0.0,0.0,0.0,0.0,0.0,0.0,0.0,0.0,1.9431,1.9675,0.0,0.0,0.0,2.2669,2.3363,2.3541,2.5294,0.0,0.0,0.0,0.0,0.0,0.0,0.0,2.9425,2.9504,2.9628,2.9905,2.9254,2.862,2.8279,2.7802,2.7364,2.7027,0.0,2.5963,2.5652,2.5063,2.4541,2.4156,2.4084,2.3963,2.3551,2.3478,2.3478,2.3478,2.3478,2.3478,2.3478,2.3478,2.3478,2.3478,2.2515,2.1897,2.244,2.2151,2.191,2.2253,2.1571,2.1068,2.3661,2.3734,2.3734,2.3624,2.3478,2.3478,2.3478,2.3478,2.3478,2.3478,2.3478,2.3599,2.3672,2.3745,2.3734,0.0,2.5111,2.5123,2.5629,2.6474,2.5912,2.5674,2.5611,2.4569,2.4067,2.4023,2.2663,2.2384,2.2975,2.1542,2.1207,2.1982,2.1207,2.0333,1.9442,1.8965,1.8153,1.6999,1.6553,1.5719,1.451,1.3687,1.3274,1.3304,1.3161,1.31,1.3092,1.3031,1.3009,1.3061,1.31,1.3336,1.3815,0.0,0.0,0.0,0.0,0.0,0.0,0.0,0.0,0.0,0.0,0.0,0.0,0.0,0.0,0.0,2.4354,0.0,2.5832,2.7025,0.0,0.0,0.0,2.902,2.9083,2.9097,2.9442,3.0299,0.0,0.0,3.1409,0.0,3.0103,2.9286,2.9083,2.8716,2.792,2.7789,2.755,2.6837,2.6726,2.6358,2.544,2.5182,2.4862,2.4072,2.3734,2.3854,2.3843,2.3854,2.3781,2.3879,2.3734,2.3736,2.3688,2.3668,2.3666,2.3623,2.345,2.3229,2.2831,2.2499,2.2129,2.5099,2.5804,2.5791,2.4909,2.3514,2.3478,2.3478,2.3478,2.3478,2.3478,2.3551,2.4301,2.5063,2.5804,2.5791,2.5908,2.6129,2.6129,2.628,2.6487,2.6348,2.6285,2.6235,2.5134,2.4632,2.4525,2.3387,2.2927,2.3065,2.2689,2.2586,2.2793,2.2598,2.176,2.0322,2.0179,1.9818,1.9147,1.8648,1.7856,1.681,1.6053,1.5661,1.5661,1.4521,1.3906,1.3914,1.3312,1.3274,1.3876,1.3906,1.4538,1.5876,1.6017,0.0,0.0,0.0,0.0,0.0,0.0,0.0,0.0,0.0,2.2053,2.2522,0.0,2.459,0.0,2.6061,2.7359,2.8142,2.8506,0.0,0.0,2.8862,2.924,2.9919,2.9995,3.0299,3.1131,3.1204,3.1278,3.1482,3.1336,3.1161,3.0896,2.9827,2.8894,2.8703,2.8684,2.862,2.8427,2.833,2.8071,2.7191,2.6505,2.6082,2.5826,2.5804,2.5804,2.5791,2.5791,2.5791,2.5791,2.5791,2.5597,2.5193,2.5086,2.4927,2.4533,2.3665,2.295,2.3097,2.2343,2.17,2.5978,2.6487,2.6487,2.5861,2.4826,2.4838,2.4826,2.4838,2.4838,2.4838,2.4874,2.5394,2.599,2.6487,2.6487,2.6487,2.6487,2.6487,2.6487,2.6487,2.6487,2.6487,2.6449,2.5335,2.48,2.475,2.3647,2.3275,2.3603,2.3245,2.3275,2.3632,2.3275,2.2628,2.1729,2.1353,2.0754,1.9902,1.9186,1.8446,1.7639,1.7191,1.6849,1.651,1.5995,1.5564,1.5226,1.51,1.5109,1.5226,1.5206,1.5841,1.7182,1.7274,1.7849,0.0,0.0,0.0,0.0,0.0,0.0,0.0,0.0,0.0,0.0,0.0,2.5778,2.6155,2.7465,2.846,2.8971,2.9348,2.9566,2.958,2.9889,3.0299,3.0777,3.0837,3.0999,3.1438,3.1496,3.164,3.1938,3.1979,3.2104,3.2379,3.163,3.0675,2.9799,2.9566,2.9442,2.9052,2.8989,2.883,2.833,2.792,2.7617,2.7617,2.7617,2.7617,2.7604,2.7361,2.7157,2.7157,2.6915,2.6641,2.63,2.6235,2.6052,2.5496,2.4811,2.4168,2.3705,2.2994,2.257,2.6816,2.6803,2.6816,2.6816,2.6803,2.6816,2.6726,2.6487,2.6487,2.6568,2.6658,2.6645,2.6714,2.6803,2.6816,2.6816,2.6816,2.6816,2.6816,2.6816,2.6816,2.6816,2.6765,2.5637,2.5116,2.5065,2.3941,2.3767,2.4394,2.3738,2.3738,2.4408,2.3738,2.3382,2.3352,2.2695,2.1618,2.0148,1.9291,1.8554,1.7891,1.7786,1.744,1.6838,1.7302,1.7302,1.668,1.7257,1.7346,1.6793,1.6747,1.7199,1.819,1.8265,1.896,0.0,2.059,0.0,0.0,0.0,0.0,0.0,0.0,0.0,0.0,2.6052,2.6594,2.7913,2.8716,2.9223,2.9317,3.0011,3.0464,3.045,3.1102,3.1539,3.1611,3.164,3.1682,3.1768,3.1752,3.2035,3.2625,3.2722,3.2975,3.3391,3.3427,3.2694,3.1188,3.0719,3.0376,2.9538,2.9272,2.9223,2.916,2.902,2.8907,2.8925,2.8766,2.8892,2.8756,2.8212,2.7814,2.7772,2.7338,2.6985,2.6935,2.685,2.6685,2.6108,2.5883,2.5488,2.4516,2.4167,2.3984,2.8524,2.8538,2.8524,2.8524,2.8538,2.8524,2.7769,2.6487,2.6487,2.6871,2.7471,2.7484,2.7868,2.8492,2.8524,2.8538,2.8524,2.8524,2.8524,2.8538,2.8524,2.8524,2.8456,2.7315,2.6758,2.6677,2.5549,2.5035,2.5189,2.5035,2.5035,2.5175,2.5035,2.4951,2.4951,0.0,0.0,0.0,2.1038,2.0434,1.942,1.8806,1.8447,1.8286,1.7841,0.0,1.7413,1.7512,1.7768,1.8084,1.8118,0.0,0.0,0.0,0.0,0.0,0.0,0.0,0.0,0.0,0.0,0.0,2.7445,2.8071,2.8334,2.8361,2.8738,2.9676,2.995,3.0343,3.0955,3.1146,3.1278,3.1278,3.1409,3.1726,3.2299,3.2367,3.2571,3.3114,3.3193,3.3219,3.3349,3.3417,3.3453,3.3649,3.3608,3.3453,3.3056,3.247,3.2086,3.1875,3.0896,3.0133,3.0056,2.9552,2.9219,2.8947,2.8498,2.8298,2.826,2.7759,2.7255,2.7272,2.7086,2.687,2.65,2.6345,2.6282,2.566,2.5577,2.5465,2.5198,2.5127,2.4937,2.8989,0.0,2.8989,2.8989,0.0,2.8989,2.8524,2.7723,2.7723,2.7966,2.8344,2.833,2.8575,2.8989,2.8989,2.8989,2.8989,2.8989,2.8989,2.8989,2.8989,2.8805,2.847,2.7605,2.7041,2.6665,2.5798,2.5605,2.5933,2.5605,2.5591,2.5933,2.5605,2.5398,2.5398,2.5398,2.4613,2.3014,2.2682,2.2102,2.1244,2.0549,1.9851,1.9244,0.0,0.0,0.0,0.0,0.0,0.0,0.0,0.0,0.0,0.0,0.0,2.286,2.297,2.3432,2.4472,2.5446,2.6599,2.8022,2.9428,2.9875,2.9066,2.9393,2.9827,3.0269,3.0658,3.119,3.1951,3.2035,3.216,3.2473,3.2544,3.2691,3.3013,3.3093,3.3224,3.3505,3.3608,3.371,3.4062,3.4087,3.4252,3.452,3.4568,3.4544,3.4471,3.3726,3.3093,3.3093,3.2552,3.1954,3.1868,3.1257,3.0552,3.035,2.9949,2.9468,2.8886,2.8478,2.8152,2.7877,2.7523,2.7192,2.6976,2.6903,2.6829,2.6539,2.621,2.6009,2.5969,2.5413,2.4818,2.9442,2.9442,2.9456,2.9456,2.9456,2.9442,2.9456,2.9411,0.0,0.0,0.0,2.9223,2.9331,2.9442,2.9442,2.9442,2.9442,2.9442,2.9456,2.9442,2.933,2.8977,2.8398,2.7758,2.717,2.6609,2.6049,2.6147,2.6811,2.6254,2.6254,2.6745,2.6359,2.6065,2.5972,2.5945,2.565,2.5036,2.4104,2.331,2.2699,2.2052,2.118,2.0079,2.1132,2.1221,2.0297,2.1248,2.1886,2.2096,2.149,2.1911,2.3603,2.3182,2.36,2.5232,2.5398,2.5743,2.6506,2.7093,2.8135,2.9841,3.1022,3.1058,2.9566,3.021,3.0704,3.0704,3.1407,3.2132,3.2722,3.2761,3.2986,3.3531,3.3608,3.3608,3.3761,3.3761,3.3836,3.3928,3.4012,3.4137,3.4688,3.4759,3.4941,3.5447,3.5492,3.5616,3.5447,3.452,3.3726,3.3556,3.3206,3.323,3.3259,3.2606,3.2139,3.1488,3.1256,3.0856,3.0038,2.9602,2.9286,2.8789,2.8243,2.7985,2.7934,2.7949,2.7874,2.7743,2.7303,2.6849,2.6624,2.5653,2.4807,3.1146,3.1146,3.1161,3.1146,3.1146,3.1161,3.1161,3.1029,2.9628,2.9411,3.0103,3.0103,3.0494,3.1161,3.1161,3.1146,3.1161,3.1161,3.1146,0.0,3.0539,3.0229,3.0081,2.8941,2.8376,2.8201,2.7591,2.762,2.8134,2.8094,2.8134,2.8255,2.8615,2.8529,2.8119,2.807,2.7754,2.7128,2.4804,2.3324,2.2713,2.2028,2.1625,2.1445,2.1602,2.1911,2.2287,2.246,2.3018,2.4034,2.3986,2.4286,2.5053,2.5039,2.5107,2.5356,2.5398,2.5895,2.7031,2.781,2.9356,3.1839,3.2348,3.2076,3.1278,3.1836,3.2269,3.2296,3.2837,3.3323,3.3469,3.3469,3.3505,3.3633,3.3608,3.3811,3.4382,3.4479,3.4688,3.5191,3.5316,3.5339,3.5459,3.5481,3.5543,3.5605,3.5783,3.5667,3.5605,3.4941,3.426,3.3655,3.3061,3.2716,3.2737,3.2077,3.1662,3.1467,3.0975,3.0567,3.0219,2.9816,2.9434,2.9285,2.9114,2.9058,2.9065,2.9157,2.8774,2.828,2.7949,2.7665,2.7095,2.6352,2.5722,3.2312,3.2637,3.2637,3.2637,3.2637,3.2637,3.2637,3.2567,3.1812,3.1274,3.0955,3.097,3.1161,3.1467,3.1496,3.1496,3.1496,3.1496,3.1471,3.1414,3.1107,3.0803,3.0417,2.9863,2.9366,2.9024,2.8746,2.8732,2.895,2.8973,2.8973,2.9012,2.9287,2.9248,2.9012,2.8973,2.8834,2.8536,2.6362,2.5238,2.5281,2.3979,2.327,2.3267,2.3256,2.3243,2.3259,2.4196,2.516,2.6105,2.6021,2.6454,2.748,2.7204,2.7164,2.752,2.756,2.8157,2.9452,3.0598,3.1758,3.3029,3.3145,3.2997,3.2664,3.2917,3.3145,3.3145,3.3427,3.3735,3.4087,3.4137,3.4284,3.4657,3.4681,3.4816,3.5121,3.5408,3.5698,3.5994,3.6312,3.6481,3.646,3.646,3.6481,3.646,3.646,3.646,3.644,3.6201,3.5521,3.4353,3.3806,3.3419,3.3034,3.238,3.1818,3.1482,3.1095,3.0577,3.0113,2.979,2.9772,2.9473,2.939,2.9406,2.9397,2.9048,2.8696,2.8393,2.7588,2.7072,2.6652,2.6349,2.5921,3.3119,3.3582,3.3608,3.3608,3.3608,3.3608,3.3608,3.3608,3.3582,3.2997,3.2048,3.1979,3.1964,3.1964,3.1964,3.1888,3.1738,3.1738,3.1631,3.1394,3.1244,3.0882,3.0417,3.0272,2.9895,2.9454,2.9406,2.9451,2.9601,2.9607,2.9673,2.9777,2.9689,2.9607,2.9607,2.9607,2.954,2.9329,2.7969,2.7371,2.7616,2.6058,2.5231,2.5227,2.5253,2.5077,2.484,2.6096,2.7172,2.7859,2.7779,2.8207,2.9262,2.8879,2.8794,2.9323,2.9566,3.0261,3.1638,3.2903,3.3659,3.3811,3.3836,3.3887,3.4012,3.4037,3.3978,3.3862,3.3987,3.4301,3.4712,3.4807,3.5081,3.5677,3.5783,3.5815,3.5968,3.6333,3.658,3.6623,3.6943,3.719,3.7209,3.7209,3.7171,3.7152,3.7209,3.7209,3.7209,3.7209,3.6474,3.5152,3.4565,3.422,3.357,3.2801,3.2159,3.1608,3.1409,3.0942,3.0305,3.0335,3.0452,3.0168,3.0131,3.0125,2.9884,2.9478,2.8947,2.8516,2.7637,2.6839,2.6599,2.6482,2.6103,3.3572,3.3608,3.3659,3.3608,3.3659,3.3633,3.3659,3.3659,3.3608,3.3572,3.3401,3.3401,3.3391,3.3417,3.3349,3.2964,3.239,3.2419,3.2022,3.1388,3.076,3.0457,3.0366,2.9806,2.947,2.9451,2.9473,2.9761,3.0208,3.0208,3.0481,3.0898,3.0477,3.0208,3.0208,3.0208,2.9957,2.9429,2.923,2.8857,2.8323,2.7561,2.7146,2.713,2.7125,2.7402,2.7749,2.814,2.8528,2.9141,2.9191,2.9262,2.939,2.9345,2.9323,2.9445,3.0051,3.1029,3.2416,3.3175,3.3921,3.4431,3.4559,3.4807,3.5339,3.5391,3.5161,3.4807,3.5098,3.5407,3.5492,3.5521,3.5771,3.6249,3.6312,3.6519,3.6902,3.7095,3.7116,3.7133,3.7247,3.7209,3.7322,3.7322,3.7284,3.7359,3.7396,3.7396,3.7377,3.7341,3.6754,3.5348,3.4799,3.4428,3.367,3.2966,3.2354,3.189,3.1765,3.1511,3.1206,3.1304,3.1588,3.1367,3.1737,3.1655,3.1185,3.0969,3.0246,2.8819,2.8169,2.7893,2.7391,2.7149,2.6822,3.4423,3.4776,3.4793,3.4776,3.4776,3.4776,3.4776,3.4793,3.4793,3.4793,3.4776,3.4776,3.4366,3.3592,3.3141,3.278,3.2467,3.2044,3.167,3.1329,3.1056,3.0915,3.0827,3.0605,3.0456,3.0477,3.0477,3.0597,3.0781,3.0818,3.0975,3.1151,3.0938,3.0838,3.0838,3.0838,3.0716,3.0493,3.0477,3.0311,2.9918,2.8695,2.8156,2.8441,2.8197,2.8105,2.8442,2.9102,2.9642,2.994,3.0267,3.0472,3.0477,3.0456,3.0456,3.0543,3.157,3.279,3.4112,3.483,3.552,3.6086,3.6146,3.6267,3.6504,3.6542,3.6405,3.6205,3.6109,3.6186,3.6481,3.6542,3.6643,3.6843,3.6882,3.698,3.7171,3.7451,3.7614,3.7632,3.7895,3.8085,3.8083,3.8085,3.8085,3.8085,3.8066,3.8033,3.8085,3.8101,3.7395,3.6127,3.5693,3.4859,3.3447,3.2748,3.2435,3.2264,3.2213,3.2127,3.2039,3.2074,3.2213,3.2213,3.2416,3.2249,3.1361,3.0857,3.0194,2.8987,2.8303,2.7987,2.7686,2.7648,2.7437,3.5144,3.5577,3.5616,3.5616,3.5616,3.5616,3.5616,3.5616,3.5616,3.5616,3.5566,3.538,3.4774,3.3852,3.3283,3.2869,3.2407,3.1888,3.1514,3.13,3.1272,3.1258,3.1188,3.119,3.119,3.119,3.1171,3.1171,3.119,3.119,3.1252,3.1332,3.137,3.143,3.1543,3.1545,3.1562,3.1562,3.1562,3.1562,3.1365,3.0227,2.9622,2.9762,2.9403,2.9179,2.9195,3.0071,3.0539,3.0559,3.0975,3.119,3.119,3.119,3.1455,3.2056,3.3114,3.4401,3.5717,3.631,3.6783,3.7152,3.7209,3.7209,3.7209,3.7209,3.7284,3.7341,3.7039,3.6981,3.7097,3.7209,3.7247,3.7377,3.7396,3.7451,3.7614,3.7929,3.8115,3.8167,3.8417,3.8707,3.8692,3.8643,3.8627,3.8627,3.8658,3.8707,3.8707,3.8621,3.8163,3.6853,3.6454,3.5334,3.3373,3.2952,3.284,3.2697,3.2697,3.2648,3.2583,3.2567,3.2699,3.2679,3.2777,3.2406,3.1577,3.0815,3.0044,2.9105,2.8387,2.8041,2.8024,2.802,2.8088,3.5577,3.56,3.5616,3.5616,3.5616,3.5616,3.5616,3.5616,3.5616,3.5616,3.5515,3.4878,3.4496,3.4369,3.4191,3.3592,3.2424,3.2214,3.181,3.1243,3.1196,3.1185,3.119,3.119,3.123,3.131,3.1312,3.1291,3.1252,3.1249,3.1391,3.1752,3.1771,3.2004,3.2316,3.2368,3.2417,3.235,3.2333,3.2401,3.2401,3.2297,3.1757,3.1135,3.1067,3.1016,3.103,3.1117,3.1154,3.1171,3.1232,3.1232,3.123,3.1247,3.2132,3.3763,3.4458,3.5419,3.68,3.7136,3.7192,3.7247,3.734,3.7247,3.7359,3.7359,3.7524,3.7825,3.7807,3.7667,3.7397,3.7396,3.7488,3.7843,3.7859,3.8082,3.853,3.8525,3.8658,3.8655,3.8732,3.8807,3.875,3.8707,3.878,3.878,3.8735,3.8765,3.8792,3.8747,3.8354,3.7614,3.6789,3.5734,3.417,3.3597,3.3472,3.3425,3.3317,3.3133,3.2903,3.2811,3.3042,3.324,3.3425,3.3017,3.1876,3.0941,3.0157,2.9326,2.8599,2.8267,2.8554,2.844,2.8529,3.5616,3.5616,3.5616,3.5616,3.5616,3.5616,3.5616,3.5616,3.5616,3.5616,3.5464,3.481,3.4218,3.3778,3.3309,3.2801,3.2293,3.1819,3.1427,3.119,3.119,3.1332,3.1565,3.1584,3.1751,3.2003,3.2039,3.2056,3.2021,3.2039,3.2092,3.2213,3.2247,3.2332,3.2467,3.2501,3.2501,3.2501,3.2501,3.2501,3.2534,3.2501,3.2333,3.2056,3.2039,3.2039,3.2021,3.2039,3.2021,3.2039,3.2039,3.2039,3.2091,3.2528,3.3316,3.4461,3.5207,3.6185,3.7399,3.7631,3.7826,3.8118,3.8186,3.8135,3.8152,3.8152,3.8234,3.8348,3.8415,3.8378,3.8413,3.8259,3.8236,3.8366,3.8415,3.8496,3.867,3.8844,3.8943,3.8985,3.9122,3.9281,3.9229,3.9281,3.9281,3.9281,3.9281,3.9255,3.9268,3.9262,3.8975,3.8284,3.781,3.7261,3.6218,3.4729,3.4056,3.4171,3.4164,3.4122,3.3951,3.3863,3.4037,3.381,3.3987,3.3414,3.2187,3.0794,3.0079,2.9673,2.8927,2.8849,2.9221,2.9052,2.9159,3.5616,3.5616,3.5616,3.5616,3.5616,3.5616,3.5616,3.5616,3.5616,3.5616,3.543,3.459,3.3931,3.3482,3.2602,3.2241,3.2286,3.1709,3.1391,3.1428,3.1526,3.1769,3.1986,3.2022,3.2196,3.2451,3.2501,3.2501,3.2501,3.2501,3.2583,3.2713,3.2729,3.2811,3.2887,3.2919,3.2919,3.2901,3.2919,3.2916,3.2919,3.2919,3.2901,3.2919,3.2919,3.2777,3.2534,3.2501,3.2501,3.2501,3.2501,3.2501,3.2571,3.3394,3.4259,3.5044,3.5966,3.6979,3.7954,3.8167,3.83,3.8643,3.8707,3.8738,3.8818,3.8829,3.8873,3.8942,3.8998,3.9087,3.9171,3.9082,3.8998,3.8998,3.8998,3.8998,3.8998,3.9163,3.9257,3.9276,3.9432,3.9564,3.9611,3.9599,3.9606,3.9611,3.9611,3.9611,3.9611,3.9592,3.946,3.8875,3.8501,3.8161,3.7497,3.643,3.5293,3.5219,3.4724,3.4769,3.4754,3.4744,3.4674,3.4445,3.4005,3.3414,3.2359,3.0899,3.0241,2.9962,2.9578,2.9381,2.9542,2.9624,2.9652,3.5644,3.5694,3.5622,3.5711,3.5739,3.5711,3.5644,3.5739,3.5717,3.5783,3.5623,3.4207,3.3853,3.3736,3.2603,3.2091,3.2353,3.2056,3.1861,3.1861,3.2213,3.2417,3.2501,3.2517,3.255,3.2632,3.2567,3.2567,3.2616,3.2665,3.2825,3.3136,3.3181,3.3346,3.3748,3.368,3.3721,3.3694,3.3662,3.3721,3.3793,3.3707,3.368,3.3726,3.3707,3.3343,3.2616,3.2583,3.2632,3.2599,3.2583,3.2534,3.2859,3.386,3.4803,3.5716,3.6811,3.7818,3.853,3.8673,3.8667,3.8747,3.8735,3.8902,3.9063,3.9131,3.9218,3.9432,3.9505,3.9564,3.9587,3.9576,3.9559,3.9587,3.9493,3.9493,3.9529,3.9587,3.9622,3.9645,3.9701,3.9615,3.9603,3.9694,3.9746,3.9735,3.9724,3.9735,3.9757,3.9767,3.9649,3.9498,3.921,3.8897,3.8547,3.8089,3.7119,3.6262,3.5485,3.5078,3.4974,3.4926,3.4889,3.4678,3.4214,3.3625,3.3129,3.1816,3.1279,3.0919,3.0426,3.0099,3.0176,3.0246,2.9962,3.6374,3.6626,3.6291,3.6374,3.6623,3.6312,3.6354,3.6686,3.6686,3.6704,3.6407,3.5062,3.4456,3.4214,3.2985,3.2367,3.2517,3.2648,3.2582,3.2384,3.2451,3.2697,3.2919,3.2965,3.3118,3.3343,3.3404,3.3404,3.3408,3.3408,3.3494,3.3592,3.3625,3.3662,3.3812,3.3807,3.3807,3.3807,3.3807,3.3807,3.3807,3.3807,3.3807,3.3807,3.3807,3.3652,3.3419,3.3404,3.3404,3.3372,3.3404,3.364,3.4255,3.5159,3.6069,3.6888,3.7787,3.8395,3.8661,3.8865,3.899,3.9031,3.9176,3.932,3.9432,3.9457,3.9486,3.9611,3.9611,3.9668,3.9891,3.9962,3.987,3.9622,3.9611,3.9634,3.9679,3.9819,4.0013,4.0175,4.023,4.0211,4.0202,4.0193,4.0166,4.0166,4.0175,4.0194,4.0193,4.0138,4.0211,4.0173,3.9904,3.9669,3.9454,3.9116,3.8433,3.7399,3.6476,3.5621,3.5399,3.5122,3.5079,3.4904,3.4424,3.4008,3.3507,3.2927,3.233,3.2122,3.1878,3.1544,3.1183,3.0965,3.083,3.6902,3.7152,3.6843,3.6882,3.7171,3.6823,3.6882,3.719,3.7209,3.7209,3.6872,3.5491,3.4906,3.4724,3.344,3.2892,3.2978,3.3317,3.3255,3.3011,3.2981,3.3166,3.3404,3.3419,3.3723,3.417,3.4247,3.4431,3.4706,3.4724,3.4724,3.4743,3.4724,3.4559,3.427,3.4247,3.4137,3.3862,3.3807,3.3807,3.3815,3.3902,3.3967,3.3961,3.4062,3.4123,3.4136,3.4136,3.4012,3.3929,3.4064,3.4509,3.5041,3.605,3.6997,3.7522,3.8287,3.884,3.8869,3.9117,3.9295,3.9327,3.9474,3.9656,3.9735,3.9786,3.9808,3.9905,3.9945,4.0014,4.0213,4.0241,4.0148,3.9974,3.9964,3.9925,3.9955,4.011,4.0276,4.0422,4.0473,4.0496,4.0496,4.0496,4.0496,4.0496,4.0496,4.0496,4.0496,4.0481,4.0489,4.0489,4.0353,4.0279,4.0377,4.0058,3.9635,3.8624,3.7544,3.6669,3.6086,3.558,3.5327,3.5243,3.4896,3.4849,3.4399,3.3781,3.3209,3.3216,3.3172,3.26,3.2135,3.2166,3.1964,3.7266,3.7284,3.7266,3.7303,3.7359,3.7248,3.7285,3.734,3.7359,3.7396,3.7039,3.5865,3.5341,3.5263,3.4243,3.3807,3.3922,3.4069,3.4124,3.406,3.4041,3.411,3.4156,3.4179,3.4518,3.5004,3.5078,3.5445,3.5973,3.6009,3.6285,3.6083,3.6009,3.5862,3.5206,3.5096,3.4775,3.4328,3.4149,3.4181,3.4229,3.4377,3.4514,3.4545,3.4797,3.4971,3.4999,3.5007,3.466,3.4144,3.4781,3.5306,3.5538,3.6724,3.7565,3.7792,3.8623,3.9024,3.9186,3.9445,3.9652,3.9634,3.9701,3.9786,4.0062,4.011,4.0176,4.0362,4.0414,4.0457,4.0465,4.0465,4.0438,4.0481,4.0397,4.0386,4.0473,4.0473,4.0473,4.0481,4.0496,4.0496,4.0496,4.0496,4.0496,4.0496,4.0496,4.0496,4.0496,4.0496,4.0496,4.0496,4.0496,4.0496,4.0477,4.0419,4.0015,3.9534,3.8457,3.7514,3.6553,3.5937,3.55,3.5407,3.5391,3.5391,3.5219,3.4552,3.4266,3.4292,3.397,3.3412,3.3184,3.3179,3.2875,3.7947,3.8252,3.7877,3.7947,3.8201,3.7894,3.7947,3.8269,3.8285,3.8236,3.8031,3.7244,3.675,3.6818,3.5904,3.5553,3.5518,3.555,3.5642,3.5656,3.5661,3.5642,3.5642,3.5624,3.5716,3.5936,3.5954,3.6083,3.6285,3.6413,3.6376,3.6285,3.6413,3.6248,3.5973,3.5968,3.5975,3.5929,3.5912,3.6006,3.6182,3.6272,3.6403,3.6414,3.6451,3.6493,3.6539,3.6529,3.6166,3.5476,3.6167,3.6918,3.7347,3.7878,3.8396,3.8927,3.9239,3.9462,3.9541,3.9786,3.9962,4.0002,4.011,4.0311,4.0381,4.0389,4.0422,4.0496,4.0496,4.0496,4.0496,4.0496,4.0496,4.0496,4.0496,4.0496,4.0496,4.0496,4.0496,4.0496,4.0496,4.0496,4.0496,4.0496,4.0496,4.0496,4.0504,4.0512,4.0534,4.0526,4.0554,4.0508,4.0504,4.0496,4.0496,4.0496,4.0381,4.0169,3.9292,3.8209,3.7112,3.6073,3.5713,3.5474,3.5506,3.5527,3.5556,3.5263,3.5288,3.5131,3.5029,3.4586,3.4259,3.4104,3.3711,3.8415,3.8676,3.8348,3.8399,3.8643,3.8348,3.8433,3.8658,3.8707,3.8707,3.8524,3.7845,3.7511,3.7419,3.6652,3.6285,3.6285,3.6285,3.6266,3.6354,3.6611,3.6574,3.6358,3.6285,3.645,3.6813,3.6813,3.7,3.7276,3.7312,3.7312,3.7367,3.7312,3.7198,3.6994,3.6976,3.6928,3.6918,3.6932,3.7017,3.7181,3.7325,3.7356,3.7385,3.7452,3.7537,3.7565,3.787,3.7576,3.6885,3.7227,3.7926,3.8357,3.8743,3.912,3.9611,3.9731,3.9827,3.988,4.0101,4.0269,4.0295,4.0441,4.0481,4.0489,4.0496,4.0496,4.0496,4.0496,4.0496,4.0496,4.0496,4.0496,4.0496,4.0496,4.0496,4.0496,4.0496,4.0496,4.0496,4.0496,4.0496,4.0496,4.0496,4.0496,4.0512,4.0574,4.0588,4.0615,4.061,4.061,4.0585,4.0585,4.0623,4.0635,4.0635,4.0616,4.0443,3.9997,3.8935,3.77,3.6489,3.6054,3.5817,3.5728,3.5657,3.5667,3.5694,3.5626,3.557,3.5741,3.5658,3.5215,3.4886,3.4474,3.8707,3.8707,3.8707,3.8707,3.8707,3.8692,3.8658,3.8707,3.8707,3.8707,3.856,3.797,3.7749,3.7584,3.7147,3.6633,3.6633,3.6798,3.6707,3.6927,3.7239,3.7345,3.6872,3.6853,3.7129,3.7566,3.7621,3.797,3.8285,3.8524,3.8661,3.8519,3.8593,3.8487,3.8167,3.8077,3.7882,3.7756,3.7791,3.7843,3.7955,3.8108,3.8219,3.8246,3.8375,3.8439,3.8577,3.8904,3.8829,3.7628,3.8239,3.866,3.8809,3.9383,3.9659,3.9789,4.0003,4.0139,4.0167,4.0347,4.0481,4.0473,4.0481,4.0496,4.0496,4.0496,4.0496,4.0496,4.0496,4.0496,4.0496,4.0496,4.0496,4.0504,4.0504,4.0515,4.0519,4.0504,4.0496,4.0504,4.0504,4.0527,4.0527,4.0523,4.0533,4.0604,4.0647,4.067,4.0699,4.0712,4.0728,4.0733,4.0746,4.0773,4.0777,4.0777,4.076,4.0693,4.0349,3.9509,3.8276,3.7232,3.6624,3.6245,3.6031,3.5843,3.5743,3.5764,3.5801,3.5832,3.5889,3.589,3.5812,3.5599,3.5267,3.8707,3.8707,3.8707,3.8707,3.8707,3.8707,3.8707,3.8707,3.8707,3.8707,3.8652,3.8487,3.8414,3.8414,3.8157,3.8193,3.8046,3.8046,3.8175,3.8212,3.8303,3.8377,3.8138,3.808,3.8227,3.8377,3.8432,3.8557,3.8704,3.8747,3.8815,3.8999,3.9022,3.9091,3.9175,3.9122,3.9365,3.9429,3.9403,3.9433,3.954,3.9627,3.9687,3.9714,3.9792,3.9892,3.9977,4.015,4.0084,3.9912,3.987,3.9865,3.9942,4.0123,4.0229,4.0257,4.0319,4.0397,4.0414,4.0457,4.0496,4.0496,4.0496,4.0496,4.0496,4.0496,4.0496,4.0496,4.0496,4.0496,4.0519,4.0504,4.0508,4.0545,4.0603,4.0649,4.063,4.0561,4.0523,4.053,4.0584,4.0649,4.0655,4.0696,4.0708,4.0718,4.0737,4.0775,4.08,4.0821,4.0854,4.088,4.0896,4.0905,4.0905,4.0908,4.0908,4.0908,4.0638,4.0374,3.9121,3.8007,3.74,3.6799,3.625,3.6087,3.5925,3.5879,3.5937,3.5976,3.5976,3.5976,3.5957,3.5957,3.5937,3.8707,3.8707,3.8707,3.8707,3.8707,3.8707,3.8707,3.8707,3.8707,3.8707,3.8707,3.8707,3.8707,3.8707,3.8707,3.8689,3.8707,3.8707,3.8689,3.8652,3.8689,3.8689,3.875,3.8818,3.8844,3.8735,3.8689,3.8747,3.884,3.8909,3.9054,3.9302,3.9327,3.9498,3.9767,3.9829,3.9955,4.0174,4.0276,4.0364,4.0473,4.0496,4.0496,4.0496,4.0496,4.0496,4.0458,4.0477,4.0496,4.0496,4.0496,4.0496,4.0496,4.0496,4.0496,4.0496,4.0496,4.0496,4.0489,4.0496,4.0496,4.0496,4.0496,4.0496,4.0496,4.0496,4.0496,4.0496,4.0504,4.0527,4.0595,4.0589,4.059,4.0653,4.0715,4.0742,4.0727,4.0674,4.0628,4.0645,4.0687,4.0732,4.0776,4.0813,4.0793,4.08,4.0867,4.0905,4.0942,4.0976,4.1017,4.1048,4.1023,4.1021,4.1021,4.1023,4.1028,4.1052,4.1,4.0848,4.0297,3.9216,3.8213,3.7578,3.6934,3.6348,3.6191,3.6133,3.6074,3.5996,3.5996,3.6016,3.6016,3.5996,3.5996,3.8707,3.8707,3.8707,3.8707,3.8707,3.8707,3.8707,3.8707,3.8707,3.8707,3.8707,3.8707,3.8707,3.8707,3.8707,3.8707,3.8704,3.8773,3.8818,3.8785,3.8917,3.8946,3.8984,3.9068,3.9095,3.8866,3.8921,3.9017,3.9125,3.9186,3.9371,3.9622,3.9668,3.9851,4.0081,4.0167,4.025,4.0441,4.0457,4.0465,4.0489,4.0496,4.0496,4.0496,4.0496,4.0496,4.0496,4.0496,4.0496,4.0496,4.0496,4.0496,4.0496,4.0496,4.0496,4.0496,4.0496,4.0496,4.0496,4.0496,4.0496,4.0496,4.0496,4.0496,4.0496,4.0542,4.0552,4.054,4.0549,4.0604,4.0696,4.0693,4.0732,4.0784,4.0801,4.082,4.0824,4.085,4.0854,4.0781,4.0817,4.0859,4.0873,4.0902,4.0887,4.0879,4.0976,4.1035,4.1074,4.1094,4.1113,4.1133,4.1113,4.1113,4.1113,4.1113,4.1113,4.1133,4.1172,4.1133,4.1055,4.0371,3.9297,3.834,3.7676,3.7129,3.666,3.6562,3.6426,3.6172,3.6016,3.6016,3.6016,3.6016,3.6016,3.8707,3.8707,3.8707,3.8707,3.8707,3.8707,3.8707,3.8707,3.8707,3.8707,3.8707,3.8707,3.8707,3.8707,3.8707,3.8707,3.8762,3.8923,3.9054,3.909,3.9249,3.9377,3.9377,3.9457,3.9469,3.9469,3.9445,3.9493,3.9505,3.9541,3.9709,3.9943,4.0012,4.0167,4.0347,4.0441,4.0425,4.0481,4.0496,4.0496,4.0496,4.0496,4.0496,4.0496,4.0496,4.0496,4.0496,4.0496,4.0496,4.0496,4.0496,4.0496,4.0496,4.0496,4.0496,4.0496,4.0496,4.0496,4.0496,4.0496,4.0496,4.0496,4.0512,4.0512,4.0542,4.0596,4.0649,4.0672,4.0701,4.0742,4.0768,4.0792,4.0777,4.082,4.0911,4.0981,4.099,4.1025,4.1021,4.0886,4.092,4.0981,4.099,4.1016,4.1035,4.1035,4.1074,4.1113,4.1133,4.1152,4.1172,4.1191,4.1191,4.1191,4.1191,4.1172,4.1172,4.1172,4.1191,4.1191,4.1133,4.1133,4.0449,3.9473,3.8633,3.8027,3.7617,3.7148,3.6738,3.6445,3.623,3.6035,3.6016,3.6016,3.6016,3.8707,3.8707,3.8707,3.8707,3.8707,3.8707,3.8707,3.8707,3.8707,3.8707,3.8707,3.8707,3.8707,3.8707,3.8707,3.8762,3.8947,3.9236,3.9339,3.9414,3.9529,3.9611,3.9656,3.9775,3.984,3.9893,3.9974,3.9964,3.9861,3.9851,4.0013,4.0221,4.0313,4.0372,4.0465,4.0489,4.0496,4.0496,4.0496,4.0496,4.0496,4.0496,4.0496,4.0496,4.0496,4.0496,4.0496,4.0496,4.0496,4.0496,4.0496,4.0496,4.0496,4.0496,4.0496,4.0496,4.0496,4.0496,4.0496,4.0496,4.0496,4.0492,4.054,4.0596,4.0623,4.0682,4.0747,4.0771,4.0766,4.0824,4.0902,4.0908,4.0928,4.0996,4.1055,4.1094,4.1113,4.1152,4.1094,4.0996,4.1055,4.1094,4.1125,4.1152,4.1191,4.1191,4.1191,4.1191,4.1191,4.1191,4.1191,4.1191,4.1191,4.1191,4.1191,4.1191,4.1191,4.1191,4.1191,4.1191,4.1191,4.1172,4.1074,4.0586,3.9805,3.8984,3.8223,3.7656,3.7187,3.6738,3.6426,3.6191,3.6074,3.6016,3.6016,3.8707,3.8707,3.8707,3.8707,3.8707,3.8707,3.8707,3.8707,3.8707,3.8732,3.8792,3.8788,3.8829,3.8873,3.8931,3.9017,3.9225,3.9534,3.9679,3.9712,3.98,3.981,3.9863,4.0003,4.0177,4.0185,4.0311,4.0389,4.0194,4.0157,4.0294,4.0397,4.0481,4.0496,4.0496,4.0496,4.0496,4.0496,4.0496,4.0496,4.0496,4.0496,4.0496,4.0496,4.0496,4.0496,4.0496,4.0496,4.0496,4.0496,4.0496,4.0496,4.0496,4.0496,4.0512,4.0523,4.05,4.0496,4.0504,4.0537,4.0559,4.0554,4.0648,4.0688,4.0742,4.0779,4.0857,4.0867,4.0905,4.0928,4.1025,4.103,4.1081,4.1133,4.1172,4.1191,4.1191,4.1191,4.1191,4.1152,4.1191,4.1191,4.1191,4.1191,4.1191,4.1191,4.1191,4.1191,4.1191,4.1191,4.1191,4.1191,4.1191,4.1191,4.1191,4.1191,4.1191,4.1191,4.1191,4.1191,4.1191,4.1191,4.1094,4.1016,4.0723,3.9883,3.9023,3.834,3.8105,3.7637,3.6836,3.6465,3.6543,3.625,3.6016,3.8707,3.8707,3.8707,3.8707,3.8707,3.8704,3.8723,3.8704,3.875,3.8844,3.9063,3.9077,3.9223,3.9402,3.9476,3.9505,3.9634,3.9861,4.0032,4.0062,4.0212,4.0283,4.0353,4.0414,4.0417,4.0397,4.0465,4.05,4.0425,4.0406,4.0449,4.0489,4.0496,4.0496,4.0496,4.0496,4.0496,4.0496,4.0496,4.0496,4.0496,4.0496,4.0496,4.0496,4.0496,4.0496,4.0496,4.0496,4.0496,4.0496,4.0496,4.0496,4.0496,4.0496,4.0554,4.0596,4.0588,4.0496,4.0537,4.0604,4.0674,4.0678,4.0747,4.0764,4.0839,4.0908,4.1002,4.115,4.1152,4.1133,4.1133,4.1172,4.1172,4.1191,4.1191,4.1191,4.1191,4.1191,4.1191,4.1191,4.1191,4.1191,4.1191,4.1191,4.1191,4.1191,4.1191,4.1191,4.1191,4.1191,4.1191,4.1191,4.1191,4.1191,4.1191,4.1191,4.1191,4.1191,4.1191,4.1191,4.1191,4.1191,4.1191,4.1094,4.0898,4.0703,3.9941,3.9394,3.9141,3.8535,3.7734,3.7363,3.7168,3.6758,3.6387,3.8707,3.8707,3.8707,3.8707,3.8719,3.8873,3.8919,3.8961,3.9141,3.9275,3.9352,3.9396,3.9462,3.9645,3.9775,3.988,3.9953,4.0176,4.0321,4.0321,4.0422,4.0496,4.0481,4.0496,4.0496,4.0496,4.0496,4.0489,4.0496,4.0496,4.0496,4.0496,4.0496,4.0496,4.0496,4.0496,4.0496,4.0496,4.0496,4.0496,4.0496,4.0496,4.0496,4.0496,4.0496,4.0496,4.0496,4.0496,4.0496,4.0496,4.0496,4.0537,4.0589,4.063,4.0667,4.0723,4.0698,4.0666,4.0671,4.0738,4.0752,4.079,4.0847,4.095,4.1019,4.1074,4.1113,4.1191,4.1191,4.1191,4.1191,4.1191,4.1191,4.1191,4.1191,4.1191,4.1191,4.1191,4.1191,4.1191,4.1191,4.1191,4.1191,4.1191,4.1191,4.1191,4.1191,4.1191,4.1191,4.1191,4.1191,4.1191,4.1191,4.1191,4.1191,4.1191,4.1191,4.1191,4.1191,4.1191,4.1191,4.1191,4.1191,4.1191,4.1094,4.0859,4.0586,4.0195,3.9687,3.916,3.8633,3.8301,3.8027,3.793,3.75,3.8931,3.8898,3.8848,3.8862,3.8927,3.9144,3.9212,3.9251,3.945,3.9634,3.9735,3.9819,3.9832,3.9863,4.0091,4.0195,4.0213,4.0406,4.0481,4.0496,4.0496,4.0496,4.0496,4.0496,4.0496,4.0496,4.0496,4.0496,4.0496,4.0496,4.0496,4.0496,4.0496,4.0496,4.0496,4.0496,4.0496,4.0496,4.0496,4.0496,4.0496,4.0496,4.0496,4.0496,4.0496,4.0496,4.0496,4.0496,4.0496,4.0559,4.0566,4.061,4.0688,4.0726,4.0767,4.0828,4.0843,4.0864,4.0867,4.0877,4.0841,4.0883,4.0962,4.1074,4.1152,4.1191,4.1191,4.1191,4.1191,4.1191,4.1191,4.1191,4.1191,4.1191,4.1191,4.1191,4.1191,4.1191,4.1191,4.1191,4.1191,4.1191,4.1191,4.1191,4.1191,4.1191,4.1191,4.1191,4.1191,4.1191,4.1191,4.1191,4.1191,4.1191,4.1191,4.1191,4.1191,4.1191,4.1191,4.1191,4.1191,4.1191,4.1191,4.1191,4.1191,4.1113,4.0879,4.0547,4.0215,3.9922,3.9609,3.916,3.8887,3.8809,3.8516,3.9541,3.9517,3.9205,3.9244,3.9505,3.9564,3.9564,3.9557,3.9592,3.9819,4.0053,4.0276,4.0372,4.0425,4.0389,4.0441,4.0465,4.0489,4.0496,4.0496,4.0496,4.0496,4.0496,4.0496,4.0496,4.0496,4.0496,4.0496,4.0496,4.0496,4.0496,4.0496,4.0496,4.0496,4.0496,4.0496,4.0496,4.0496,4.0496,4.0496,4.0496,4.0496,4.0496,4.0496,4.0496,4.0496,4.0496,4.0512,4.0559,4.0662,4.0654,4.0721,4.0803,4.0824,4.0857,4.0955,4.099,4.1025,4.1056,4.1026,4.0992,4.1023,4.1094,4.1152,4.1191,4.1191,4.1191,4.1191,4.1191,4.1191,4.1191,4.1191,4.1191,4.1191,4.1191,4.1191,4.1191,4.1191,4.1191,4.1191,4.1191,4.1191,4.1191,4.1191,4.1191,4.1191,4.1191,4.1191,4.1191,4.1191,4.1191,4.1191,4.1191,4.1191,4.1191,4.1191,4.1191,4.1191,4.1191,4.1191,4.1191,4.1191,4.1191,4.1191,4.1191,4.1191,4.1191,4.0898,4.0723,4.082,4.0586,4.0039,3.957,3.9316,3.9062,3.9712,3.9891,3.9765,3.9668,3.9611,3.9819,3.9912,3.9943,4.0091,4.0212,4.0347,4.0457,4.0496,4.0496,4.0496,4.0496,4.0496,4.0496,4.0496,4.0496,4.0496,4.0496,4.0496,4.0496,4.0496,4.0496,4.0496,4.0496,4.0496,4.0496,4.0496,4.0496,4.0496,4.0496,4.0496,4.0496,4.0496,4.0496,4.0496,4.0496,4.0496,4.0496,4.0496,4.0496,4.0496,4.0496,4.0512,4.0575,4.063,4.0709,4.0752,4.0832,4.0905,4.0917,4.099,4.1074,4.1113,4.1152,4.1172,4.1152,4.1127,4.1128,4.1172,4.1191,4.1191,4.1191,4.1191,4.1191,4.1191,4.1191,4.1191,4.1191,4.1191,4.1191,4.1191,4.1191,4.1191,4.1191,4.1191,4.1191,4.1191,4.1191,4.1191,4.1191,4.1191,4.1191,4.1191,4.1191,4.1191,4.1191,4.1191,4.1191,4.1191,4.1191,4.1191,4.1191,4.1191,4.1191,4.1191,4.1191,4.1191,4.1191,4.1191,4.1191,4.1191,4.1191,4.1191,4.1191,4.1152,4.1055,4.0996,4.0801,4.0351,3.9902,3.9648,3.9994,4.0204,4.0213,4.0072,3.9924,4.012,4.0213,4.0241,4.0397,4.0496,4.0496,4.0496,4.0496,4.0496,4.0496,4.0496,4.0496,4.0496,4.0496,4.0496,4.0496,4.0496,4.0496,4.0496,4.0496,4.0496,4.0496,4.0496,4.0496,4.0496,4.0496,4.0496,4.0496,4.0496,4.0496,4.0496,4.0496,4.0496,4.0496,4.0496,4.0496,4.0496,4.0496,4.0512,4.0537,4.0561,4.059,4.0666,4.0757,4.0814,4.0855,4.0942,4.1,4.1058,4.1094,4.1152,4.1191,4.1191,4.1191,4.1191,4.1191,4.1191,4.1191,4.1191,4.1191,4.1191,4.1191,4.1191,4.1191,4.1191,4.1191,4.1191,4.1191,4.1191,4.1191,4.1191,4.1191,4.1191,4.1191,4.1191,4.1191,4.1191,4.1211,4.1211,4.1269,4.125,4.1191,4.1191,4.1191,4.1191,4.1191,4.1191,4.1191,4.1191,4.1191,4.1191,4.1172,4.1191,4.1191,4.1191,4.1191,4.1191,4.1191,4.1191,4.1191,4.1191,4.1191,4.1191,4.1191,4.1191,4.1113,4.1035,4.0957,4.0547,4.0449,4.0465,4.0489,4.0481,4.0473,4.0422,4.0473,4.0473,4.043,4.0481,4.0496,4.0496,4.0496,4.0496,4.0496,4.0496,4.0496,4.0496,4.0496,4.0496,4.0496,4.0496,4.0496,4.0496,4.0496,4.0496,4.0496,4.0496,4.0496,4.0496,4.0496,4.0496,4.0512,4.0527,4.0519,4.0496,4.0496,4.0496,4.0496,4.0496,4.0527,4.0515,4.0537,4.0547,4.0582,4.0642,4.0659,4.0688,4.0757,4.0859,4.0931,4.0979,4.1052,4.1149,4.1152,4.1172,4.1191,4.1191,4.1191,4.1191,4.1191,4.1191,4.1191,4.1191,4.1191,4.1191,4.1191,4.1191,4.1191,4.1191,4.1191,4.1191,4.1191,4.1191,4.1191,4.1191,4.1191,4.1191,4.1191,4.1191,4.1191,4.1191,4.1211,4.1211,4.125,4.1308,4.1308,4.123,4.1211,4.123,4.1133,4.1113,4.1094,4.1074,4.1074,4.1074,4.1133,4.1152,4.1172,4.1152,4.1113,4.1113,4.1094,4.1113,4.1172,4.1133,4.1074,4.1113,4.1172,4.1113,4.1074,4.1172,4.1152,4.1172,4.1133,4.0937,4.0496,4.0496,4.0496,4.0496,4.0496,4.0496,4.0496,4.0496,4.0496,4.0496,4.0496,4.0496,4.0496,4.0496,4.0496,4.0496,4.0496,4.0496,4.0496,4.0496,4.0496,4.0496,4.0496,4.0496,4.0496,4.0496,4.0496,4.0496,4.0496,4.0512,4.0504,4.0512,4.0589,4.0588,4.0527,4.0496,4.0496,4.0519,4.0581,4.0643,4.0636,4.067,4.0682,4.0701,4.0733,4.0761,4.077,4.0864,4.0959,4.1023,4.1056,4.1152,4.1191,4.1191,4.1191,4.1191,4.1191,4.1191,4.1191,4.1191,4.1191,4.1191,4.1191,4.1191,4.1191,4.1191,4.1191,4.1191,4.1191,4.1191,4.1191,4.1191,4.1191,4.1191,4.1191,4.1191,4.1191,4.1191,4.1191,4.1191,4.1191,4.1348,4.1406,4.1855,4.1992,4.1781,4.1719,4.1426,4.1348,4.1074,4.0937,4.0898,4.0898,4.0898,4.095,4.1209,4.1115,4.0996,4.0957,4.0918,4.0918,4.0968,4.0957,4.0976,4.0957,4.0928,4.0968,4.0998,4.0935,4.0937,4.1052,4.1129,4.1133,4.1152,4.1133,4.0496,4.0496,4.0496,4.0496,4.0496,4.0496,4.0496,4.0496,4.0496,4.0496,4.0496,4.0496,4.0496,4.0496,4.0496,4.0496,4.0496,4.0496,4.0496,4.0496,4.0496,4.0496,4.0496,4.0496,4.0496,4.0496,4.0523,4.0531,4.0568,4.0561,4.059,4.0629,4.0688,4.0668,4.0635,4.0616,4.0616,4.0633,4.069,4.0717,4.0738,4.0761,4.0785,4.0817,4.0843,4.0887,4.0911,4.0966,4.1055,4.1094,4.1133,4.1191,4.1191,4.1191,4.1191,4.1191,4.1191,4.1191,4.1191,4.1191,4.1191,4.1191,4.1191,4.1191,4.1191,4.1191,4.1191,4.1191,4.1191,4.1191,4.1191,4.1191,4.1191,4.1191,4.1191,4.1191,4.1269,4.1269,4.1504,4.1465,4.1621,4.1699,4.1933,4.2383,4.2812,4.2535,4.2259,4.1986,4.1749,4.156,4.1444,4.1468,4.1481,4.1665,4.1618,4.1477,4.1279,4.0863,4.0902,4.1017,4.0809,4.0874,4.082,4.0797,4.0839,4.085,4.0836,4.0809,4.0809,4.0854,4.0922,4.0996,4.1054,4.108,4.1103,4.0496,4.0496,4.0496,4.0496,4.0496,4.0496,4.0496,4.0496,4.0496,4.0496,4.0496,4.0496,4.0496,4.0496,4.0496,4.0496,4.0496,4.0496,4.0496,4.0496,4.0496,4.0496,4.0496,4.0496,4.0527,4.0519,4.0549,4.061,4.0692,4.069,4.0717,4.0788,4.0813,4.0821,4.0821,4.0828,4.0789,4.0764,4.08,4.0817,4.0851,4.085,4.0877,4.0914,4.0955,4.0994,4.103,4.1104,4.1152,4.1191,4.1191,4.1191,4.1191,4.1191,4.1191,4.1191,4.1191,4.1191,4.1191,4.1191,4.1191,4.1191,4.1191,4.1191,4.1191,4.1191,4.1191,4.1191,4.1191,4.1191,4.1191,4.1191,4.1191,4.1191,4.1191,4.1269,4.1367,4.1543,4.1855,4.2051,4.2305,4.2558,4.2988,4.3418,4.359,4.3532,4.3406,4.3549,4.3253,4.2753,4.2657,4.2643,4.2669,4.2685,4.251,4.2126,4.1955,4.1698,4.1431,4.1431,4.115,4.0902,4.0893,4.0883,4.0809,4.0755,4.0713,4.0723,4.0761,4.0796,4.0792,4.0854,4.0905,4.0905,4.0911,4.0496,4.0496,4.0496,4.0496,4.0496,4.0496,4.0496,4.0496,4.0496,4.0496,4.0496,4.0496,4.0496,4.0496,4.0496,4.0496,4.0496,4.0496,4.0496,4.0496,4.0496,4.0496,4.0504,4.0519,4.0559,4.0616,4.0655,4.0676,4.0747,4.077,4.0851,4.092,4.095,4.099,4.1048,4.1074,4.0959,4.0899,4.0914,4.0944,4.0983,4.1,4.1035,4.1074,4.1074,4.1113,4.1152,4.1172,4.1191,4.1191,4.1191,4.1191,4.1191,4.1191,4.1191,4.1191,4.1191,4.1191,4.1191,4.1191,4.1191,4.1191,4.1191,4.1191,4.1191,4.1191,4.1191,4.1191,4.1191,4.1191,4.1191,4.1191,4.1308,4.1406,4.1465,4.1621,4.1754,4.2096,4.2423,4.298,4.3226,4.3483,4.3941,4.4221,4.4374,4.4448,4.4535,4.4679,4.4594,4.4008,4.3724,4.3711,4.3569,4.3499,4.3188,4.2804,4.27,4.2565,4.2241,4.1938,4.1738,4.15,4.1164,4.1036,4.1053,4.0829,4.0564,4.061,4.0645,4.061,4.0597,4.069,4.0752,4.0757,4.077,4.0496,4.0496,4.0496,4.0496,4.0496,4.0496,4.0496,4.0496,4.0496,4.0496,4.0496,4.0496,4.0496,4.0496,4.0496,4.0496,4.0496,4.0496,4.0496,4.0496,4.0504,4.0545,4.0559,4.0582,4.0642,4.0699,4.0747,4.0775,4.086,4.0952,4.1023,4.1056,4.1074,4.1113,4.1172,4.1152,4.1113,4.1051,4.1048,4.1074,4.1113,4.1152,4.1191,4.1191,4.1191,4.1191,4.1191,4.1191,4.1191,4.1191,4.1191,4.1191,4.1191,4.1191,4.1191,4.1191,4.1191,4.1191,4.1191,4.1191,4.1191,4.1191,4.1191,4.1191,4.1191,4.1191,4.1191,4.1191,4.1191,4.1191,4.1191,4.123,4.1465,4.168,4.1855,4.2051,4.2358,4.27,4.3248,4.3893,4.4221,4.4425,4.4703,4.4948,4.5121,4.5143,4.5175,4.5229,4.5182,4.4866,4.4654,4.4604,4.4399,4.4209,4.3855,4.3547,4.3387,4.3188,4.283,4.256,4.2354,4.2236,4.2086,4.1744,4.1393,4.1232,4.1131,4.0635,4.0537,4.0554,4.0593,4.0609,4.0648,4.0629,4.0653,4.0496,4.0496,4.0496,4.0496,4.0496,4.0496,4.0496,4.0496,4.0496,4.0496,4.0496,4.0496,4.0496,4.0496,4.0496,4.0496,4.0496,4.0496,4.0534,4.0519,4.0557,4.0596,4.0672,4.0707,4.0747,4.0777,4.0847,4.0896,4.1019,4.1094,4.1133,4.1191,4.1191,4.1191,4.1191,4.1191,4.1172,4.1152,4.1152,4.1172,4.1172,4.1191,4.1191,4.1191,4.1191,4.1191,4.1191,4.1191,4.1191,4.1191,4.1191,4.1191,4.1191,4.1191,4.1191,4.1191,4.1191,4.1191,4.1191,4.1191,4.1191,4.1191,4.1191,4.1191,4.1191,4.1191,4.1191,4.1191,4.1191,4.1445,4.1523,4.166,4.1855,4.2246,4.2578,4.2936,4.337,4.3743,4.4209,4.4725,4.4916,4.5115,4.518,4.5402,4.5363,4.5585,4.563,4.5618,4.5554,4.5364,4.5306,4.5248,4.5056,4.4806,4.4652,4.4335,4.4066,4.3805,4.3566,4.3316,4.322,4.3143,4.3047,4.2566,4.2085,4.1989,4.1824,4.1489,4.1143,4.0873,4.0843,4.065,4.0585,4.0622,4.0554,4.0496,4.0496,4.0496,4.0496,4.0496,4.0496,4.0496,4.0496,4.0496,4.0496,4.0496,4.0496,4.0496,4.0496,4.0496,4.0496,4.0496,4.0534,4.0574,4.0623,4.0655,4.0693,4.0757,4.0784,4.0843,4.0914,4.0964,4.1016,4.1113,4.1172,4.1191,4.1191,4.1191,4.1191,4.1191,4.1191,4.1191,4.1191,4.1191,4.1191,4.1191,4.1191,4.1191,4.1191,4.1191,4.1191,4.1191,4.1191,4.1191,4.1191,4.1191,4.1191,4.1191,4.1191,4.1191,4.1191,4.1211,4.123,4.1328,4.1367,4.1406,4.1348,4.1348,4.125,4.1191,4.1211,4.123,4.125,4.1367,4.166,4.1973,4.2148,4.24,4.2876,4.3314,4.3841,4.4355,4.4758,4.5164,4.5362,4.5556,4.5619,4.5676,4.5665,4.5668,4.5643,4.5607,4.5603,4.5603,4.5498,4.5479,4.5441,4.5479,4.5325,4.521,4.5075,4.4759,4.4797,4.4729,4.4432,4.4085,4.3874,4.3662,4.322,4.2835,4.2797,4.2758,4.2701,4.2316,4.172,4.145,4.1401,4.0958,4.0835,4.0646,4.0496,4.0496,4.0496,4.0496,4.0496,4.0496,4.0496,4.0496,4.0496,4.0496,4.0496,4.0496,4.0496,4.0496,4.0496,4.0519,4.0515,4.0574,4.0623,4.0686,4.0757,4.0796,4.0827,4.0883,4.0988,4.1054,4.1081,4.1133,4.1191,4.1191,4.1191,4.1191,4.1191,4.1191,4.1191,4.1191,4.1191,4.1191,4.1211,4.125,4.125,4.123,4.1211,4.1191,4.123,4.125,4.1191,4.1191,4.1191,4.1191,4.1191,4.1191,4.1191,4.1191,4.1191,4.1191,4.123,4.1348,4.1621,4.1777,4.1894,4.2031,4.2266,4.248,4.2519,4.2539,4.2187,4.2148,4.1914,4.2129,4.2715,4.3008,4.3405,4.3872,4.4047,4.4335,4.4814,4.5237,4.5426,4.548,4.5594,4.5594,4.5632,4.5632,4.5629,4.5629,4.5594,4.5594,4.5594,4.5594,4.5594,4.5594,4.5594,4.5594,4.546,4.5421,4.5383,4.5518,4.5594,4.5287,4.4797,4.4528,4.4239,4.4028,4.3835,4.3643,4.3624,4.3547,4.3143,4.2508,4.2335,4.2258,4.1739,4.1239,4.1181,4.0496,4.0496,4.0496,4.0496,4.0496,4.0496,4.0496,4.0496,4.0496,4.0519,4.053,4.053,4.0508,4.0515,4.0533,4.0533,4.0563,4.0647,4.0693,4.0772,4.0824,4.0908,4.0988,4.1026,4.1103,4.1152,4.1172,4.1191,4.1191,4.1191,4.1191,4.1191,4.1191,4.1191,4.1191,4.1191,4.1191,4.1289,4.1348,4.1406,4.1367,4.1348,4.1426,4.1426,4.1484,4.1523,4.1543,4.1543,4.1562,4.1641,4.1797,4.1836,4.1855,4.1894,4.1836,4.1875,4.1914,4.2168,4.2422,4.2578,4.2969,4.334,4.3652,4.3711,4.3691,4.3496,4.3144,4.3066,4.2832,4.2871,4.3476,4.3892,4.4304,4.4682,4.4778,4.482,4.5233,4.5616,4.5607,4.561,4.5594,4.5594,4.5594,4.5594,4.5594,4.5594,4.5594,4.5594,4.5594,4.5594,4.5594,4.5594,4.5594,4.5594,4.5594,4.5594,4.5594,4.5594,4.5594,4.5594,4.5498,4.5133,4.4998,4.5163,4.4951,4.4566,4.4335,4.422,4.3739,4.3297,4.322,4.3085,4.2604,4.2181,4.2027,4.0496,4.0496,4.0496,4.0496,4.0496,4.0496,4.0496,4.0496,4.0504,4.0552,4.0643,4.0655,4.0655,4.0667,4.0732,4.0733,4.0698,4.077,4.0866,4.0942,4.095,4.1049,4.1113,4.1113,4.1152,4.1191,4.1191,4.1191,4.1191,4.1191,4.1191,4.1191,4.1191,4.1191,4.1191,4.1211,4.125,4.1426,4.1836,4.2051,4.2187,4.2187,4.2168,4.2402,4.2871,4.3086,4.3223,4.3223,4.3223,4.3223,4.3105,4.3027,4.2949,4.2891,4.2891,4.2793,4.2832,4.3066,4.332,4.3437,4.3808,4.3984,4.4121,4.4062,4.4023,4.4004,4.3945,4.4355,4.418,4.4023,4.4402,4.454,4.488,4.5261,4.5466,4.5418,4.5576,4.5685,4.5696,4.5648,4.5594,4.5594,4.5594,4.5594,4.5594,4.5594,4.5594,4.5594,4.5594,4.5594,4.5594,4.5594,4.5594,4.5594,4.5594,4.5594,4.5594,4.5594,4.5594,4.5594,4.5594,4.5594,4.5556,4.5518,4.5537,4.5267,4.5094,4.4797,4.4605,4.4239,4.4124,4.3912,4.3451,4.3085,4.2893]}]]